[[{"header":{"parameterUnit":"m.s-1","parameterCategory":1,"la1":31.0,"la2":29.5877,"lo1":-88.7671,"lo2":-86.6584,"dy":0.0162,"dx":0.0185,"nx":115,"ny":88,"refTime":"2024-06-14T00:00:00:Z","depth":0,"parameterNumber":2,"parameterNumberName":"U-component_of_WINDS"},"data":[0.0,0.0,0.0,0.0,0.0,0.0,0.0,0.0,0.0,0.0,0.0,0.0,0.0,0.0,0.0,0.0,0.0,0.0,0.0,0.0,0.0,0.0,0.0,0.0,0.0,0.0,0.0,0.0,0.0,0.0,0.0,0.0,0.0,0.0,0.0,0.0,0.0,0.0,0.0,0.0,0.0,0.0,0.0,0.0,0.0,0.0,0.0,0.0,0.0,0.0,0.0,0.0,0.0,0.0,0.0,0.0,0.0,0.0,0.0,0.0,0.0,0.0,0.0,0.0,0.0,0.0,0.0,0.0,0.0,0.0,0.0,0.0,0.0,0.0,0.0,0.0,0.0,0.0,0.0,0.0,0.0,0.0,0.0,0.0,0.0,0.0,0.0,0.0,0.0,0.0,0.0,0.0,0.0,0.0,0.0,0.0,0.0,0.0,0.0,0.0,0.0,0.0,0.0,0.0,0.0,0.0,0.0,0.0,0.0,0.0,0.0,0.0,0.0,0.0,0.0,0.0,0.0,0.0,0.0,0.0,0.0,0.0,0.0,0.0,0.0,0.0,0.0,0.0,0.0,0.0,0.0,0.0,0.0,0.0,0.0,0.0,0.0,0.0,0.0,0.0,0.0,0.0,0.0,0.0,0.0,0.0,0.0,0.0,0.0,0.0,0.0,0.0,0.0,0.0,0.0,0.0,0.0,0.0,0.0,0.0,0.0,0.0,0.0,0.0,0.0,0.0,0.0,0.0,0.0,0.0,0.0,0.0,0.0,0.0,0.0,0.0,0.0,0.0,0.0,0.0,0.0,0.0,0.0,0.0,0.0,0.0,0.0,0.0,0.0,0.0,0.0,0.0,0.0,0.0,0.0,0.0,0.0,0.0,0.0,0.0,0.0,0.0,0.0,0.0,0.0,0.0,0.0,0.0,0.0,0.0,0.0,0.0,0.0,0.0,0.0,0.0,0.0,0.0,0.0,0.0,0.0,0.0,0.0,0.0,0.0,0.0,0.0,0.0,0.0,0.0,0.0,0.0,0.0,0.0,0.0,0.0,0.0,0.0,0.0,0.0,0.0,0.0,0.0,0.0,0.0,0.0,0.0,0.0,0.0,0.0,0.0,0.0,0.0,0.0,0.0,0.0,0.0,0.0,0.0,0.0,0.0,0.0,0.0,0.0,0.0,0.0,0.0,0.0,0.0,0.0,0.0,0.0,0.0,0.0,0.0,0.0,0.0,0.0,0.0,0.0,0.0,0.0,0.0,0.0,0.0,0.0,0.0,0.0,0.0,0.0,0.0,0.0,0.0,0.0,0.0,0.0,0.0,0.0,0.0,0.0,0.0,0.0,0.0,0.0,0.0,0.0,0.0,0.0,0.0,0.0,0.0,0.0,0.0,0.0,0.0,0.0,0.0,0.0,0.0,0.0,0.0,0.0,0.0,0.0,0.0,0.0,0.0,0.0,0.0,0.0,0.0,0.0,0.0,0.0,0.0,0.0,0.0,0.0,0.0,0.0,0.0,0.0,0.0,0.0,0.0,0.0,0.0,0.0,0.0,0.0,0.0,0.0,0.0,0.0,0.0,0.0,0.0,0.0,0.0,0.0,0.0,0.0,0.0,0.0,0.0,0.0,0.0,0.0,0.0,0.0,0.0,0.0,0.0,0.0,0.0,0.0,0.0,0.0,0.0,0.0,0.0,0.0,0.0,0.0,0.0,0.0,0.0,0.0,0.0,0.0,0.0,0.0,0.0,0.0,0.0,0.0,0.0,0.0,0.0,0.0,0.0,0.0,0.0,0.0,0.0,0.0,0.0,0.0,0.0,0.0,0.0,0.0,0.0,0.0,0.0,0.0,0.0,0.0,0.0,0.0,0.0,0.0,0.0,0.0,0.0,0.0,0.0,0.0,0.0,0.0,0.0,0.0,0.0,0.0,0.0,0.0,0.0,0.0,0.0,0.0,0.0,0.0,0.0,0.0,0.0,0.0,0.0,0.0,0.0,0.0,0.0,0.0,0.0,0.0,0.0,0.0,0.0,0.0,0.0,0.0,0.0,0.0,0.0,0.0,0.0,0.0,0.0,0.0,0.0,0.0,0.0,0.0,0.0,0.0,0.0,0.0,0.0,0.0,0.0,0.0,0.0,0.0,0.0,0.0,0.0,0.0,0.0,0.0,0.0,0.0,0.0,0.0,0.0,0.0,0.0,0.0,0.0,0.0,0.0,0.0,0.0,0.0,0.0,0.0,0.0,0.0,0.0,0.0,0.0,0.0,0.0,0.0,0.0,0.0,0.0,0.0,0.0,0.0,0.0,0.0,0.0,0.0,0.0,0.0,0.0,0.0,0.0,0.0,0.0,0.0,0.0,0.0,0.0,0.0,0.0,0.0,0.0,0.0,0.0,0.0,0.0,0.0,0.0,0.0,0.0,0.0,0.0,0.0,0.0,0.0,0.0,0.0,0.0,0.0,0.0,0.0,0.0,0.0,0.0,0.0,0.0,0.0,0.0,0.0,0.0,0.0,0.0,0.0,0.0,0.0,0.0,0.0,0.0,0.0,0.0,0.0,0.0,0.0,0.0,0.0,0.0,0.0,0.0,0.0,0.0,0.0,0.0,0.0,0.0,0.0,0.0,0.0,0.0,0.0,0.0,0.0,0.0,0.0,0.0,0.0,0.0,0.0,0.0,0.0,0.0,0.0,0.0,0.0,0.0,0.0,0.0,0.0,0.0,0.0,0.0,0.0,0.0,0.0,0.0,0.0,0.0,0.0,0.0,0.0,0.0,0.0,0.0,0.0,0.0,0.0,0.0,0.0,0.0,0.0,0.0,0.0,0.0,0.0,0.0,0.0,0.0,0.0,0.0,0.0,0.0,0.0,0.0,0.0,0.0,0.0,0.0,0.0,0.0,0.0,0.0,0.0,0.0,0.0,0.0,0.0,0.0,0.0,0.0,0.0,0.0,0.0,0.0,0.0,0.0,0.0,0.0,0.0,0.0,0.0,0.0,0.0,0.0,0.0,0.0,0.0,0.0,0.0,0.0,0.0,0.0,0.0,0.0,0.0,0.0,0.0,0.0,0.0,0.0,0.0,0.0,0.0,0.0,0.0,0.0,0.0,0.0,0.0,0.0,0.0,0.0,0.0,0.0,0.0,0.0,0.0,0.0,0.0,0.0,0.0,0.0,0.0,0.0,0.0,0.0,0.0,0.0,0.0,0.0,0.0,0.0,0.0,0.0,0.0,0.0,0.0,0.0,0.0,0.0,0.0,0.0,0.0,0.0,0.0,0.0,0.0,0.0,0.0,0.0,0.0,0.0,0.0,0.0,0.0,0.0,0.0,0.0,0.0,0.0,0.0,0.0,0.0,0.0,0.0,0.0,0.0,0.0,0.0,0.0,0.0,0.0,0.0,0.0,0.0,0.0,0.0,0.0,0.0,0.0,0.0,0.0,0.0,0.0,0.0,0.0,0.0,0.0,0.0,0.0,0.0,0.0,0.0,0.0,0.0,0.0,0.0,0.0,0.0,0.0,0.0,0.0,0.0,0.0,0.0,0.0,0.0,0.0,0.0,0.0,0.0,0.0,0.0,0.0,0.0,0.0,0.0,0.0,0.0,0.0,0.0,0.0,0.0,0.0,0.0,0.0,0.0,0.0,0.0,0.0,0.0,0.0,0.0,0.0,0.0,0.0,0.0,0.0,0.0,0.0,0.0,0.0,0.0,0.0,0.0,0.0,0.0,0.0,0.0,0.0,0.0,0.0,0.0,0.0,0.0,0.0,0.0,0.0,0.0,0.0,0.0,0.0,0.0,0.0,0.0,0.0,0.0,0.0,0.0,0.0,0.0,0.0,0.0,0.0,0.0,0.0,0.0,0.0,0.0,0.0,0.0,0.0,0.0,0.0,0.0,0.0,0.0,0.0,0.0,0.0,0.0,0.0,0.0,0.0,0.0,0.0,0.0,0.0,0.0,0.0,0.0,0.0,0.0,0.0,0.0,0.0,0.0,0.0,0.0,0.0,0.0,0.0,0.0,0.0,0.0,0.0,0.0,0.0,0.0,0.0,0.0,0.0,0.0,0.0,0.0,0.0,0.0,0.0,0.0,0.0,0.0,0.0,0.0,0.0,0.0,0.0,0.0,0.0,0.0,0.0,0.0,0.0,0.0,0.0,0.0,0.0,0.0,0.0,0.0,0.0,0.0,0.0,0.0,0.0,0.0,0.0,0.0,0.0,0.0,0.0,0.0,0.0,0.0,0.0,0.0,0.0,0.0,0.0,0.0,0.0,0.0,0.0,0.0,-1.8963,0.0,0.0,0.0,0.0,0.0,0.0,0.0,0.0,0.0,0.0,0.0,0.0,0.0,0.0,0.0,0.0,0.0,0.0,0.0,0.0,0.0,0.0,0.0,0.0,0.0,0.0,0.0,0.0,0.0,0.0,0.0,0.0,0.0,0.0,0.0,0.0,0.0,0.0,0.0,0.0,0.0,0.0,0.0,0.0,0.0,0.0,0.0,0.0,0.0,0.0,0.0,0.0,0.0,0.0,0.0,0.0,0.0,0.0,0.0,0.0,0.0,0.0,0.0,0.0,0.0,0.0,0.0,0.0,0.0,0.0,0.0,0.0,0.0,0.0,0.0,0.0,0.0,0.0,0.0,0.0,0.0,0.0,0.0,0.0,0.0,0.0,0.0,0.0,0.0,0.0,0.0,0.0,0.0,0.0,0.0,0.0,0.0,0.0,0.0,0.0,0.0,0.0,0.0,0.0,0.0,0.0,0.0,0.0,0.0,0.0,-2.0192,-2.0294,-2.0301,-1.9915,-1.9072,0.0,0.0,0.0,0.0,0.0,0.0,0.0,0.0,0.0,0.0,0.0,0.0,0.0,0.0,0.0,0.0,0.0,0.0,0.0,0.0,0.0,0.0,0.0,0.0,0.0,0.0,0.0,0.0,0.0,0.0,0.0,0.0,0.0,0.0,0.0,0.0,0.0,0.0,0.0,0.0,0.0,0.0,0.0,0.0,0.0,0.0,0.0,0.0,0.0,0.0,0.0,0.0,0.0,0.0,0.0,0.0,0.0,0.0,0.0,0.0,0.0,0.0,0.0,0.0,0.0,0.0,0.0,0.0,0.0,0.0,0.0,0.0,0.0,0.0,0.0,0.0,0.0,0.0,0.0,0.0,0.0,0.0,0.0,0.0,0.0,0.0,0.0,0.0,0.0,0.0,0.0,0.0,0.0,0.0,0.0,0.0,0.0,0.0,0.0,0.0,0.0,0.0,0.0,0.0,0.0,0.0,0.0,0.0,0.0,0.0,0.0,0.0,-2.0845,-2.0446,-1.9581,0.0,0.0,0.0,0.0,0.0,0.0,0.0,0.0,0.0,0.0,0.0,0.0,0.0,0.0,0.0,0.0,0.0,0.0,0.0,0.0,0.0,0.0,0.0,0.0,0.0,0.0,0.0,0.0,0.0,0.0,0.0,0.0,0.0,0.0,0.0,0.0,0.0,0.0,0.0,0.0,0.0,0.0,0.0,0.0,0.0,0.0,0.0,0.0,0.0,0.0,0.0,0.0,0.0,0.0,0.0,0.0,0.0,0.0,0.0,0.0,0.0,0.0,0.0,0.0,0.0,0.0,0.0,0.0,0.0,0.0,0.0,0.0,0.0,0.0,0.0,0.0,0.0,0.0,0.0,0.0,0.0,0.0,0.0,0.0,0.0,0.0,0.0,0.0,0.0,0.0,0.0,0.0,0.0,0.0,0.0,0.0,0.0,0.0,0.0,0.0,0.0,0.0,0.0,0.0,0.0,0.0,0.0,0.0,0.0,0.0,-2.0736,-2.2228,-2.2451,0.0,-2.1342,0.0,0.0,0.0,0.0,0.0,0.0,0.0,0.0,0.0,0.0,0.0,0.0,0.0,0.0,0.0,0.0,0.0,0.0,0.0,0.0,0.0,0.0,0.0,0.0,0.0,0.0,0.0,0.0,0.0,0.0,0.0,0.0,0.0,0.0,0.0,0.0,0.0,0.0,0.0,0.0,0.0,0.0,0.0,0.0,0.0,0.0,0.0,0.0,0.0,0.0,0.0,0.0,0.0,0.0,0.0,0.0,0.0,0.0,0.0,0.0,0.0,0.0,0.0,0.0,0.0,0.0,0.0,0.0,0.0,0.0,0.0,0.0,0.0,0.0,0.0,0.0,0.0,0.0,0.0,0.0,0.0,0.0,0.0,0.0,0.0,0.0,0.0,0.0,0.0,0.0,0.0,0.0,0.0,0.0,0.0,0.0,0.0,0.0,0.0,0.0,0.0,0.0,0.0,0.0,0.0,0.0,0.0,0.0,0.0,0.0,0.0,-2.2536,-2.2182,-2.1578,0.0,0.0,0.0,0.0,0.0,0.0,0.0,0.0,0.0,0.0,0.0,0.0,0.0,0.0,0.0,0.0,0.0,0.0,0.0,0.0,0.0,0.0,0.0,0.0,0.0,0.0,0.0,0.0,0.0,0.0,0.0,0.0,0.0,0.0,0.0,0.0,0.0,0.0,0.0,0.0,0.0,0.0,0.0,0.0,0.0,0.0,0.0,0.0,0.0,0.0,0.0,0.0,0.0,0.0,0.0,0.0,0.0,0.0,0.0,0.0,0.0,0.0,0.0,0.0,0.0,0.0,0.0,0.0,0.0,0.0,0.0,0.0,0.0,0.0,0.0,0.0,0.0,0.0,0.0,0.0,0.0,0.0,0.0,0.0,0.0,0.0,0.0,0.0,0.0,0.0,0.0,0.0,0.0,0.0,0.0,0.0,0.0,0.0,0.0,0.0,0.0,0.0,0.0,0.0,0.0,0.0,0.0,0.0,0.0,0.0,-2.1622,0.0,-2.3164,-2.2694,-2.1683,-2.0145,0.0,0.0,0.0,0.0,0.0,0.0,0.0,0.0,0.0,0.0,0.0,0.0,0.0,0.0,0.0,0.0,0.0,0.0,0.0,0.0,0.0,0.0,0.0,0.0,0.0,0.0,0.0,0.0,0.0,0.0,0.0,0.0,0.0,0.0,0.0,0.0,0.0,0.0,0.0,0.0,0.0,0.0,0.0,0.0,0.0,0.0,0.0,0.0,0.0,0.0,0.0,0.0,0.0,0.0,0.0,0.0,0.0,0.0,0.0,0.0,0.0,0.0,0.0,0.0,0.0,0.0,0.0,0.0,0.0,0.0,0.0,0.0,0.0,0.0,0.0,0.0,0.0,0.0,0.0,0.0,0.0,0.0,0.0,0.0,0.0,0.0,0.0,0.0,0.0,0.0,0.0,0.0,0.0,0.0,0.0,0.0,0.0,0.0,0.0,0.0,0.0,0.0,0.0,0.0,0.0,0.0,0.0,0.0,0.0,-2.2654,-2.2932,-2.481,-2.4854,-2.3355,0.0,0.0,0.0,0.0,0.0,0.0,0.0,0.0,0.0,0.0,0.0,0.0,0.0,0.0,0.0,0.0,0.0,0.0,0.0,0.0,0.0,0.0,0.0,0.0,0.0,0.0,0.0,0.0,0.0,0.0,0.0,0.0,0.0,0.0,0.0,0.0,0.0,0.0,0.0,0.0,0.0,0.0,0.0,0.0,0.0,0.0,0.0,0.0,0.0,0.0,0.0,0.0,0.0,0.0,0.0,0.0,0.0,0.0,0.0,0.0,0.0,0.0,0.0,0.0,0.0,0.0,0.0,0.0,0.0,0.0,0.0,0.0,0.0,0.0,0.0,0.0,0.0,0.0,0.0,0.0,0.0,0.0,0.0,0.0,0.0,0.0,0.0,0.0,0.0,0.0,0.0,0.0,0.0,0.0,0.0,0.0,0.0,0.0,0.0,0.0,0.0,0.0,0.0,0.0,0.0,0.0,0.0,0.0,0.0,-2.1031,-2.1715,-2.3412,-2.5981,-2.3253,-2.1519,0.0,0.0,0.0,0.0,0.0,0.0,0.0,0.0,0.0,0.0,0.0,0.0,0.0,0.0,0.0,0.0,0.0,0.0,0.0,0.0,0.0,0.0,0.0,0.0,0.0,0.0,0.0,0.0,0.0,0.0,0.0,0.0,0.0,0.0,0.0,0.0,0.0,0.0,0.0,0.0,0.0,0.0,0.0,0.0,0.0,0.0,0.0,0.0,0.0,0.0,0.0,0.0,0.0,0.0,0.0,0.0,0.0,0.0,0.0,0.0,0.0,0.0,0.0,0.0,0.0,0.0,0.0,0.0,0.0,0.0,0.0,0.0,0.0,0.0,0.0,0.0,0.0,0.0,0.0,0.0,0.0,0.0,0.0,0.0,0.0,0.0,0.0,0.0,0.0,0.0,0.0,0.0,0.0,0.0,0.0,0.0,0.0,0.0,0.0,0.0,0.0,0.0,0.0,0.0,0.0,0.0,0.0,0.0,0.0,-2.0884,0.0,-2.4418,0.0,-2.2678,-2.0741,0.0,0.0,0.0,0.0,0.0,0.0,0.0,0.0,0.0,0.0,0.0,0.0,0.0,0.0,0.0,0.0,0.0,0.0,0.0,0.0,0.0,0.0,0.0,0.0,0.0,0.0,0.0,0.0,0.0,0.0,0.0,0.0,0.0,0.0,0.0,0.0,0.0,0.0,0.0,0.0,0.0,0.0,0.0,0.0,0.0,0.0,0.0,0.0,0.0,0.0,0.0,0.0,0.0,0.0,0.0,0.0,0.0,0.0,0.0,0.0,0.0,0.0,0.0,0.0,0.0,0.0,0.0,0.0,0.0,0.0,0.0,0.0,0.0,0.0,0.0,0.0,0.0,0.0,0.0,0.0,0.0,0.0,0.0,0.0,0.0,0.0,0.0,0.0,0.0,0.0,0.0,0.0,0.0,0.0,0.0,0.0,0.0,0.0,0.0,0.0,0.0,0.0,0.0,0.0,0.0,0.0,0.0,0.0,-2.0904,-2.4007,-2.5708,-2.5857,-2.4501,-2.3479,-2.1243,0.0,0.0,0.0,0.0,0.0,0.0,0.0,0.0,0.0,0.0,0.0,0.0,0.0,0.0,0.0,0.0,0.0,0.0,0.0,0.0,0.0,0.0,0.0,0.0,0.0,0.0,0.0,0.0,0.0,0.0,0.0,0.0,0.0,0.0,0.0,0.0,0.0,0.0,0.0,0.0,0.0,0.0,0.0,0.0,0.0,0.0,0.0,0.0,0.0,0.0,0.0,0.0,0.0,0.0,0.0,0.0,0.0,0.0,0.0,0.0,0.0,0.0,0.0,0.0,0.0,0.0,0.0,0.0,0.0,0.0,0.0,0.0,0.0,0.0,0.0,0.0,0.0,0.0,0.0,0.0,0.0,0.0,0.0,0.0,0.0,0.0,0.0,0.0,0.0,0.0,0.0,0.0,0.0,0.0,0.0,0.0,0.0,0.0,0.0,0.0,0.0,0.0,0.0,0.0,0.0,0.0,0.0,0.0,0.0,-2.2538,-2.3603,-2.4744,-2.574,-2.2404,-2.0468,0.0,0.0,0.0,0.0,0.0,0.0,0.0,0.0,0.0,0.0,0.0,0.0,0.0,0.0,0.0,0.0,0.0,0.0,0.0,0.0,0.0,0.0,0.0,0.0,0.0,0.0,0.0,0.0,0.0,0.0,0.0,0.0,0.0,0.0,0.0,0.0,0.0,0.0,0.0,0.0,0.0,0.0,0.0,0.0,0.0,0.0,0.0,0.0,0.0,0.0,0.0,0.0,0.0,0.0,0.0,0.0,0.0,0.0,0.0,0.0,0.0,0.0,0.0,0.0,0.0,0.0,0.0,0.0,0.0,0.0,0.0,0.0,0.0,0.0,0.0,0.0,0.0,0.0,0.0,0.0,0.0,0.0,0.0,0.0,0.0,0.0,0.0,0.0,0.0,0.0,0.0,0.0,0.0,0.0,0.0,0.0,0.0,0.0,0.0,0.0,0.0,0.0,0.0,0.0,0.0,0.0,0.0,0.0,0.0,-2.3657,-2.4667,-2.5658,-2.6576,-2.3033,-2.0999,-2.0695,0.0,0.0,0.0,0.0,0.0,0.0,0.0,0.0,0.0,0.0,0.0,0.0,0.0,0.0,0.0,0.0,0.0,0.0,0.0,0.0,0.0,0.0,0.0,0.0,0.0,0.0,0.0,0.0,0.0,0.0,0.0,0.0,0.0,0.0,0.0,0.0,0.0,0.0,0.0,0.0,0.0,0.0,0.0,0.0,0.0,0.0,0.0,0.0,0.0,0.0,0.0,0.0,0.0,0.0,0.0,0.0,0.0,0.0,0.0,0.0,0.0,0.0,0.0,0.0,0.0,0.0,0.0,0.0,0.0,0.0,0.0,0.0,0.0,0.0,0.0,0.0,0.0,0.0,0.0,0.0,0.0,0.0,0.0,0.0,0.0,0.0,0.0,0.0,0.0,0.0,0.0,0.0,0.0,0.0,0.0,0.0,0.0,0.0,0.0,0.0,0.0,0.0,0.0,0.0,0.0,0.0,0.0,0.0,-2.6701,-2.8301,-2.8393,-2.6869,-2.5124,-2.2666,0.0,0.0,0.0,0.0,0.0,0.0,0.0,0.0,0.0,0.0,0.0,0.0,0.0,0.0,0.0,0.0,0.0,0.0,0.0,0.0,0.0,0.0,0.0,0.0,0.0,0.0,0.0,0.0,0.0,0.0,0.0,0.0,0.0,0.0,0.0,0.0,0.0,0.0,0.0,0.0,0.0,0.0,0.0,0.0,0.0,0.0,0.0,0.0,0.0,0.0,0.0,0.0,0.0,0.0,0.0,0.0,0.0,0.0,0.0,0.0,0.0,0.0,0.0,0.0,0.0,0.0,0.0,0.0,0.0,0.0,0.0,0.0,0.0,0.0,0.0,0.0,0.0,0.0,0.0,0.0,0.0,0.0,0.0,0.0,0.0,0.0,0.0,0.0,0.0,0.0,0.0,0.0,0.0,0.0,0.0,0.0,0.0,0.0,0.0,0.0,0.0,0.0,0.0,0.0,0.0,0.0,0.0,0.0,0.0,-2.8352,-2.9953,-3.0283,-2.9237,-2.6308,-2.3759,0.0,0.0,0.0,0.0,0.0,0.0,0.0,0.0,0.0,0.0,0.0,0.0,0.0,0.0,0.0,0.0,0.0,0.0,0.0,0.0,0.0,0.0,0.0,0.0,0.0,0.0,0.0,0.0,0.0,0.0,0.0,0.0,0.0,0.0,0.0,0.0,0.0,0.0,0.0,0.0,0.0,0.0,0.0,0.0,0.0,0.0,0.0,0.0,0.0,0.0,0.0,0.0,0.0,0.0,0.0,0.0,0.0,0.0,0.0,0.0,0.0,0.0,0.0,0.0,0.0,0.0,0.0,0.0,0.0,0.0,0.0,0.0,0.0,0.0,0.0,0.0,0.0,0.0,0.0,0.0,0.0,0.0,0.0,0.0,0.0,0.0,0.0,0.0,0.0,0.0,0.0,0.0,0.0,0.0,0.0,0.0,0.0,0.0,0.0,0.0,0.0,0.0,0.0,0.0,0.0,0.0,0.0,0.0,-2.7525,-2.8995,-3.1083,-3.1538,-3.0233,-2.7705,-2.5131,0.0,0.0,0.0,0.0,0.0,0.0,0.0,0.0,0.0,0.0,0.0,0.0,0.0,0.0,0.0,0.0,0.0,0.0,0.0,0.0,0.0,0.0,0.0,0.0,0.0,0.0,0.0,0.0,0.0,0.0,0.0,0.0,0.0,0.0,0.0,0.0,0.0,0.0,0.0,0.0,0.0,0.0,0.0,0.0,0.0,0.0,0.0,0.0,0.0,0.0,0.0,0.0,0.0,0.0,0.0,0.0,0.0,0.0,0.0,0.0,0.0,0.0,0.0,0.0,0.0,0.0,0.0,0.0,0.0,0.0,0.0,0.0,0.0,0.0,0.0,0.0,0.0,0.0,0.0,0.0,0.0,0.0,0.0,0.0,0.0,0.0,0.0,0.0,0.0,0.0,0.0,0.0,0.0,0.0,0.0,0.0,0.0,0.0,0.0,0.0,0.0,0.0,0.0,0.0,0.0,0.0,0.0,0.0,-2.7799,-2.9012,-3.1703,-3.2199,-3.0282,-2.9007,-2.6487,0.0,0.0,0.0,0.0,0.0,0.0,0.0,0.0,0.0,0.0,0.0,0.0,0.0,0.0,0.0,0.0,0.0,0.0,0.0,0.0,0.0,0.0,0.0,0.0,0.0,0.0,0.0,0.0,0.0,0.0,0.0,0.0,0.0,0.0,0.0,0.0,0.0,0.0,0.0,0.0,0.0,0.0,0.0,0.0,0.0,0.0,0.0,0.0,0.0,0.0,0.0,0.0,0.0,0.0,0.0,0.0,0.0,0.0,0.0,0.0,0.0,0.0,0.0,0.0,0.0,0.0,0.0,0.0,0.0,0.0,0.0,0.0,0.0,0.0,0.0,0.0,0.0,0.0,0.0,0.0,0.0,0.0,0.0,0.0,0.0,0.0,0.0,0.0,0.0,0.0,0.0,0.0,0.0,0.0,0.0,0.0,0.0,0.0,0.0,0.0,0.0,0.0,0.0,0.0,0.0,0.0,0.0,0.0,-2.8335,-2.903,-3.1377,-3.187,-3.0234,-2.8866,-2.6721,0.0,0.0,0.0,0.0,0.0,0.0,0.0,0.0,0.0,0.0,0.0,0.0,0.0,0.0,0.0,0.0,0.0,0.0,0.0,0.0,0.0,0.0,0.0,0.0,0.0,0.0,0.0,0.0,0.0,0.0,0.0,0.0,0.0,0.0,0.0,0.0,0.0,0.0,0.0,0.0,0.0,0.0,0.0,0.0,0.0,0.0,0.0,0.0,-1.8271,0.0,0.0,0.0,0.0,0.0,0.0,0.0,0.0,0.0,0.0,0.0,0.0,0.0,0.0,0.0,0.0,0.0,0.0,0.0,0.0,0.0,0.0,0.0,0.0,0.0,0.0,0.0,0.0,0.0,0.0,0.0,0.0,0.0,0.0,0.0,0.0,0.0,0.0,0.0,0.0,0.0,0.0,0.0,0.0,0.0,0.0,0.0,0.0,0.0,0.0,0.0,0.0,0.0,0.0,0.0,0.0,0.0,0.0,0.0,-2.8341,-2.8999,-3.0746,-3.1008,-2.9657,-2.8092,-2.6061,0.0,0.0,0.0,0.0,0.0,0.0,0.0,0.0,0.0,0.0,0.0,0.0,0.0,0.0,0.0,0.0,0.0,0.0,0.0,0.0,0.0,0.0,0.0,0.0,0.0,0.0,0.0,0.0,0.0,0.0,0.0,0.0,0.0,0.0,0.0,0.0,0.0,0.0,0.0,0.0,0.0,0.0,0.0,0.0,0.0,0.0,0.0,0.0,0.0,0.0,0.0,0.0,0.0,0.0,0.0,0.0,0.0,0.0,0.0,0.0,0.0,0.0,0.0,0.0,0.0,0.0,0.0,0.0,0.0,0.0,0.0,0.0,0.0,0.0,0.0,0.0,0.0,0.0,0.0,0.0,0.0,0.0,0.0,0.0,0.0,0.0,0.0,0.0,0.0,0.0,0.0,0.0,0.0,0.0,0.0,0.0,0.0,0.0,0.0,0.0,0.0,0.0,0.0,0.0,0.0,0.0,0.0,-2.5827,-2.7816,-2.881,-2.9883,-2.99,-2.8825,-2.7117,-2.5086,-2.2799,0.0,0.0,0.0,0.0,0.0,0.0,0.0,0.0,0.0,0.0,0.0,0.0,0.0,0.0,0.0,0.0,0.0,0.0,0.0,0.0,0.0,0.0,0.0,0.0,0.0,0.0,0.0,0.0,0.0,0.0,0.0,0.0,0.0,0.0,0.0,0.0,0.0,0.0,-1.2547,-1.4425,0.0,0.0,0.0,0.0,0.0,0.0,0.0,0.0,-1.8966,0.0,0.0,0.0,0.0,0.0,0.0,0.0,0.0,0.0,0.0,0.0,0.0,0.0,0.0,0.0,0.0,0.0,0.0,0.0,0.0,0.0,0.0,0.0,0.0,0.0,0.0,0.0,0.0,0.0,0.0,0.0,0.0,0.0,0.0,0.0,0.0,0.0,0.0,0.0,0.0,0.0,0.0,0.0,0.0,0.0,0.0,0.0,0.0,0.0,0.0,0.0,0.0,0.0,0.0,0.0,0.0,-2.3884,-2.5165,-2.6484,-2.796,-2.8863,-2.8897,-2.7994,-2.6504,-2.4666,-2.2456,0.0,0.0,0.0,0.0,0.0,0.0,0.0,0.0,0.0,0.0,0.0,0.0,0.0,0.0,0.0,0.0,0.0,0.0,0.0,0.0,0.0,0.0,0.0,0.0,0.0,0.0,0.0,0.0,0.0,0.0,0.0,0.0,0.0,0.0,0.0,0.0,0.0,0.0,0.0,-1.5538,-1.687,0.0,0.0,0.0,0.0,0.0,0.0,0.0,0.0,-1.8581,0.0,0.0,0.0,0.0,0.0,0.0,0.0,0.0,0.0,0.0,0.0,0.0,0.0,0.0,0.0,0.0,0.0,0.0,0.0,0.0,0.0,0.0,0.0,0.0,0.0,0.0,0.0,0.0,0.0,0.0,0.0,0.0,0.0,0.0,0.0,0.0,0.0,0.0,0.0,0.0,0.0,0.0,0.0,0.0,0.0,0.0,0.0,0.0,0.0,0.0,0.0,0.0,0.0,0.0,0.0,-2.3425,-2.503,-2.6437,-2.7757,-2.818,-2.8213,-2.7755,-2.5642,-2.3765,0.0,0.0,0.0,0.0,0.0,0.0,0.0,0.0,0.0,0.0,0.0,0.0,0.0,0.0,0.0,0.0,0.0,0.0,0.0,0.0,0.0,0.0,0.0,0.0,0.0,0.0,0.0,0.0,0.0,0.0,0.0,0.0,0.0,0.0,0.0,0.0,0.0,0.0,0.0,0.0,-1.5972,-1.69,-1.747,0.0,0.0,0.0,0.0,0.0,0.0,-1.9312,-1.853,0.0,0.0,0.0,0.0,0.0,0.0,0.0,0.0,0.0,0.0,0.0,0.0,0.0,0.0,0.0,0.0,0.0,0.0,0.0,0.0,0.0,0.0,0.0,0.0,0.0,0.0,0.0,0.0,0.0,0.0,0.0,0.0,0.0,0.0,0.0,0.0,0.0,0.0,0.0,0.0,0.0,0.0,0.0,0.0,0.0,0.0,0.0,0.0,0.0,0.0,0.0,0.0,0.0,0.0,0.0,-2.287,-2.4733,-2.6282,-2.7503,-2.7553,-2.7588,-2.7554,-2.5017,-2.3139,0.0,0.0,0.0,0.0,0.0,0.0,0.0,0.0,0.0,0.0,0.0,0.0,0.0,0.0,0.0,0.0,0.0,0.0,0.0,0.0,0.0,0.0,0.0,0.0,0.0,0.0,0.0,0.0,0.0,0.0,0.0,0.0,0.0,0.0,0.0,0.0,0.0,0.0,0.0,0.0,0.0,-1.6998,-1.7475,-1.8441,0.0,0.0,0.0,0.0,-1.9752,-1.9448,0.0,0.0,0.0,0.0,0.0,0.0,0.0,0.0,0.0,0.0,0.0,0.0,0.0,0.0,0.0,0.0,0.0,0.0,0.0,0.0,0.0,0.0,0.0,0.0,0.0,0.0,0.0,0.0,0.0,0.0,0.0,0.0,0.0,0.0,0.0,0.0,0.0,0.0,0.0,0.0,0.0,0.0,0.0,0.0,0.0,0.0,0.0,0.0,0.0,0.0,0.0,0.0,0.0,0.0,0.0,0.0,-2.2643,-2.3591,-2.4966,-2.6742,-2.6826,-2.6826,-2.681,-2.522,-2.3422,0.0,0.0,0.0,0.0,0.0,0.0,0.0,0.0,0.0,0.0,0.0,0.0,0.0,0.0,0.0,0.0,0.0,0.0,0.0,0.0,0.0,0.0,0.0,0.0,0.0,0.0,0.0,0.0,0.0,0.0,0.0,0.0,0.0,0.0,0.0,0.0,0.0,0.0,0.0,0.0,0.0,-1.7772,-1.7413,-1.8171,-1.9091,0.0,0.0,-2.0017,-1.9712,-1.9951,0.0,0.0,0.0,0.0,0.0,0.0,0.0,0.0,0.0,0.0,0.0,0.0,0.0,0.0,0.0,0.0,0.0,0.0,0.0,0.0,0.0,0.0,0.0,0.0,0.0,0.0,0.0,0.0,0.0,0.0,0.0,0.0,0.0,0.0,0.0,0.0,0.0,0.0,0.0,0.0,0.0,0.0,0.0,0.0,0.0,0.0,0.0,0.0,0.0,0.0,0.0,0.0,0.0,0.0,0.0,-1.929,-2.1961,-2.3459,-2.4815,-2.6031,-2.6471,-2.6488,-2.6082,-2.4644,-2.2818,0.0,0.0,0.0,0.0,0.0,0.0,0.0,0.0,0.0,0.0,0.0,0.0,0.0,0.0,0.0,0.0,0.0,0.0,0.0,0.0,0.0,0.0,0.0,0.0,0.0,0.0,0.0,0.0,0.0,0.0,0.0,0.0,0.0,0.0,0.0,0.0,0.0,0.0,0.0,0.0,0.0,0.0,-1.7688,-1.8364,0.0,0.0,0.0,-1.9571,-1.9712,0.0,0.0,0.0,0.0,0.0,0.0,0.0,0.0,0.0,0.0,0.0,0.0,0.0,0.0,0.0,0.0,0.0,0.0,0.0,0.0,0.0,0.0,0.0,0.0,0.0,0.0,0.0,0.0,0.0,0.0,0.0,0.0,0.0,0.0,0.0,0.0,0.0,0.0,0.0,0.0,0.0,0.0,0.0,0.0,0.0,0.0,0.0,0.0,0.0,0.0,0.0,0.0,0.0,0.0,0.0,0.0,0.0,-2.1412,-2.3442,-2.4763,-2.5321,-2.6048,-2.6065,-2.5338,-2.4069,0.0,0.0,0.0,0.0,0.0,0.0,0.0,0.0,0.0,0.0,0.0,0.0,0.0,0.0,0.0,0.0,0.0,0.0,0.0,0.0,0.0,0.0,0.0,0.0,0.0,0.0,0.0,-0.7958,0.0,0.0,0.0,0.0,0.0,0.0,0.0,0.0,0.0,0.0,0.0,0.0,0.0,0.0,-1.6995,-1.7784,-1.8607,-1.9265,0.0,0.0,-1.9374,-1.9377,-1.9252,-1.8542,0.0,0.0,0.0,0.0,0.0,0.0,0.0,0.0,0.0,0.0,0.0,0.0,0.0,0.0,0.0,0.0,0.0,0.0,0.0,0.0,0.0,0.0,0.0,0.0,0.0,0.0,0.0,0.0,0.0,0.0,0.0,0.0,0.0,0.0,0.0,0.0,0.0,0.0,0.0,0.0,0.0,0.0,0.0,0.0,0.0,0.0,0.0,0.0,0.0,0.0,0.0,0.0,0.0,0.0,0.0,-2.1213,-2.3388,-2.4523,-2.4577,-2.5304,-2.5338,-2.4591,-2.3829,-2.2006,0.0,0.0,0.0,0.0,0.0,0.0,0.0,0.0,0.0,0.0,0.0,0.0,0.0,0.0,0.0,0.0,0.0,0.0,0.0,0.0,0.0,0.0,0.0,0.0,0.0,0.0,0.0,0.0,0.0,0.0,0.0,0.0,0.0,0.0,0.0,0.0,0.0,0.0,0.0,0.0,0.0,-1.7301,-1.734,-1.8721,-1.9745,0.0,0.0,-2.012,-1.8565,-1.9205,-1.8989,-1.6198,0.0,0.0,0.0,0.0,0.0,0.0,0.0,0.0,0.0,0.0,0.0,0.0,0.0,0.0,0.0,0.0,0.0,0.0,0.0,0.0,0.0,0.0,0.0,0.0,0.0,0.0,0.0,0.0,0.0,0.0,0.0,0.0,0.0,0.0,0.0,0.0,0.0,0.0,0.0,0.0,0.0,0.0,0.0,0.0,0.0,0.0,0.0,0.0,0.0,0.0,0.0,0.0,0.0,-1.8308,-2.045,-2.2682,-2.3799,-2.3833,-2.4526,-2.4577,-2.3833,-2.3545,-2.1972,0.0,0.0,0.0,0.0,0.0,0.0,0.0,0.0,0.0,0.0,0.0,0.0,0.0,0.0,0.0,0.0,0.0,0.0,0.0,0.0,0.0,0.0,0.0,0.0,0.0,0.0,0.0,0.0,-1.0069,-1.0248,-1.0702,0.0,0.0,0.0,0.0,0.0,0.0,0.0,0.0,0.0,0.0,-1.7444,-1.7813,-1.8684,0.0,0.0,-1.9745,-1.9317,-1.8296,-1.8248,-1.7587,-1.544,-1.4653,0.0,0.0,0.0,0.0,0.0,0.0,0.0,0.0,0.0,0.0,0.0,0.0,0.0,0.0,0.0,0.0,0.0,0.0,0.0,0.0,0.0,0.0,0.0,0.0,0.0,0.0,0.0,0.0,0.0,0.0,0.0,0.0,0.0,0.0,0.0,0.0,0.0,0.0,0.0,0.0,0.0,0.0,0.0,0.0,0.0,0.0,0.0,0.0,0.0,0.0,0.0,0.0,-1.8014,-1.9985,-2.226,-2.3291,-2.3088,-2.3782,-2.3816,-2.3105,-2.3071,-2.187,0.0,0.0,0.0,0.0,0.0,0.0,0.0,0.0,0.0,0.0,0.0,0.0,0.0,0.0,0.0,0.0,0.0,0.0,0.0,0.0,0.0,0.0,0.0,0.0,0.0,0.0,0.0,0.0,-1.0738,-1.0705,-1.0728,0.0,0.0,0.0,0.0,0.0,0.0,0.0,0.0,0.0,0.0,-1.7557,-1.8143,-1.8799,-1.9361,-1.9749,-1.9368,-1.871,-1.7965,-1.7518,-1.6668,-1.4958,0.0,0.0,0.0,0.0,0.0,0.0,0.0,0.0,0.0,0.0,0.0,0.0,0.0,0.0,0.0,0.0,0.0,0.0,0.0,0.0,0.0,0.0,0.0,0.0,0.0,0.0,0.0,0.0,0.0,0.0,-1.4506,0.0,0.0,0.0,0.0,0.0,0.0,0.0,0.0,0.0,0.0,0.0,0.0,0.0,0.0,0.0,0.0,0.0,0.0,0.0,0.0,0.0,0.0,-1.8481,-1.9985,-2.2209,-2.3038,-2.2395,-2.3054,-2.3071,-2.2395,-2.2344,-2.1573,-1.9985,0.0,0.0,0.0,0.0,0.0,0.0,0.0,0.0,0.0,0.0,0.0,0.0,0.0,0.0,0.0,0.0,0.0,0.0,0.0,0.0,0.0,0.0,0.0,0.0,0.0,0.0,-1.0663,-1.0622,-1.0227,0.0,0.0,0.0,0.0,0.0,0.0,0.0,0.0,0.0,0.0,-1.6351,-1.7564,-1.8103,-1.9083,-1.9672,-1.9761,-1.9309,-1.8598,-1.7459,-1.7181,-1.6561,0.0,0.0,0.0,0.0,0.0,0.0,0.0,0.0,0.0,0.0,0.0,0.0,0.0,0.0,0.0,0.0,0.0,0.0,0.0,0.0,0.0,0.0,0.0,0.0,0.0,0.0,0.0,-1.7798,-1.7234,0.0,0.0,0.0,0.0,0.0,0.0,0.0,0.0,0.0,0.0,0.0,-2.1822,-2.2868,0.0,0.0,0.0,0.0,0.0,0.0,0.0,0.0,0.0,0.0,0.0,0.0,-1.8048,-1.9968,-2.1769,-2.2547,-2.2327,-2.2547,-2.2564,-2.2327,-2.2327,-2.1363,-1.9333,0.0,0.0,0.0,0.0,0.0,0.0,0.0,0.0,0.0,0.0,0.0,0.0,0.0,0.0,0.0,0.0,0.0,0.0,0.0,0.0,0.0,0.0,0.0,0.0,0.0,-0.9644,0.0,0.0,0.0,0.0,0.0,0.0,0.0,0.0,0.0,0.0,0.0,-1.4601,-1.5329,-1.6426,-1.7267,-1.7448,-1.7946,-1.834,0.0,0.0,0.0,0.0,0.0,0.0,0.0,0.0,0.0,0.0,0.0,0.0,0.0,0.0,-1.2098,-1.0587,-0.982,-0.9515,-0.9962,0.0,0.0,0.0,0.0,0.0,0.0,0.0,0.0,0.0,0.0,0.0,0.0,0.0,0.0,-1.9601,0.0,-1.8522,0.0,0.0,0.0,0.0,0.0,0.0,0.0,0.0,-2.3088,-2.3988,-2.4281,-2.5309,-2.5126,0.0,-2.329,-2.1657,0.0,0.0,0.0,0.0,0.0,0.0,0.0,0.0,-1.8437,-2.0373,-2.164,-2.2327,-2.2327,-2.2327,-2.2327,-2.2327,-2.2327,-2.1481,-1.9756,-1.8141,-1.6639,0.0,0.0,0.0,0.0,0.0,0.0,0.0,0.0,0.0,0.0,0.0,0.0,0.0,0.0,0.0,0.0,0.0,0.0,0.0,0.0,0.0,0.0,0.0,-0.993,0.0,0.0,0.0,0.0,0.0,0.0,0.0,0.0,0.0,-1.4037,-1.4877,-1.5624,-1.6133,-1.6859,-1.7281,-1.702,0.0,0.0,0.0,0.0,0.0,0.0,0.0,-1.5079,-1.4257,-1.4033,-1.3984,-1.4068,-1.4087,-1.399,-1.3727,0.0,0.0,-1.1141,-1.0352,-1.0037,-1.0195,-0.9575,-0.9113,-0.9526,-0.9412,-0.9316,0.0,0.0,0.0,0.0,0.0,0.0,0.0,0.0,-2.1203,-2.1213,0.0,-2.0939,0.0,0.0,0.0,0.0,0.0,-2.0758,0.0,0.0,-2.474,-2.5897,-2.6576,-2.6667,-2.6245,-2.5476,-2.5383,-2.4538,-2.2868,-1.9691,0.0,0.0,0.0,0.0,0.0,0.0,-1.9696,-2.1153,-2.1921,-2.2327,-2.2327,-2.2327,-2.2327,-2.2327,-2.2327,-2.1921,-2.1153,-1.9672,-1.8234,-1.6733,-1.4398,0.0,0.0,0.0,0.0,0.0,0.0,0.0,0.0,0.0,0.0,0.0,0.0,0.0,0.0,0.0,0.0,0.0,0.0,0.0,0.0,-0.9643,0.0,0.0,0.0,0.0,0.0,0.0,0.0,0.0,0.0,0.0,-1.5652,-1.6166,-1.6658,-1.7051,0.0,0.0,0.0,0.0,-1.7523,-1.7523,-1.7068,-1.6556,-1.5965,-1.5748,-1.5277,-1.4312,0.0,0.0,-1.4194,-1.418,-1.4136,-1.4107,-1.3828,-1.3167,-1.2054,-1.1423,-1.105,-1.0797,-0.9914,-0.937,-0.9621,-0.9245,-0.9013,-2.7358,0.0,0.0,0.0,0.0,-2.4348,-2.4821,-2.5762,-2.5471,-2.4722,-2.368,-2.2845,0.0,0.0,0.0,0.0,0.0,0.0,-2.4245,-2.5603,-2.6649,-2.7218,-2.7475,-2.8044,-2.7603,-2.6282,-2.6264,-2.5438,-2.3859,-2.2868,-2.097,-1.8284,0.0,0.0,0.0,0.0,-2.0196,-2.1177,-2.1938,-2.2327,-2.2327,-2.2327,-2.2327,-2.2327,-2.2327,-2.1701,-2.0399,-1.99,-1.8775,-1.6783,-1.4886,0.0,0.0,0.0,0.0,0.0,0.0,0.0,0.0,0.0,0.0,0.0,0.0,0.0,0.0,0.0,0.0,0.0,0.0,0.0,-0.8586,-0.8709,-0.9323,0.0,0.0,0.0,0.0,0.0,0.0,0.0,0.0,0.0,-1.665,-1.6498,-1.6525,0.0,0.0,-1.6267,-1.6063,-1.6011,-1.6026,-1.6016,-1.5914,0.0,0.0,-1.5243,-1.5068,-1.501,-1.5156,-1.5186,-1.5059,-1.5049,-1.4941,-1.4658,-1.4248,-1.3647,-1.285,-1.1727,-1.0939,-1.0744,-0.9769,-0.8951,-0.9033,-0.8903,-0.8857,-2.9608,-2.7494,-2.637,-2.6065,-2.6341,-2.6324,-2.6707,-2.7308,-2.7308,-2.683,-2.6059,-2.5571,-2.4551,-2.3138,-2.224,0.0,0.0,0.0,-2.5841,-2.7108,-2.7585,-2.797,-2.8264,-2.8466,-2.8026,-2.7071,-2.641,-2.5621,-2.4686,-2.4355,-2.3015,-2.0714,0.0,0.0,-1.9577,-2.0271,-2.0952,-2.1644,-2.2073,-2.2327,-2.2327,-2.2327,-2.2327,-2.231,-2.2023,-2.1414,-2.0517,-1.9891,-1.8961,-1.7608,-1.6038,-1.4517,0.0,0.0,0.0,0.0,0.0,0.0,0.0,0.0,0.0,0.0,0.0,-0.9561,-0.8753,0.0,0.0,0.0,-0.8446,-0.8738,-0.9573,-0.9827,0.0,0.0,0.0,0.0,0.0,0.0,0.0,-1.5442,-1.604,-1.6694,-1.7312,-1.66,-1.6261,-1.6785,-1.6364,-1.5908,-1.5639,0.0,-1.542,-1.542,-1.542,-1.542,-1.541,-1.5195,-1.5127,-1.5371,-1.542,-1.542,-1.542,-1.542,-1.5322,-1.5059,-1.4678,-1.4169,-1.359,-1.2382,-1.1242,-1.0753,-0.9694,-0.8864,-0.8804,-0.8804,-0.8857,-3.1226,-3.0009,-2.8548,-2.7785,-2.7528,-2.7528,-2.7528,-2.7544,-2.7578,-2.7922,-2.8534,-2.8515,-2.808,-2.7217,-2.6287,0.0,-2.5643,-2.6397,-2.7129,-2.7897,-2.7879,-2.8282,-2.8938,-2.8191,-2.7769,-2.7658,-2.6156,-2.5384,-2.5256,-2.4557,-2.3823,-2.3107,-2.2844,-2.2364,-2.1677,-2.1638,-2.185,-2.2276,-2.231,-2.2327,-2.2327,-2.2327,-2.2276,-2.2209,-2.1549,-2.1153,-2.1,-1.9655,-1.8843,-1.8674,-1.7393,-1.5933,-1.4442,0.0,0.0,0.0,0.0,0.0,0.0,0.0,0.0,0.0,0.0,0.0,0.0,0.0,0.0,0.0,-1.0246,0.0,-1.1156,-1.2092,0.0,0.0,0.0,-1.3584,-1.4223,-1.4727,-1.5417,-1.6373,0.0,0.0,-1.7608,-1.6556,-1.5911,-1.6373,-1.6436,-1.6151,-1.5526,-1.541,-1.542,-1.542,-1.542,-1.542,-1.542,-1.5391,-1.5381,-1.541,-1.542,-1.542,-1.542,-1.542,-1.542,-1.5391,-1.5068,-1.4665,-1.4215,-1.3242,-1.2166,-1.095,-0.9738,-0.8857,-0.8804,-0.8857,-0.9113,-3.2692,-3.1271,-3.0899,-3.0202,-2.9364,-2.9364,-2.9489,-2.9647,-2.9666,-2.9314,-2.8746,-2.8746,-2.8217,-2.727,-2.7035,-2.7114,-2.7454,-2.7659,-2.8093,-2.8705,-2.8723,-2.8833,-2.8962,-2.8172,-2.7475,-2.6851,-2.5899,-2.509,-2.4502,-2.4281,-2.4098,-2.3914,-2.3839,-2.3157,-2.1972,-2.2057,-2.2173,-2.2327,-2.2327,-2.2327,-2.2327,-2.2327,-2.204,-2.1465,-2.1305,-2.0662,-1.9486,-1.9096,-1.8369,-1.7274,-1.636,-1.5095,-1.3418,-1.181,0.0,0.0,0.0,0.0,0.0,0.0,0.0,0.0,0.0,-1.1948,-0.9757,0.0,-1.1499,0.0,-1.1278,-1.1501,-1.2014,-1.2317,0.0,0.0,-1.4475,-1.4864,-1.5819,-1.6045,-1.617,-1.6341,-1.667,-1.6723,-1.6256,-1.6271,-1.6131,-1.5728,-1.569,-1.5575,-1.541,-1.542,-1.542,-1.542,-1.542,-1.542,-1.542,-1.542,-1.542,-1.542,-1.542,-1.542,-1.542,-1.542,-1.542,-1.5391,-1.5068,-1.4772,-1.4627,-1.3739,-1.2804,-1.21,-1.0724,-0.9413,-0.891,-0.9211,-0.9614,-3.3218,-3.1718,-3.1698,-3.1111,-3.0163,-3.0182,-3.0254,-3.0398,-3.0398,-3.0054,-2.95,-2.95,-2.914,-2.851,-2.851,-2.8565,-2.8668,-2.8686,-2.8804,-2.8998,-2.8975,-2.8975,-2.8938,-2.7824,-2.7218,-2.7071,-2.5585,-2.4814,-2.4704,-2.4355,-2.419,-2.419,-2.4036,-2.3578,-2.2803,-2.274,-2.2588,-2.2327,-2.2327,-2.2327,-2.2327,-2.2327,-2.1938,-2.1211,-2.0856,-2.0111,-1.8927,-1.8589,-1.7879,-1.6749,-1.6185,-1.5385,-1.4226,-1.2881,-1.1851,0.0,0.0,0.0,0.0,0.0,0.0,0.0,0.0,0.0,0.0,0.0,-1.2664,-1.2089,-1.2654,-1.3204,-1.3483,-1.3935,-1.4613,-1.5517,-1.5618,-1.5844,-1.6416,-1.6534,-1.6547,-1.6658,-1.665,-1.6485,-1.6121,-1.6043,-1.5864,-1.5468,-1.542,-1.542,-1.542,-1.542,-1.542,-1.542,-1.542,-1.542,-1.542,-1.542,-1.542,-1.542,-1.542,-1.542,-1.542,-1.542,-1.542,-1.54,-1.5215,-1.498,-1.4802,-1.433,-1.3669,-1.2855,-1.1861,-1.0769,-0.9903,-0.9769,-0.9917,-3.3449,-3.2045,-3.2006,-3.1468,-3.0552,-3.0552,-3.0494,-3.0398,-3.0398,-3.0398,-3.0398,-3.0398,-3.0267,-3.0042,-3.0042,-2.9848,-2.9493,-2.9454,-2.9291,-2.9062,-2.9062,-2.9044,-2.8989,-2.739,-2.7025,-2.7577,-2.5311,-2.4538,-2.5199,-2.452,-2.419,-2.419,-2.3896,-2.3753,-2.3692,-2.3414,-2.2982,-2.2415,-2.2432,-2.2388,-2.2349,-2.2332,-2.1942,-2.1059,-2.0356,-1.9621,-1.8775,-1.8149,-1.7456,-1.6749,-1.6469,-1.6108,-1.557,-1.4641,-1.3972,0.0,-1.2955,0.0,0.0,0.0,0.0,0.0,0.0,0.0,0.0,-1.3737,-1.366,-1.2796,-1.4161,-1.5117,-1.5078,-1.5944,-1.6534,-1.6522,-1.6534,-1.6534,-1.6534,-1.6423,-1.6532,-1.6847,-1.6271,-1.6016,-1.6175,-1.5766,-1.542,-1.542,-1.542,-1.542,-1.542,-1.542,-1.542,-1.542,-1.542,-1.542,-1.542,-1.542,-1.542,-1.542,-1.542,-1.542,-1.542,-1.542,-1.542,-1.541,-1.5332,-1.5166,-1.4805,-1.4756,-1.4378,-1.3258,-1.268,-1.214,-1.1114,-1.0498,-1.0466,-3.4661,-3.3737,-3.3737,-3.2852,-3.1468,-3.1448,-3.1044,-3.0398,-3.0398,-3.0398,-3.0398,-3.0398,-3.0367,-3.0323,-3.0343,-3.015,-2.9877,-2.9695,-2.9514,-2.933,-2.933,-2.933,-2.9219,-2.7622,-2.6916,-2.6953,-2.5133,-2.4263,-2.441,-2.4281,-2.419,-2.419,-2.4133,-2.3976,-2.3714,0.0,0.0,0.0,-2.3038,-2.2908,-2.2652,-2.2625,-2.1859,-2.0297,-2.0086,0.0,-1.8099,-1.7896,-1.7456,-1.6749,-1.6657,0.0,0.0,0.0,0.0,0.0,0.0,0.0,0.0,0.0,0.0,0.0,-1.4827,-1.4757,-1.3755,-1.4958,-1.5423,-1.4563,-1.5505,-1.6208,-1.622,-1.6396,-1.6534,-1.6534,-1.6534,-1.6534,-1.6479,-1.6095,-1.5747,-1.5626,-1.543,-1.5216,-1.5139,-1.5253,-1.54,-1.5391,-1.541,-1.542,-1.542,-1.542,-1.542,-1.542,-1.542,-1.542,-1.542,-1.542,-1.542,-1.542,-1.542,-1.542,-1.542,-1.542,-1.541,-1.5391,-1.5137,-1.4778,-1.434,-1.4538,-1.4385,-1.3168,-1.2993,-1.2636,-1.1598,-1.143,-1.1516,-3.5007,0.0,-3.4199,-3.3237,0.0,-3.1698,-3.1218,-3.0398,-3.0398,-3.0398,-3.0398,-3.0398,-3.0398,-3.0398,-3.0398,-3.0254,-2.9999,-2.9893,-2.9748,-2.9551,-2.9533,-2.9533,-2.9495,-2.7718,-2.6879,-2.6823,-2.5041,-2.419,-2.419,-2.419,-2.419,-2.419,-2.419,-2.4113,-2.3937,-2.3937,-2.3692,-2.3189,-2.3189,-2.3117,-2.2972,-2.2947,-2.2258,-2.0864,0.0,0.0,0.0,0.0,0.0,0.0,0.0,0.0,0.0,0.0,0.0,-1.5011,-1.4702,-1.4304,-1.384,-1.4105,-1.4719,-1.5666,-1.6422,-1.642,-1.5432,-1.5992,-1.6231,-1.5787,-1.6208,-1.6534,-1.6534,-1.6534,-1.6534,-1.6534,-1.6534,-1.6534,-1.6479,-1.6238,-1.5846,-1.5373,-1.5208,-1.5047,-1.4513,-1.4639,-1.4863,-1.5059,-1.5107,-1.5186,-1.5371,-1.542,-1.542,-1.542,-1.542,-1.542,-1.542,-1.542,-1.542,-1.542,-1.542,-1.542,-1.542,-1.542,-1.5352,-1.5156,-1.4912,-1.4661,-1.4237,-1.4311,-1.4263,-1.3654,-1.3406,-1.3196,-1.2577,-1.2163,-1.1922,-3.493,-3.441,-3.4276,-3.3314,-3.191,-3.191,-3.1333,-3.0398,0.0,0.0,0.0,-3.0398,-3.0398,-3.0398,-3.0398,-3.0267,-3.0075,-3.0032,-2.9889,-2.9746,-2.9595,-2.9538,-2.9446,-2.7653,-2.6781,-2.6653,-2.506,-2.4228,-2.419,-2.419,-2.419,-2.419,-2.419,-2.419,-2.419,-2.419,-2.3917,-2.3414,-2.3369,-2.3346,-2.33,-2.33,-2.2788,-2.1725,-2.1635,-2.0849,-1.925,-1.9009,-1.8335,-1.7173,-1.6775,-1.6669,-1.6881,-1.6691,-1.6624,-1.6777,-1.6789,-1.6501,-1.5856,-1.5903,-1.6278,-1.6995,-1.7758,-1.7927,-1.7283,-1.6885,-1.665,-1.6642,-1.6565,-1.6534,-1.6534,-1.6534,-1.6534,-1.6534,-1.6534,-1.6534,-1.6479,-1.6392,-1.6001,-1.5366,-1.513,-1.4836,-1.4123,-1.4058,-1.4258,-1.459,-1.4766,-1.5054,-1.5418,-1.5526,-1.542,-1.542,-1.542,-1.542,-1.542,-1.542,-1.542,-1.542,-1.542,-1.542,-1.542,-1.542,-1.5244,-1.4883,-1.4746,-1.447,-1.4067,-1.3962,-1.3988,-1.3911,-1.3695,-1.3491,-1.3307,-1.2638,-1.2246,-3.4757,-3.5257,-3.4507,-3.3641,-3.2718,-3.2737,-3.1852,-3.0417,-3.0398,-3.0398,-3.0398,-3.0398,-3.0398,-3.0398,-3.0398,-3.0367,-3.0343,-3.0109,-2.9984,0.0,-2.9246,-2.8922,-2.8846,-2.7195,-2.6299,-2.6042,-2.4989,-2.4357,-2.4209,-2.419,-2.419,-2.419,-2.419,-2.419,-2.419,-2.419,-2.4151,-2.4036,-2.4074,-2.3935,-2.3631,-2.3628,-2.3123,-2.2086,-2.1773,-2.1188,-2.031,-1.9399,-1.8809,-1.8589,-1.7957,-1.7597,-1.7636,-1.758,-1.7356,-1.685,-1.6789,-1.6501,-1.5856,-1.6293,-1.71,-1.8313,-1.9051,-1.8964,-1.7906,-1.7406,-1.7192,-1.716,-1.6752,-1.6534,-1.6534,-1.6534,-1.6534,-1.6534,-1.6534,-1.6534,-1.6479,-1.6095,-1.5546,-1.4925,-1.4644,-1.4291,-1.3738,-1.3887,-1.4029,-1.4248,-1.4566,-1.5127,-1.5889,-1.5816,-1.5468,-1.542,-1.542,-1.542,-1.5497,-1.542,-1.541,-1.542,-1.5381,-1.5361,-1.5361,-1.5322,-1.5146,-1.4824,-1.4453,-1.4082,-1.367,-1.3609,-1.3462,-1.326,-1.3289,-1.3389,-1.3135,-1.2871,-1.2774,-3.4872,-3.4757,-3.4353,-3.3449,-3.2218,-3.1756,-3.1121,-3.0398,-3.0398,-3.0398,-3.0398,-3.0398,-3.0398,-3.0398,-3.0398,-3.0398,-3.0398,-3.0267,-3.0209,-3.0151,-2.936,-2.8957,-2.8791,-2.7128,-2.625,-2.6081,-2.5137,-2.4578,-2.4375,-2.4357,-2.4321,-2.4209,-2.419,-2.419,-2.419,-2.419,-2.419,-2.419,-2.419,-2.4132,-2.3976,-2.3976,-2.3572,-2.2739,-2.2541,-2.1969,-2.0891,-1.9983,-1.9316,-1.891,-1.82,-1.7789,-1.7789,-1.7789,-1.7502,-1.6841,-1.6789,-1.6647,-1.6308,-1.7236,-1.8026,-1.8672,-1.9316,-1.9483,-1.892,-1.8173,-1.7626,-1.7312,-1.6795,-1.6534,-1.6534,-1.6534,-1.6534,-1.6534,-1.6534,-1.6534,-1.6479,-1.6281,-1.5732,-1.4892,-1.4598,-1.4227,-1.3263,-1.333,-1.3555,-1.3769,-1.4437,-1.5316,-1.6149,-1.5956,-1.5972,-1.6392,-1.6255,-1.6136,-1.6125,-1.5726,-1.5438,-1.5424,-1.5221,-1.5078,-1.5049,-1.4922,-1.4544,-1.4204,-1.3912,-1.3649,-1.3272,-1.3181,-1.3086,-1.2988,-1.2998,-1.3135,-1.3278,-1.3372,-1.3286,-3.4949,-3.4487,-3.4064,-3.307,-3.165,-3.0802,-3.0439,-3.0441,-3.0419,-3.0417,-3.0436,-3.0402,-3.0398,-3.0398,-3.0398,-3.0398,-3.0398,-3.0398,-3.0398,-3.0283,-2.9313,-2.8813,-2.8629,-2.6933,-2.6046,-2.5933,-2.5213,-2.4723,-2.4575,-2.4528,-2.441,-2.4209,-2.419,-2.419,-2.419,-2.419,-2.419,-2.419,-2.419,-2.419,-2.419,-2.419,-2.3955,-2.3477,-2.3277,-2.2726,-2.167,-2.0577,-1.9731,-1.9164,-1.8285,-1.7789,-1.7789,-1.7789,-1.7526,-1.6993,-1.7001,-1.7086,-1.7209,-1.8085,-1.8777,-1.8927,-1.939,-1.9705,-1.9617,-1.8688,-1.7933,-1.7504,-1.7034,-1.668,-1.6522,-1.6534,-1.6534,-1.6534,-1.6534,-1.6534,-1.6534,-1.6534,-1.6107,-1.5119,-1.4937,-1.4479,-1.361,-1.3286,-1.3537,-1.4063,-1.4807,-1.5567,-1.6121,-1.6366,-1.6882,-1.724,-1.6994,-1.6447,-1.6569,-1.5932,-1.5405,-1.531,-1.4903,-1.4714,-1.459,-1.4346,-1.398,-1.3665,-1.3542,-1.3389,-1.3008,-1.291,-1.29,-1.2939,-1.3046,-1.3354,-1.3884,-1.4014,-1.3873,-3.4718,-3.5103,-3.3692,-3.2571,-3.17,-3.0848,-3.0513,-3.0581,-3.0505,-3.0481,-3.0491,-3.0428,-3.039,-3.0398,-3.0398,-3.0398,-3.0398,-3.0398,-3.0379,-3.0186,-2.8736,-2.8005,-2.7871,-2.6235,-2.5308,-2.5175,-2.5037,-2.4898,-2.4756,-2.4575,-2.4374,-2.4228,-2.419,-2.419,-2.419,-2.419,-2.419,-2.419,-2.419,-2.419,-2.419,-2.419,-2.417,-2.4094,-2.3522,-2.3147,-2.2887,-2.1068,-1.9968,-1.9799,-1.8549,-1.7805,-1.7805,-1.7789,-1.7635,-1.7338,-1.7555,-1.7934,-1.8443,-1.8642,-1.8972,-1.9525,-1.9666,-1.9705,-1.9654,-1.8727,-1.8092,-1.7933,-1.7504,-1.6951,-1.6552,-1.6534,-1.6534,-1.6534,-1.6534,-1.6534,-1.6534,-1.6534,-1.6238,-1.5599,-1.5454,-1.5231,-1.456,-1.4387,-1.4609,-1.4945,-1.5547,-1.6183,-1.6714,-1.7255,-1.7591,-1.7715,-1.6965,-1.6251,-1.6155,-1.5574,-1.5201,-1.5093,-1.4567,-1.4238,-1.416,-1.4111,-1.3941,-1.3464,-1.3426,-1.3291,-1.3037,-1.2891,-1.2929,-1.3132,-1.3447,-1.392,-1.4422,-1.4606,-1.456,-3.501,-3.4817,-3.3595,-3.2294,-3.113,-3.071,-3.0575,-3.06,-3.0587,-3.0574,-3.0559,-3.0472,-3.0449,-3.041,-3.0398,-3.0398,-3.0398,-3.0398,-3.0121,-2.9583,-2.8409,-2.7621,-2.7024,-2.5909,-2.5234,-2.5173,-2.5192,-2.5096,-2.4904,-2.4636,-2.441,-2.4228,-2.419,-2.419,-2.419,-2.419,-2.419,-2.419,-2.419,-2.419,-2.419,-2.419,-2.4094,-2.3876,-2.3455,-2.3093,-2.281,-2.1473,-2.05,-1.9985,-1.8988,-1.8454,-1.8454,-1.8048,-1.8044,-1.8524,-1.8703,-1.8718,-1.8706,-1.9061,-1.9405,-1.9675,-1.9705,-1.9705,-1.969,-1.9295,-1.8945,-1.8496,-1.7504,-1.6723,-1.6565,-1.6534,-1.6534,-1.6534,-1.6534,-1.6534,-1.6534,-1.6534,-1.6281,-1.572,-1.5576,-1.5365,-1.488,-1.4709,-1.4925,-1.5372,-1.5773,-1.62,-1.6654,-1.7008,-1.7155,-1.711,-1.6621,-1.6574,-1.6674,-1.5826,-1.5205,-1.4852,-1.4304,-1.376,-1.374,-1.3516,-1.3311,-1.3164,-1.3174,-1.3125,-1.293,-1.292,-1.2949,-1.3358,-1.4286,-1.496,-1.5197,-1.5231,-1.5231,-3.5224,-3.4387,-3.331,-3.1999,-3.0672,-3.0633,-3.0643,-3.0676,-3.0643,-3.0633,-3.0628,-3.0547,-3.0498,-3.0442,-3.0406,-3.0398,-3.0398,-3.0398,-2.9929,-2.9083,-2.8255,-2.7448,-2.6563,-2.5717,-2.5313,-2.5313,-2.5303,-2.5182,-2.4937,-2.4727,-2.4462,-2.4247,-2.419,-2.419,-2.419,-2.419,-2.419,-2.419,-2.419,-2.419,-2.419,-2.419,-2.4094,-2.3834,-2.3414,-2.3093,-2.283,-2.1798,-2.0923,-2.0365,-1.9621,-1.9198,-1.9198,-1.8707,-1.8816,-1.9629,-1.9633,-1.9431,-1.9133,-1.9476,-1.9705,-1.9705,-1.9705,-1.9705,-1.969,-1.9566,-1.9244,-1.865,-1.7463,-1.6765,-1.6723,-1.6595,-1.6522,-1.6534,-1.6534,-1.6534,-1.6534,-1.6534,-1.6337,-1.5908,-1.5908,-1.5688,-1.5287,-1.5242,-1.5445,-1.58,-1.5888,-1.5964,-1.638,-1.6516,-1.6572,-1.6534,-1.6504,-1.6685,-1.7086,-1.5969,-1.5115,-1.4683,-1.407,-1.333,-1.334,-1.3037,-1.29,-1.3008,-1.292,-1.3066,-1.3262,-1.3242,-1.345,-1.4207,-1.497,-1.5644,-1.582,-1.582,-1.5644,-3.5236,-3.4302,-3.2681,-3.1559,-3.0693,-3.0713,-3.0769,-3.0857,-3.0745,-3.0693,-3.0687,-3.0633,-3.0594,-3.0575,-3.0452,-3.039,-3.041,-3.039,-2.989,-2.9006,-2.8255,-2.7428,-2.6563,-2.5736,-2.5313,-2.5313,-2.5303,-2.5118,-2.4828,-2.4785,-2.4575,-2.4228,-2.4247,-2.4209,-2.4228,-2.4228,-2.4209,-2.4228,-2.4209,-2.419,-2.419,-2.419,-2.419,-2.4094,-2.3544,-2.3189,-2.3023,-2.1927,-2.1187,-2.1126,-2.0382,-1.9951,-1.9951,-1.9917,-2.0083,-2.0315,-2.0086,-1.9988,-2.0091,-1.9879,-1.9705,-1.9705,-1.9705,-1.9705,-1.969,-1.9317,-1.8907,-1.821,-1.7747,-1.7312,-1.7271,-1.6795,-1.6522,-1.6534,-1.6534,-1.6534,-1.6534,-1.6534,-1.6534,-1.6436,-1.638,-1.6293,-1.6337,-1.6436,-1.6293,-1.6392,-1.6423,-1.6423,-1.6479,-1.6534,-1.6534,-1.6534,-1.6534,-1.6504,-1.6467,-1.5761,-1.5013,-1.4617,-1.4068,-1.3057,-1.2969,-1.2891,-1.2929,-1.2978,-1.3113,-1.3357,-1.3634,-1.3983,-1.441,-1.4903,-1.5353,-1.5832,-1.5964,-1.6337,-1.5964,-3.5059,-3.3751,-3.3127,-3.2079,-3.0875,-3.0817,-3.0858,-3.0879,-3.0857,-3.0836,-3.0814,-3.071,-3.0648,-3.0619,-3.0507,-3.0472,-3.0462,-3.0417,-2.9679,-2.8429,-2.8025,-2.714,-2.5822,-2.5418,-2.5313,-2.5313,-2.5303,-2.5171,-2.4968,-2.4943,-2.4809,-2.4623,-2.4575,-2.4594,-2.4578,-2.4479,-2.4393,-2.4375,-2.4266,-2.419,-2.419,-2.419,-2.419,-2.417,-2.3774,-2.3414,-2.3189,-2.2528,-2.1884,-2.1237,-2.0889,-2.0754,-2.0822,-2.1228,-2.1028,-2.0256,-2.0414,-2.0413,-1.9969,-1.9782,-1.9705,-1.9705,-1.9705,-1.9705,-1.969,-1.953,-1.9332,-1.9058,-1.8626,-1.8341,-1.8092,-1.7229,-1.6522,-1.6522,-1.6522,-1.6534,-1.6534,-1.6534,-1.6534,-1.6534,-1.6534,-1.6534,-1.6534,-1.6534,-1.6534,-1.6534,-1.6534,-1.6534,-1.6534,-1.6534,-1.6534,-1.6534,-1.6534,-1.6534,-1.6534,-1.5888,-1.522,-1.496,-1.4444,-1.3821,-1.3478,-1.3467,-1.3505,-1.3563,-1.3647,-1.3942,-1.4365,-1.4775,-1.5188,-1.537,-1.5824,-1.5964,-1.5908,-1.6095,-1.5466,-3.4726,-3.3476,-3.3105,-3.2207,-3.0976,-3.0918,-3.0918,-3.0918,-3.0918,-3.0918,-3.0879,-3.0793,-3.0735,-3.0685,-3.058,-3.0561,-3.0501,-3.0163,-2.9083,-2.7563,-2.7486,-2.6697,-2.5505,-2.5313,-2.5313,-2.5313,-2.5313,-2.5203,-2.5022,-2.4991,-2.4924,-2.4804,-2.4804,-2.4804,-2.4775,-2.4654,-2.4578,-2.4495,-2.4375,-2.4266,-2.4209,-2.419,-2.419,-2.417,-2.3976,-2.3649,-2.3212,-2.2873,-2.2366,-2.1698,-2.1549,-2.1549,-2.16,-2.204,-2.1831,-2.0874,-2.0861,-2.0764,-2.0174,-1.9854,-1.9705,-1.9705,-1.9705,-1.9705,-1.9705,-1.9705,-1.9639,-1.9406,-1.9169,-1.8855,-1.8496,-1.7666,-1.6951,-1.6795,-1.6595,-1.6522,-1.6534,-1.6534,-1.6534,-1.6534,-1.6534,-1.6534,-1.6534,-1.6534,-1.6534,-1.6534,-1.6534,-1.6534,-1.6534,-1.6534,-1.6534,-1.6534,-1.6534,-1.6534,-1.6534,-1.6107,-1.5644,-1.5332,-1.488,-1.4329,-1.4097,-1.4097,-1.4086,-1.419,-1.4395,-1.4691,-1.5085,-1.5522,-1.5744,-1.586,-1.6069,-1.6238,-1.6051,-1.5776,-1.5186,-3.4219,-3.334,-3.2559,-3.1738,-3.0957,-3.0918,-3.0918,-3.0918,-3.0918,-3.0918,-3.0898,-3.0898,-3.0858,-3.0857,-3.0735,-3.0668,-3.038,-2.956,-2.8345,-2.6968,-2.6736,-2.6217,-2.5322,-2.5313,-2.5313,-2.5313,-2.5313,-2.5203,-2.5034,-2.5022,-2.4968,-2.4861,-2.4847,-2.4874,-2.4818,-2.4818,-2.4716,-2.4575,-2.4493,-2.4393,-2.4228,-2.4209,-2.419,-2.419,-2.417,-2.3858,-2.3236,-2.2898,-2.2565,-2.2298,-2.2243,-2.2293,-2.2226,-2.2293,-2.2248,-2.1965,-2.1446,-2.1055,-2.0862,-2.0174,-1.9782,-1.9747,-1.9726,-1.9705,-1.9705,-1.969,-1.9515,-1.9169,-1.9006,-1.8765,-1.838,-1.8131,-1.7787,-1.7353,-1.6866,-1.6595,-1.6522,-1.6534,-1.6534,-1.6534,-1.6534,-1.6534,-1.6534,-1.6534,-1.6534,-1.6534,-1.6534,-1.6534,-1.6534,-1.6534,-1.6534,-1.6534,-1.6534,-1.6534,-1.6534,-1.6436,-1.6107,-1.5732,-1.5186,-1.4687,-1.4698,-1.4687,-1.4732,-1.4778,-1.5017,-1.5313,-1.5563,-1.5964,-1.6194,-1.6318,-1.6479,-1.6423,-1.6051,-1.5676,-1.5231,-3.418,-3.334,-3.2539,-3.1699,-3.0957,-3.0918,-3.0918,-3.0918,-3.0918,-3.0918,-3.0918,-3.0918,-3.0857,-3.0771,-3.0718,-3.0368,-2.9762,-2.8795,-2.8036,-2.7505,-2.6882,-2.614,-2.5428,-2.5313,-2.5313,-2.5313,-2.5313,-2.5274,-2.5214,-2.5184,-2.5182,-2.513,-2.5138,-2.5138,-2.5126,-2.5024,-2.4917,-2.4831,-2.4604,-2.4461,-2.4393,-2.4266,-2.419,-2.419,-2.419,-2.3958,-2.3566,-2.3212,-2.2807,-2.2338,-2.2327,-2.2327,-2.2327,-2.2327,-2.2135,-2.1823,-2.1598,-2.1275,-2.0959,-2.0449,-2.0089,-2.0054,-1.9874,-1.9726,-1.9705,-1.9705,-1.9639,-1.9442,-1.9442,-1.9369,-1.9207,-1.8855,-1.8288,-1.7381,-1.716,-1.6866,-1.6565,-1.6534,-1.6534,-1.6534,-1.6534,-1.6534,-1.6534,-1.6534,-1.6534,-1.6534,-1.6534,-1.6534,-1.6534,-1.6534,-1.6534,-1.6534,-1.6534,-1.6534,-1.6534,-1.6534,-1.6337,-1.6051,-1.5644,-1.532,-1.5332,-1.5332,-1.532,-1.5421,-1.5611,-1.5856,-1.61,-1.6275,-1.6448,-1.6534,-1.6479,-1.6293,-1.5964,-1.5588,-1.5231,-3.4199,-3.332,-3.2539,-3.1699,-3.0957,-3.0918,-3.0918,-3.0918,-3.0918,-3.0918,-3.0918,-3.0918,-3.0858,-3.0772,-3.0771,-3.0274,-2.9425,-2.8481,-2.7898,-2.7479,-2.6562,-2.5813,-2.5332,-2.5313,-2.5313,-2.5313,-2.5313,-2.5313,-2.5313,-2.5313,-2.5303,-2.5284,-2.5313,-2.5303,-2.5303,-2.5192,-2.5107,-2.4986,-2.479,-2.4636,-2.4493,-2.4375,-2.4266,-2.4227,-2.419,-2.4016,-2.3714,-2.3351,-2.2965,-2.2544,-2.236,-2.231,-2.2327,-2.2299,-2.218,-2.1928,-2.1688,-2.1491,-2.1213,-2.0649,-2.0299,-2.0246,-1.9945,-1.9726,-1.9705,-1.9705,-1.9705,-1.9705,-1.969,-1.9705,-1.9654,-1.9406,-1.8803,-1.7973,-1.7504,-1.7063,-1.665,-1.6534,-1.6534,-1.6534,-1.6534,-1.6534,-1.6534,-1.6534,-1.6534,-1.6534,-1.6534,-1.6534,-1.6534,-1.6534,-1.6534,-1.6534,-1.6534,-1.6534,-1.6534,-1.6534,-1.6534,-1.6337,-1.6139,-1.6008,-1.592,-1.592,-1.5908,-1.5964,-1.6107,-1.6163,-1.6362,-1.6405,-1.6534,-1.6534,-1.6534,-1.6392,-1.6151,-1.5764,-1.5353,-3.4141,-3.332,-3.2461,-3.1601,-3.0937,-3.0898,-3.0918,-3.0918,-3.0918,-3.0918,-3.0918,-3.0918,-3.0898,-3.0898,-3.0742,-3.0254,-2.9512,-2.8442,-2.7621,-2.6868,-2.5977,-2.537,-2.5313,-2.5313,-2.5313,-2.5313,-2.5313,-2.5313,-2.5313,-2.5313,-2.5313,-2.5313,-2.5313,-2.5313,-2.5303,-2.5303,-2.5203,-2.5065,-2.4986,-2.479,-2.4561,-2.4461,-2.4375,-2.4209,-2.419,-2.4056,-2.3795,-2.3414,-2.3045,-2.2686,-2.2398,-2.2327,-2.2327,-2.2327,-2.2282,-2.2225,-2.1869,-2.1718,-2.146,-2.0975,-2.0467,-2.0382,-2.0035,-1.9726,-1.9726,-1.9705,-1.9705,-1.9705,-1.9705,-1.9705,-1.969,-1.9654,-1.9332,-1.8855,-1.7894,-1.7105,-1.6607,-1.6534,-1.6534,-1.6534,-1.6534,-1.6534,-1.6534,-1.6534,-1.6534,-1.6534,-1.6534,-1.6534,-1.6534,-1.6534,-1.6534,-1.6534,-1.6534,-1.6534,-1.6534,-1.6534,-1.6534,-1.6479,-1.6337,-1.6324,-1.6281,-1.6324,-1.6324,-1.638,-1.6423,-1.6479,-1.6534,-1.6534,-1.6534,-1.6534,-1.6534,-1.6534,-1.6238,-1.5808,-1.5264,-3.3572,-3.3172,-3.1835,-3.1052,-3.079,-3.0858,-3.0918,-3.0898,-3.0918,-3.0898,-3.0918,-3.0918,-3.0918,-3.0859,-3.0254,-2.9805,-2.9258,-2.7998,-2.7164,-2.6785,-2.5902,-2.543,-2.5322,-2.5313,-2.5313,-2.5313,-2.5313,-2.5313,-2.5313,-2.5313,-2.5313,-2.5313,-2.5313,-2.5313,-2.5313,-2.5313,-2.5274,-2.5192,-2.4975,-2.4842,-2.4682,-2.4426,-2.4247,-2.4209,-2.419,-2.4151,-2.3996,-2.3482,-2.2958,-2.2453,-2.2332,-2.2327,-2.2327,-2.2327,-2.2327,-2.2282,-2.2209,-2.2106,-2.2003,-2.1568,-2.1134,-2.0829,-2.0364,-2.0035,-1.9726,-1.9705,-1.9705,-1.9705,-1.9705,-1.9705,-1.9705,-1.9705,-1.9442,-1.8893,-1.8013,-1.7188,-1.6723,-1.6534,-1.6534,-1.6534,-1.6522,-1.6565,-1.6534,-1.6565,-1.6522,-1.6522,-1.6534,-1.6534,-1.6534,-1.6534,-1.6534,-1.6534,-1.6534,-1.6534,-1.6534,-1.6534,-1.6534,-1.6534,-1.6479,-1.6436,-1.6436,-1.6436,-1.6479,-1.6479,-1.6479,-1.6491,-1.6534,-1.6534,-1.6534,-1.6534,-1.6534,-1.6479,-1.6051,-1.5576,-1.5084,-3.3127,-3.2604,-3.1318,-3.0729,-3.0689,-3.0752,-3.0806,-3.0814,-3.0816,-3.0857,-3.0898,-3.0918,-3.0918,-3.084,-3.0391,-2.9707,-2.8965,-2.7965,-2.7122,-2.6317,-2.5801,-2.5496,-2.5371,-2.5312,-2.5313,-2.5313,-2.5313,-2.5313,-2.5313,-2.5313,-2.5313,-2.5313,-2.5313,-2.5313,-2.5313,-2.5313,-2.5313,-2.5264,-2.5091,-2.4949,-2.4771,-2.4575,-2.4357,-2.4247,-2.419,-2.417,-2.3937,-2.361,-2.3111,-2.2607,-2.2377,-2.2327,-2.2327,-2.2327,-2.2327,-2.2327,-2.2327,-2.2299,-2.2225,-2.1869,-2.1538,-2.1181,-2.0699,-2.0246,-1.998,-1.9818,-1.9705,-1.9705,-1.9705,-1.9705,-1.9705,-1.9705,-1.9457,-1.893,-1.8341,-1.7747,-1.7242,-1.7242,-1.7034,-1.6951,-1.6993,-1.6909,-1.665,-1.668,-1.6667,-1.6595,-1.6534,-1.6534,-1.6534,-1.6534,-1.6522,-1.6565,-1.6522,-1.6534,-1.6534,-1.6534,-1.6534,-1.6534,-1.6534,-1.6534,-1.6534,-1.6534,-1.6534,-1.6534,-1.6534,-1.6534,-1.6534,-1.6534,-1.6534,-1.6534,-1.6534,-1.6392,-1.6051,-1.5588,-1.5039,-3.2751,-3.1825,-3.0975,-3.06,-3.0594,-3.0606,-3.0672,-3.0684,-3.0716,-3.0769,-3.0859,-3.0879,-3.0918,-3.0879,-3.0566,-2.9824,-2.834,-2.8027,-2.7051,-2.6172,-2.5629,-2.5535,-2.5441,-2.5346,-2.5312,-2.5322,-2.5303,-2.5313,-2.5313,-2.5313,-2.5313,-2.5313,-2.5313,-2.5313,-2.5313,-2.5313,-2.5313,-2.5303,-2.5233,-2.5061,-2.4855,-2.4712,-2.451,-2.4284,-2.4209,-2.4094,-2.3896,-2.3671,-2.3392,-2.2822,-2.25,-2.2388,-2.2349,-2.2349,-2.2327,-2.2327,-2.2327,-2.2327,-2.2254,-2.1945,-2.1658,-2.146,-2.0797,-2.0283,-2.0131,-1.9864,-1.9705,-1.9705,-1.9705,-1.9705,-1.9705,-1.9705,-1.953,-1.9169,-1.8968,-1.8727,-1.838,-1.8171,-1.7894,-1.7504,-1.7827,-1.7504,-1.7076,-1.6921,-1.7063,-1.6595,-1.6607,-1.6795,-1.6795,-1.6795,-1.6795,-1.6752,-1.6637,-1.6534,-1.6534,-1.6534,-1.6534,-1.6534,-1.6534,-1.6534,-1.6534,-1.6534,-1.6534,-1.6534,-1.6534,-1.6534,-1.6534,-1.6534,-1.6534,-1.6534,-1.6534,-1.6436,-1.6281,-1.5732,-1.5186,-3.2675,-3.1759,-3.0931,-3.0568,-3.0537,-3.0575,-3.0611,-3.0633,-3.068,-3.0716,-3.0769,-3.0857,-3.0898,-3.0859,-3.0234,-2.9258,-2.8262,-2.7617,-2.666,-2.5859,-2.5633,-2.5598,-2.5535,-2.546,-2.5395,-2.539,-2.5331,-2.5293,-2.5293,-2.5303,-2.5313,-2.5313,-2.5313,-2.5313,-2.5313,-2.5313,-2.5313,-2.5274,-2.5163,-2.5065,-2.4943,-2.4712,-2.4526,-2.4393,-2.4266,-2.417,-2.4074,-2.3837,-2.3649,-2.3387,-2.2965,-2.2669,-2.2563,-2.2364,-2.226,-2.2327,-2.2327,-2.2327,-2.2282,-2.218,-2.1957,-2.1628,-2.1134,-2.0571,-1.9882,-1.9783,-1.9711,-1.9705,-1.9705,-1.9705,-1.9705,-1.9705,-1.9617,-1.9493,-1.9442,-1.9442,-1.9244,-1.8612,-1.8171,-1.8013,-1.8052,-1.7867,-1.7242,-1.7271,-1.7146,-1.671,-1.6795,-1.7063,-1.7105,-1.7105,-1.7034,-1.6951,-1.668,-1.6522,-1.6534,-1.6534,-1.6534,-1.6534,-1.6534,-1.6534,-1.6534,-1.6534,-1.6534,-1.6534,-1.6534,-1.6534,-1.6534,-1.6534,-1.6534,-1.6534,-1.6479,-1.6293,-1.6051,-1.5644,-1.5141,-3.1986,-3.111,-3.0694,-3.0491,-3.0462,-3.05,-3.054,-3.0547,-3.0594,-3.0652,-3.0693,-3.0792,-3.0837,-3.0801,-2.998,-2.9141,-2.8144,-2.6953,-2.6172,-2.5762,-2.566,-2.5638,-2.5633,-2.5551,-2.5488,-2.5447,-2.5408,-2.5376,-2.5354,-2.5337,-2.532,-2.5293,-2.5293,-2.5313,-2.5313,-2.5313,-2.5313,-2.5284,-2.5184,-2.5099,-2.4974,-2.4785,-2.4512,-2.4393,-2.4247,-2.419,-2.417,-2.4036,-2.3955,-2.3816,-2.3419,-2.2979,-2.2608,-2.2156,-2.1983,-2.226,-2.2327,-2.2327,-2.2327,-2.2299,-2.2197,-2.1928,-2.1354,-2.0863,-2.0276,-1.9989,-1.9711,-1.9705,-1.9705,-1.9705,-1.9705,-1.9705,-1.9705,-1.9705,-1.9705,-1.9705,-1.9603,-1.9169,-1.8741,-1.8612,-1.8727,-1.838,-1.8066,-1.7867,-1.7747,-1.7463,-1.7422,-1.7666,-1.7544,-1.7504,-1.7271,-1.7105,-1.671,-1.6522,-1.6522,-1.6534,-1.6534,-1.6534,-1.6534,-1.6534,-1.6534,-1.6534,-1.6534,-1.6534,-1.6534,-1.6534,-1.6534,-1.6534,-1.6534,-1.6534,-1.6392,-1.6095,-1.5864,-1.5632,-1.5005,-3.1254,-3.0398,-3.0398,-3.0398,-3.0398,-3.039,-3.043,-3.0462,-3.049,-3.0568,-3.0665,-3.068,-3.0738,-3.0644,-2.9941,-2.9062,-2.7851,-2.6621,-2.5742,-2.5723,-2.5703,-2.5684,-2.5664,-2.5613,-2.5573,-2.552,-2.5503,-2.5465,-2.5421,-2.542,-2.5364,-2.533,-2.5322,-2.5313,-2.5322,-2.5313,-2.5313,-2.5284,-2.5274,-2.5214,-2.5053,-2.4883,-2.4591,-2.4284,-2.4209,-2.419,-2.4135,-2.4024,-2.3987,-2.4152,-2.3678,-2.324,-2.279,-2.2056,-2.1593,-2.2321,-2.2327,-2.2327,-2.2327,-2.2327,-2.2282,-2.2254,-2.1568,-2.1103,-2.0845,-2.0296,-1.9889,-1.9726,-1.9705,-1.9705,-1.9705,-1.9705,-1.9705,-1.9705,-1.9705,-1.9705,-1.9705,-1.9705,-1.9406,-1.9169,-1.9169,-1.8968,-1.865,-1.8419,-1.8341,-1.8288,-1.8249,-1.8171,-1.8013,-1.7827,-1.7626,-1.7271,-1.6909,-1.6552,-1.6522,-1.6534,-1.6534,-1.6534,-1.6534,-1.6534,-1.6534,-1.6534,-1.6534,-1.6534,-1.6534,-1.6534,-1.6534,-1.6534,-1.6534,-1.6534,-1.6392,-1.6194,-1.5952,-1.5632,-1.4949,-3.1203,-3.0398,-3.0398,-3.0398,-3.0398,-3.0398,-3.0402,-3.0428,-3.0472,-3.0496,-3.0533,-3.0555,-3.0555,-3.0375,-2.9771,-2.8583,-2.7132,-2.6094,-2.5703,-2.5703,-2.5703,-2.5703,-2.5684,-2.5684,-2.5664,-2.5636,-2.5567,-2.5517,-2.5498,-2.5468,-2.5434,-2.5406,-2.5395,-2.5382,-2.5331,-2.5313,-2.5303,-2.5313,-2.5313,-2.5264,-2.5182,-2.4936,-2.4623,-2.4284,-2.4209,-2.419,-2.4043,-2.3621,-2.3511,-2.395,-2.2626,-2.2646,-2.3071,-2.2765,-2.2392,-2.2252,-2.2293,-2.2265,-2.2192,-2.2293,-2.231,-2.218,-2.1764,-2.1306,-2.0991,-2.0483,-2.005,-1.9782,-1.9726,-1.9726,-1.9705,-1.9762,-1.9726,-1.9726,-1.9726,-1.9726,-1.9705,-1.969,-1.969,-1.9493,-1.9566,-1.9566,-1.9169,-1.8893,-1.8765,-1.8727,-1.8727,-1.865,-1.8535,-1.8249,-1.7933,-1.7544,-1.7105,-1.6752,-1.6534,-1.6534,-1.6534,-1.6534,-1.6534,-1.6534,-1.6534,-1.6534,-1.6534,-1.6534,-1.6534,-1.6534,-1.6534,-1.6534,-1.6534,-1.6534,-1.6436,-1.6293,-1.5908,-1.5576,-1.5174,-3.0775,-3.0398,-3.0398,-3.0398,-3.0398,-3.0398,-3.0398,-3.039,-3.0449,-3.0463,-3.0363,-3.0091,-2.9907,-2.9627,-2.8568,-2.7327,-2.6337,-2.5883,-2.5658,-2.5659,-2.5684,-2.5703,-2.5703,-2.5703,-2.5703,-2.5684,-2.5633,-2.557,-2.5535,-2.5535,-2.5503,-2.5457,-2.5453,-2.5434,-2.5371,-2.5354,-2.533,-2.5313,-2.5313,-2.5303,-2.5264,-2.4981,-2.4654,-2.4428,-2.4266,-2.4209,-2.4116,-2.3914,-2.3804,-2.3969,-2.338,-2.326,-2.3358,-2.3241,-2.2623,-2.2125,-2.2167,-2.209,-2.1921,-2.2023,-2.2327,-2.2254,-2.1869,-2.1446,-2.1023,-2.0565,-2.0158,-1.9874,-1.9929,-2.0,-2.0035,-2.0,-2.0,-1.9965,-1.9839,-1.9711,-1.9705,-1.9705,-1.9705,-1.9705,-1.969,-1.9603,-1.9515,-1.9281,-1.9207,-1.9169,-1.9169,-1.908,-1.8968,-1.8496,-1.8066,-1.7463,-1.6993,-1.6765,-1.6534,-1.6534,-1.6534,-1.6534,-1.6534,-1.6534,-1.6534,-1.6534,-1.6534,-1.6534,-1.6534,-1.6534,-1.6534,-1.6534,-1.6534,-1.6534,-1.6436,-1.6293,-1.5864,-1.5443,-1.5129,-3.0398,-3.0398,-3.0398,-3.0398,-3.0398,-3.0398,-3.0398,-3.0398,-3.041,-3.0439,-3.0356,-2.964,-2.9276,-2.8897,-2.7679,-2.6348,-2.5517,-2.5551,-2.5576,-2.5609,-2.5658,-2.5684,-2.5703,-2.5703,-2.5703,-2.5703,-2.5703,-2.5664,-2.5633,-2.5609,-2.5593,-2.5543,-2.5531,-2.5488,-2.5408,-2.5391,-2.5343,-2.5312,-2.5313,-2.5303,-2.5171,-2.4987,-2.4712,-2.4528,-2.4339,-2.4247,-2.4171,-2.3878,-2.3951,-2.4043,-2.395,-2.3818,-2.3741,-2.35,-2.2741,-2.1836,-2.2012,-2.1841,-2.16,-2.1921,-2.2327,-2.2282,-2.1957,-2.1568,-2.1181,-2.0781,-2.0364,-2.0104,-2.0208,-2.0465,-2.0465,-2.0449,-2.0382,-2.0227,-2.0,-1.9782,-1.9726,-1.9705,-1.9705,-1.9705,-1.9705,-1.969,-1.9603,-1.9566,-1.9457,-1.9442,-1.9457,-1.9406,-1.9207,-1.8458,-1.7947,-1.7271,-1.6837,-1.6637,-1.6534,-1.6534,-1.6534,-1.6534,-1.6534,-1.6534,-1.6534,-1.6534,-1.6534,-1.6534,-1.6534,-1.6534,-1.6534,-1.6534,-1.6534,-1.6534,-1.6534,-1.6293,-1.582,-1.5499,-1.5231,-3.0398,-3.0398,-3.0398,-3.0398,-3.0398,-3.0398,-3.0398,-3.0398,-3.0398,-3.039,-3.0243,-2.9481,-2.904,-2.8522,-2.7346,-2.6214,-2.5648,-2.5493,-2.5524,-2.5573,-2.5607,-2.5659,-2.5703,-2.5703,-2.5703,-2.5703,-2.5703,-2.5703,-2.5684,-2.5664,-2.564,-2.5601,-2.557,-2.5539,-2.5447,-2.5421,-2.5371,-2.5322,-2.5313,-2.5224,-2.5088,-2.4998,-2.479,-2.4604,-2.4478,-2.4374,-2.4174,-2.3805,-2.3658,-2.408,-2.3547,-2.3547,-2.3947,-2.3816,-2.2701,-2.1882,-2.1693,-2.1989,-2.1407,-2.1752,-2.2276,-2.226,-2.2113,-2.194,-2.1507,-2.1086,-2.0797,-2.091,-2.0894,-2.0894,-2.0926,-2.0926,-2.0715,-2.0516,-2.0348,-2.007,-1.9925,-2.0065,-2.003,-1.9818,-1.9889,-1.9782,-1.9675,-1.969,-1.9705,-1.9705,-1.969,-1.9617,-1.9258,-1.8472,-1.7867,-1.7229,-1.6752,-1.6565,-1.6534,-1.6534,-1.6534,-1.6534,-1.6534,-1.6534,-1.6534,-1.6534,-1.6534,-1.6534,-1.6534,-1.6534,-1.6534,-1.6534,-1.6534,-1.6534,-1.6534,-1.6151,-1.572,-1.5499,-1.5365,-3.0398,-3.0398,-3.0398,-3.0398,-3.0398,-3.0398,-3.0398,-3.0398,-3.0398,-3.0121,-2.9583,-2.8794,-2.7928,-2.7035,-2.6101,-2.5734,-2.5401,-2.5401,-2.5468,-2.5547,-2.557,-2.5634,-2.5684,-2.5703,-2.5703,-2.5703,-2.5703,-2.5703,-2.5703,-2.5703,-2.5684,-2.5664,-2.5644,-2.5607,-2.5493,-2.5482,-2.5415,-2.5352,-2.5312,-2.5244,-2.5143,-2.5046,-2.4917,-2.4776,-2.4693,-2.4559,-2.4316,-2.4134,-2.3915,-2.4173,-2.3768,-2.3823,-2.4022,-2.3787,-2.2965,-2.1516,-2.1616,-2.1413,-2.0746,-2.1322,-2.1786,-2.209,-2.1978,-2.1608,-2.148,-2.1275,-2.1039,-2.1007,-2.1213,-2.1337,-2.1337,-2.1337,-2.1244,-2.107,-2.0781,-2.0583,-2.0431,-2.0447,-2.0481,-2.0243,-2.0035,-1.998,-1.9874,-1.9782,-1.9762,-1.9705,-1.9617,-1.9493,-1.8968,-1.8145,-1.7626,-1.7188,-1.6795,-1.6534,-1.6534,-1.6534,-1.6534,-1.6534,-1.6534,-1.6534,-1.6534,-1.6534,-1.6534,-1.6534,-1.6534,-1.6534,-1.6534,-1.6534,-1.6534,-1.6534,-1.6534,-1.625,-1.5964,-1.5632,-1.5365,-3.0323,-3.0398,-3.0398,-3.0398,-3.0359,-3.0179,-3.0063,-3.0044,-2.9794,-2.9371,-2.8736,-2.7909,-2.6697,-2.5591,-2.539,-2.5361,-2.5322,-2.5346,-2.5401,-2.5482,-2.5539,-2.5595,-2.5644,-2.5664,-2.5684,-2.5703,-2.5703,-2.5703,-2.5703,-2.5703,-2.5703,-2.5703,-2.5684,-2.5644,-2.5603,-2.5551,-2.5498,-2.5421,-2.5382,-2.533,-2.5283,-2.5173,-2.5057,-2.4974,-2.4904,-2.4771,-2.4607,-2.4556,-2.4459,-2.4302,-2.4248,-2.4211,-2.4152,-2.3668,-2.2819,-2.1708,-2.1542,-2.1226,-2.0697,-2.0815,-2.139,-2.1786,-2.1938,-2.1743,-2.1753,-2.1477,-2.1323,-2.1432,-2.1615,-2.1764,-2.1794,-2.1794,-2.1628,-2.1507,-2.1275,-2.115,-2.1023,-2.0942,-2.0845,-2.0648,-2.0465,-2.0364,-2.0243,-2.0015,-1.9854,-1.9726,-1.9617,-1.9442,-1.8855,-1.8131,-1.7706,-1.7381,-1.7063,-1.6723,-1.6534,-1.6534,-1.6534,-1.6534,-1.6534,-1.6534,-1.6534,-1.6534,-1.6534,-1.6534,-1.6534,-1.6534,-1.6534,-1.6534,-1.6534,-1.6534,-1.6534,-1.6534,-1.6293,-1.592,-1.5365,-3.0163,-3.0398,-3.0359,-3.0321,-3.0283,-2.9525,-2.9179,-2.9121,-2.8448,-2.814,-2.7871,-2.7063,-2.6159,-2.5495,-2.5313,-2.5313,-2.5313,-2.5293,-2.5354,-2.5406,-2.5447,-2.5513,-2.5564,-2.5607,-2.5634,-2.5662,-2.5664,-2.5664,-2.5684,-2.5684,-2.5684,-2.5703,-2.5703,-2.5664,-2.5609,-2.5595,-2.5547,-2.5488,-2.5434,-2.5403,-2.5371,-2.5302,-2.5203,-2.5046,-2.4998,-2.493,-2.4804,-2.4756,-2.4685,-2.4495,-2.4462,-2.4375,-2.4174,-2.3675,-2.2793,-2.2004,-2.1612,-2.1384,-2.1092,-2.0594,-2.0882,-2.1752,-2.2046,-2.1758,-2.1698,-2.2062,-2.2147,-2.1943,-2.1859,-2.2068,-2.2158,-2.2192,-2.1836,-2.184,-2.1645,-2.1538,-2.1385,-2.126,-2.1134,-2.1007,-2.091,-2.0797,-2.0516,-2.0261,-2.0035,-1.9909,-1.969,-1.9515,-1.9244,-1.8612,-1.8092,-1.7706,-1.7381,-1.698,-1.6565,-1.6534,-1.6534,-1.6534,-1.6534,-1.6534,-1.6534,-1.6534,-1.6534,-1.6534,-1.6534,-1.6534,-1.6534,-1.6534,-1.6534,-1.6534,-1.6479,-1.6436,-1.6238,-1.5864,-1.5231,-2.9133,-2.9189,-2.8708,-2.8925,-2.9525,-2.8717,-2.8382,-2.8313,-2.8025,-2.7563,-2.7063,-2.6217,-2.561,-2.536,-2.5313,-2.5313,-2.5313,-2.5313,-2.5329,-2.5376,-2.5408,-2.5465,-2.5526,-2.5547,-2.5554,-2.559,-2.559,-2.557,-2.5566,-2.5609,-2.5655,-2.5664,-2.5682,-2.5683,-2.566,-2.5609,-2.5564,-2.5526,-2.5463,-2.5447,-2.5398,-2.5387,-2.5302,-2.5214,-2.5192,-2.5107,-2.4956,-2.493,-2.4842,-2.4697,-2.4556,-2.4403,-2.4227,-2.3787,-2.3125,-2.23,-2.2023,-2.185,-2.1613,-2.0882,-2.0533,-2.0585,-2.0863,-2.0964,-2.1177,-2.1363,-2.1566,-2.16,-2.1667,-2.1803,-2.2198,-2.1921,-2.1602,-2.1859,-2.189,-2.1691,-2.1731,-2.1549,-2.1491,-2.1383,-2.1306,-2.1244,-2.091,-2.055,-2.0314,-2.0089,-1.9839,-1.9603,-1.9369,-1.908,-1.8574,-1.8092,-1.776,-1.7216,-1.6752,-1.6595,-1.6522,-1.6534,-1.6534,-1.6534,-1.6534,-1.6534,-1.6534,-1.6534,-1.6534,-1.6534,-1.6534,-1.6534,-1.6534,-1.6534,-1.6423,-1.6324,-1.6095,-1.5864,-1.541,-2.8075,-2.8048,-2.727,-2.7552,-2.8396,-2.7687,-2.7366,-2.7382,-2.7105,-2.6741,-2.6096,-2.5463,-2.5182,-2.516,-2.5138,-2.5138,-2.5138,-2.5163,-2.5216,-2.5283,-2.5335,-2.5401,-2.5453,-2.5482,-2.5473,-2.5503,-2.5513,-2.5517,-2.5526,-2.5554,-2.5593,-2.5607,-2.5637,-2.5662,-2.5683,-2.5664,-2.5605,-2.5567,-2.5539,-2.5522,-2.5471,-2.5427,-2.5403,-2.5321,-2.5313,-2.5224,-2.513,-2.5096,-2.5005,-2.4769,-2.4515,-2.4229,-2.4011,-2.3727,-2.3235,-2.2722,-2.2282,-2.2096,-2.194,-2.1542,-2.0523,-2.0113,-2.0203,-2.0289,-2.0458,-2.0856,-2.1288,-2.1288,-2.1271,-2.1356,-2.1725,-2.1126,-2.1194,-2.1423,-2.117,-2.1082,-2.1715,-2.1831,-2.1811,-2.1803,-2.1731,-2.1705,-2.1415,-2.1007,-2.0364,-2.0139,-1.9854,-1.969,-1.9603,-1.9317,-1.9006,-1.8559,-1.8182,-1.7558,-1.6896,-1.6909,-1.6837,-1.6534,-1.6534,-1.6534,-1.6534,-1.6534,-1.6534,-1.6534,-1.6534,-1.6534,-1.6522,-1.6466,-1.6522,-1.6534,-1.6423,-1.6367,-1.6281,-1.6139,-1.6008,-2.7095,-2.7214,-2.6371,-2.6503,-2.7135,-2.6401,-2.6162,-2.6238,-2.5602,-2.5239,-2.5201,-2.501,-2.4956,-2.4888,-2.4883,-2.4902,-2.4929,-2.4981,-2.5046,-2.5091,-2.5206,-2.5301,-2.5395,-2.542,-2.5415,-2.5473,-2.5468,-2.5471,-2.5493,-2.5489,-2.552,-2.5489,-2.5464,-2.552,-2.5664,-2.5703,-2.5684,-2.5683,-2.5631,-2.5598,-2.5554,-2.5482,-2.5428,-2.5368,-2.5348,-2.5284,-2.5234,-2.5032,-2.4949,-2.4953,-2.4075,-2.369,-2.3512,-2.2715,-2.2251,-2.1987,-2.1236,-2.1183,-2.1641,-2.1777,-2.0917,-1.9693,-1.9745,-2.0017,-2.0713,-2.1034,-2.0899,-2.0619,-2.0831,-2.0653,-2.0433,-2.012,-2.0551,-2.0805,-2.0585,-2.061,-2.1262,-2.1515,-2.1372,-2.139,-2.1922,-2.2192,-2.1899,-2.1493,-2.0632,-2.0154,-1.9833,-1.969,-1.969,-1.9566,-1.9244,-1.8873,-1.8489,-1.7951,-1.7424,-1.7259,-1.7105,-1.671,-1.6534,-1.6534,-1.6534,-1.6534,-1.6534,-1.6522,-1.6479,-1.6466,-1.6454,-1.6429,-1.6245,-1.6019,-1.6434,-1.6466,-1.6423,-1.638,-1.6238,-2.5967,-2.5968,-2.5152,-2.4966,-2.5242,-2.5246,-2.5244,-2.5248,-2.5015,-2.4864,-2.485,-2.4869,-2.4855,-2.4818,-2.479,-2.4775,-2.4804,-2.4832,-2.4891,-2.4998,-2.5088,-2.5194,-2.5283,-2.5348,-2.5346,-2.5363,-2.5371,-2.5387,-2.5363,-2.5401,-2.5421,-2.5404,-2.5129,-2.5146,-2.5527,-2.5703,-2.5703,-2.5703,-2.5682,-2.5658,-2.5603,-2.5551,-2.5479,-2.5408,-2.5356,-2.5271,-2.5149,-2.4822,-2.4649,-2.4692,-2.3744,-2.3006,-2.3003,-2.2361,-2.1849,-2.1766,-2.1327,-2.1161,-2.1108,-2.0862,-2.0505,-1.9679,-1.9178,-1.9211,-1.9032,-1.9476,-1.9587,-1.9789,-1.9957,-1.9864,-1.9934,-1.9502,-1.973,-2.0196,-2.017,-2.0187,-2.0491,-2.0475,-2.0465,-2.0668,-2.1032,-2.1586,-2.1637,-2.1311,-2.059,-2.0212,-1.9945,-1.9762,-1.969,-1.9639,-1.9442,-1.9067,-1.8682,-1.8248,-1.7901,-1.7608,-1.709,-1.658,-1.6481,-1.6534,-1.6534,-1.6413,-1.6434,-1.6371,-1.6391,-1.6398,-1.6195,-1.5935,-1.5542,-1.5467,-1.5894,-1.6296,-1.6341,-1.6391,-1.6423,-2.4999,-2.4925,-2.441,-2.419,-2.4247,-2.4478,-2.4623,-2.47,-2.4741,-2.4756,-2.4697,-2.47,-2.4639,-2.4626,-2.4591,-2.4591,-2.4591,-2.4666,-2.4697,-2.4845,-2.4974,-2.5077,-2.5173,-2.5264,-2.5313,-2.5284,-2.5284,-2.5303,-2.5313,-2.5357,-2.5383,-2.5221,-2.4681,-2.4718,-2.5039,-2.5156,-2.5176,-2.5234,-2.5352,-2.5683,-2.5655,-2.5601,-2.5535,-2.5376,-2.5195,-2.4931,-2.4681,-2.431,-2.387,-2.3832,-2.3203,-2.2249,-2.2305,-2.2065,-2.1475,-2.1393,-2.1272,-2.0868,-2.0319,-2.0099,-1.9758,-1.9275,-1.8718,-1.8525,-1.8491,-1.9194,-1.9314,-1.9326,-1.9104,-1.9207,-1.9396,-1.8949,-1.9098,-1.9611,-1.9515,-1.9532,-1.9883,-1.99,-1.9824,-2.0027,-2.0347,-2.0877,-2.1325,-2.0884,-2.0432,-2.0244,-2.007,-1.9859,-1.9711,-1.9639,-1.9543,-1.9214,-1.8797,-1.836,-1.7993,-1.7748,-1.7188,-1.6454,-1.6386,-1.6446,-1.6144,-1.6011,-1.609,-1.62,-1.6265,-1.6128,-1.5729,-1.536,-1.5172,-1.5159,-1.5392,-1.5781,-1.6145,-1.6275,-1.6317,-2.4208,-2.419,-2.419,-2.419,-2.4209,-2.4247,-2.4321,-2.453,-2.4685,-2.4654,-2.4495,-2.4495,-2.4428,-2.4247,-2.4228,-2.4247,-2.4303,-2.4426,-2.4493,-2.4604,-2.479,-2.4924,-2.5041,-2.5141,-2.5192,-2.5253,-2.5264,-2.5234,-2.5284,-2.5313,-2.5357,-2.5159,-2.4436,-2.4245,-2.4244,-2.4141,-2.4219,-2.4434,-2.4824,-2.5059,-2.5019,-2.5206,-2.5076,-2.4865,-2.4535,-2.4213,-2.384,-2.3342,-2.3022,-2.2641,-2.2008,-2.1502,-2.1202,-2.1029,-2.076,-2.0572,-2.0499,-2.0023,-1.962,-1.9491,-1.9376,-1.9164,-1.9038,-1.9236,-1.9275,-1.9237,-1.9216,-1.9251,-1.9216,-1.8961,-1.879,-1.8761,-1.8746,-1.8766,-1.862,-1.8899,-1.9408,-1.9461,-1.935,-1.9519,-1.9883,-2.0387,-2.1021,-2.0809,-2.0462,-2.0509,-2.0265,-1.9712,-1.9581,-1.966,-1.9555,-1.9295,-1.8889,-1.841,-1.8057,-1.7618,-1.7074,-1.6314,-1.6327,-1.6297,-1.5971,-1.5763,-1.5943,-1.6086,-1.6114,-1.5905,-1.5539,-1.5186,-1.4918,-1.4969,-1.5079,-1.5246,-1.5615,-1.5805,-1.5947,-2.419,-2.419,-2.419,-2.419,-2.419,-2.419,-2.4247,-2.4303,-2.4375,-2.4339,-2.4266,-2.4284,-2.4247,-2.419,-2.419,-2.419,-2.4228,-2.4284,-2.4393,-2.451,-2.4636,-2.4723,-2.4823,-2.4936,-2.5012,-2.5053,-2.5099,-2.5152,-2.5264,-2.5284,-2.5284,-2.5166,-2.4024,-2.3558,-2.3227,-2.2834,-2.3038,-2.3398,-2.3848,-2.4082,-2.4082,-2.4082,-2.4062,-2.3876,-2.3622,-2.3348,-2.3069,-2.2366,-2.2136,-2.2427,-2.1205,-2.0594,-2.124,-2.0596,-2.0045,-1.9876,-1.9726,-1.9491,-1.9323,-1.9286,-1.9271,-1.9243,-1.9212,-1.9019,-1.9002,-1.9032,-1.9069,-1.9141,-1.9177,-1.8948,-1.8787,-1.8747,-1.8669,-1.8551,-1.8391,-1.8517,-1.8944,-1.8887,-1.8751,-1.8898,-1.9284,-1.9958,-2.0593,-2.0799,-2.0532,-2.0671,-2.044,-1.9756,-1.9396,-1.9446,-1.9271,-1.9001,-1.8608,-1.8013,-1.7621,-1.7185,-1.6698,-1.6269,-1.6247,-1.62,-1.5968,-1.5835,-1.5911,-1.5918,-1.5888,-1.5692,-1.5391,-1.506,-1.4707,-1.4626,-1.4681,-1.4846,-1.5043,-1.5363,-1.575,-2.4074,-2.419,-2.419,-2.419,-2.419,-2.419,-2.419,-2.419,-2.419,-2.419,-2.419,-2.4209,-2.419,-2.419,-2.419,-2.419,-2.419,-2.4209,-2.4266,-2.4339,-2.4461,-2.4575,-2.467,-2.476,-2.4855,-2.4904,-2.4943,-2.4987,-2.5115,-2.5163,-2.5173,-2.503,-2.3598,-2.3052,-2.2656,-2.2008,-2.1555,-2.2135,-2.2676,-2.3008,-2.3086,-2.3086,-2.3144,-2.2978,-2.2756,-2.2496,-2.2317,-2.152,-2.1436,-2.1743,-2.041,-2.0298,-2.0727,-2.0126,-1.9816,-1.9707,-1.9655,-1.9601,-1.9526,-1.9513,-1.9499,-1.9458,-1.9452,-1.9323,-1.915,-1.9123,-1.9072,-1.9038,-1.8984,-1.8913,-1.8825,-1.8753,-1.8643,-1.8547,-1.841,-1.827,-1.826,-1.8215,-1.8245,-1.8331,-1.8817,-1.9497,-1.9976,-2.029,-2.0361,-2.0113,-1.9765,-1.9248,-1.8967,-1.897,-1.8706,-1.8388,-1.7984,-1.7498,-1.7122,-1.6806,-1.6471,-1.6189,-1.6146,-1.6053,-1.5895,-1.5779,-1.5755,-1.5654,-1.5574,-1.5425,-1.5305,-1.4875,-1.4525,-1.4553,-1.4613,-1.4694,-1.4919,-1.5172,-1.5594,-2.3837,-2.4094,-2.4151,-2.4151,-2.4152,-2.417,-2.419,-2.419,-2.419,-2.419,-2.419,-2.419,-2.419,-2.419,-2.419,-2.419,-2.419,-2.419,-2.419,-2.4209,-2.4357,-2.4461,-2.4493,-2.4639,-2.4666,-2.4746,-2.479,-2.4799,-2.4842,-2.4898,-2.491,-2.4827,-2.3505,-2.2705,-2.2315,-2.121,-2.0769,-2.1006,-2.1856,-2.25,-2.2617,-2.2812,-2.293,-2.2656,-2.2139,-2.1645,-2.1411,-2.0905,-2.0296,-2.0318,-2.0296,-2.0216,-2.0127,-1.9969,-1.9855,-1.979,-1.9755,-1.9719,-1.9726,-1.9707,-1.9731,-1.9726,-1.9676,-1.9591,-1.9448,-1.924,-1.9164,-1.913,-1.9113,-1.9113,-1.9064,-1.8964,-1.886,-1.8753,-1.8623,-1.8508,-1.841,-1.8371,-1.8348,-1.8447,-1.872,-1.9298,-1.9437,-1.9746,-1.9987,-1.9591,-1.9248,-1.8837,-1.8408,-1.8412,-1.816,-1.7747,-1.7443,-1.707,-1.6681,-1.6412,-1.6263,-1.6097,-1.6074,-1.6016,-1.5895,-1.5762,-1.5567,-1.565,-1.5742,-1.5475,-1.5238,-1.4992,-1.489,-1.4857,-1.4864,-1.4707,-1.486,-1.5156,-1.5523,-2.3369,-2.3459,-2.3714,-2.3834,-2.3858,-2.4094,-2.419,-2.419,-2.419,-2.419,-2.419,-2.419,-2.419,-2.419,-2.419,-2.419,-2.419,-2.419,-2.419,-2.419,-2.4284,-2.4321,-2.4266,-2.4393,-2.4444,-2.4545,-2.4575,-2.4639,-2.4712,-2.4724,-2.4458,-2.3859,-2.2917,-2.2431,-2.1826,-2.0658,-2.0346,-2.0404,-2.0854,-2.1396,-2.1372,-2.1221,-2.1127,-2.1172,-2.0911,-2.0919,-2.0753,-2.0555,-2.0305,-2.0296,-2.0304,-2.0257,-2.0225,-2.0041,-1.9973,-1.9943,-1.988,-1.9866,-1.9855,-1.9866,-1.9866,-1.9832,-1.9786,-1.9755,-1.9645,-1.9434,-1.932,-1.9305,-1.9286,-1.9286,-1.9274,-1.9148,-1.9067,-1.8984,-1.8878,-1.877,-1.8659,-1.8604,-1.8547,-1.8658,-1.8815,-1.8901,-1.903,-1.9174,-1.941,-1.9361,-1.9111,-1.8654,-1.7844,-1.7563,-1.7502,-1.7182,-1.7012,-1.6667,-1.6323,-1.6261,-1.6243,-1.6152,-1.6068,-1.6006,-1.5983,-1.6021,-1.601,-1.5979,-1.5957,-1.5786,-1.5684,-1.5624,-1.5521,-1.5389,-1.5286,-1.5195,-1.5269,-1.556,-1.5785,-2.3069,-2.3212,-2.341,-2.3459,-2.3522,-2.3692,-2.3756,-2.3777,-2.3899,-2.3976,-2.4016,-2.4113,-2.419,-2.419,-2.419,-2.417,-2.417,-2.419,-2.419,-2.419,-2.4151,-2.4209,-2.419,-2.417,-2.4284,-2.4375,-2.4375,-2.4426,-2.4559,-2.4564,-2.4238,-2.3403,-2.2716,-2.2023,-2.128,-2.0625,-2.0222,-2.0295,-2.0326,-2.0366,-2.0422,-2.0438,-2.0501,-2.0523,-2.0527,-2.0505,-2.0484,-2.0402,-2.0361,-2.0313,-2.0299,-2.03,-2.0257,-2.0197,-2.0124,-2.0106,-2.0069,-2.0021,-2.0011,-1.9982,-2.0001,-1.9991,-1.9901,-1.9882,-1.9828,-1.9626,-1.9485,-1.9456,-1.932,-1.9305,-1.9289,-1.9212,-1.9214,-1.915,-1.9117,-1.9049,-1.9016,-1.8981,-1.8947,-1.8984,-1.8948,-1.8743,-1.8724,-1.845,-1.8646,-1.8566,-1.8414,-1.8318,-1.755,-1.7068,-1.6895,-1.678,-1.674,-1.6575,-1.6327,-1.6332,-1.6456,-1.6308,-1.6163,-1.6285,-1.6421,-1.6474,-1.649,-1.6452,-1.6397,-1.6331,-1.6258,-1.6102,-1.6034,-1.5904,-1.5801,-1.5712,-1.5842,-1.5885,-1.5965,-2.2815,-2.3063,-2.3117,-2.3141,-2.3141,-2.3189,-2.3212,-2.3259,-2.3522,-2.3631,-2.3671,-2.3899,-2.4074,-2.4132,-2.4074,-2.4074,-2.4034,-2.3896,-2.3976,-2.3996,-2.3996,-2.3996,-2.4016,-2.4036,-2.4056,-2.4113,-2.4209,-2.4228,-2.4266,-2.4318,-2.4031,-2.3207,-2.252,-2.1872,-2.1081,-2.0508,-2.0096,-2.0203,-2.0277,-2.0294,-2.032,-2.0347,-2.0425,-2.0472,-2.0508,-2.0504,-2.0505,-2.0467,-2.0399,-2.0352,-2.0315,-2.0287,-2.0289,-2.0273,-2.0277,-2.0241,-2.0233,-2.0225,-2.0241,-2.0225,-2.0233,-2.0233,-2.0096,-2.0012,-1.9963,-1.9847,-1.9695,-1.9582,-1.9452,-1.932,-1.9305,-1.9305,-1.9305,-1.9289,-1.9274,-1.9259,-1.9259,-1.9259,-1.9243,-1.9227,-1.9,-1.8713,-1.84,-1.8108,-1.7939,-1.7856,-1.7681,-1.7526,-1.7338,-1.7117,-1.6907,-1.6842,-1.6823,-1.6608,-1.6409,-1.6479,-1.6644,-1.6601,-1.6528,-1.6712,-1.6841,-1.685,-1.6866,-1.6863,-1.6823,-1.6663,-1.6589,-1.6468,-1.6397,-1.6363,-1.6302,-1.6207,-1.6179,-1.6207,-1.6052,-2.2415,-2.248,-2.2686,-2.2797,-2.2848,-2.3069,-2.3189,-2.323,-2.3253,-2.3282,-2.3323,-2.3351,-2.3504,-2.3774,-2.35,-2.3455,-2.3544,-2.3522,-2.3414,-2.3369,-2.3522,-2.361,-2.3692,-2.3671,-2.361,-2.3756,-2.3976,-2.417,-2.4113,-2.4135,-2.351,-2.2236,-2.2235,-2.1419,-2.0151,-1.9881,-2.0165,-2.0287,-2.0395,-2.045,-2.0357,-2.0372,-2.0366,-2.0402,-2.0425,-2.0455,-2.0479,-2.0449,-2.0442,-2.0408,-2.0347,-2.0307,-2.0308,-2.0301,-2.0299,-2.0318,-2.0318,-2.0311,-2.0318,-2.0304,-2.0304,-2.0289,-2.0203,-2.0197,-2.0134,-2.0031,-1.9899,-1.9802,-1.9638,-1.9405,-1.9346,-1.9346,-1.9346,-1.9316,-1.9286,-1.9289,-1.9289,-1.9259,-1.9261,-1.9166,-1.9018,-1.8696,-1.8348,-1.8142,-1.8031,-1.7861,-1.7595,-1.7462,-1.7432,-1.7175,-1.6968,-1.6975,-1.7014,-1.6879,-1.6779,-1.6789,-1.6882,-1.6841,-1.6866,-1.7043,-1.715,-1.7183,-1.7191,-1.7199,-1.7034,-1.6863,-1.6799,-1.6825,-1.6761,-1.6706,-1.6701,-1.6633,-1.6581,-1.649,-1.6367]},{"header":{"parameterUnit":"m.s-1","parameterCategory":1,"la1":31.0,"la2":29.5877,"lo1":-88.7671,"lo2":-86.6584,"dy":0.0162,"dx":0.0185,"nx":115,"ny":88,"refTime":"2024-06-14T00:00:00:Z","depth":0,"parameterNumber":3,"parameterNumberName":"V-component_of_WINDS"},"data":[0.0,0.0,0.0,0.0,0.0,0.0,0.0,0.0,0.0,0.0,0.0,0.0,0.0,0.0,0.0,0.0,0.0,0.0,0.0,0.0,0.0,0.0,0.0,0.0,0.0,0.0,0.0,0.0,0.0,0.0,0.0,0.0,0.0,0.0,0.0,0.0,0.0,0.0,0.0,0.0,0.0,0.0,0.0,0.0,0.0,0.0,0.0,0.0,0.0,0.0,0.0,0.0,0.0,0.0,0.0,0.0,0.0,0.0,0.0,0.0,0.0,0.0,0.0,0.0,0.0,0.0,0.0,0.0,0.0,0.0,0.0,0.0,0.0,0.0,0.0,0.0,0.0,0.0,0.0,0.0,0.0,0.0,0.0,0.0,0.0,0.0,0.0,0.0,0.0,0.0,0.0,0.0,0.0,0.0,0.0,0.0,0.0,0.0,0.0,0.0,0.0,0.0,0.0,0.0,0.0,0.0,0.0,0.0,0.0,0.0,0.0,0.0,0.0,0.0,0.0,0.0,0.0,0.0,0.0,0.0,0.0,0.0,0.0,0.0,0.0,0.0,0.0,0.0,0.0,0.0,0.0,0.0,0.0,0.0,0.0,0.0,0.0,0.0,0.0,0.0,0.0,0.0,0.0,0.0,0.0,0.0,0.0,0.0,0.0,0.0,0.0,0.0,0.0,0.0,0.0,0.0,0.0,0.0,0.0,0.0,0.0,0.0,0.0,0.0,0.0,0.0,0.0,0.0,0.0,0.0,0.0,0.0,0.0,0.0,0.0,0.0,0.0,0.0,0.0,0.0,0.0,0.0,0.0,0.0,0.0,0.0,0.0,0.0,0.0,0.0,0.0,0.0,0.0,0.0,0.0,0.0,0.0,0.0,0.0,0.0,0.0,0.0,0.0,0.0,0.0,0.0,0.0,0.0,0.0,0.0,0.0,0.0,0.0,0.0,0.0,0.0,0.0,0.0,0.0,0.0,0.0,0.0,0.0,0.0,0.0,0.0,0.0,0.0,0.0,0.0,0.0,0.0,0.0,0.0,0.0,0.0,0.0,0.0,0.0,0.0,0.0,0.0,0.0,0.0,0.0,0.0,0.0,0.0,0.0,0.0,0.0,0.0,0.0,0.0,0.0,0.0,0.0,0.0,0.0,0.0,0.0,0.0,0.0,0.0,0.0,0.0,0.0,0.0,0.0,0.0,0.0,0.0,0.0,0.0,0.0,0.0,0.0,0.0,0.0,0.0,0.0,0.0,0.0,0.0,0.0,0.0,0.0,0.0,0.0,0.0,0.0,0.0,0.0,0.0,0.0,0.0,0.0,0.0,0.0,0.0,0.0,0.0,0.0,0.0,0.0,0.0,0.0,0.0,0.0,0.0,0.0,0.0,0.0,0.0,0.0,0.0,0.0,0.0,0.0,0.0,0.0,0.0,0.0,0.0,0.0,0.0,0.0,0.0,0.0,0.0,0.0,0.0,0.0,0.0,0.0,0.0,0.0,0.0,0.0,0.0,0.0,0.0,0.0,0.0,0.0,0.0,0.0,0.0,0.0,0.0,0.0,0.0,0.0,0.0,0.0,0.0,0.0,0.0,0.0,0.0,0.0,0.0,0.0,0.0,0.0,0.0,0.0,0.0,0.0,0.0,0.0,0.0,0.0,0.0,0.0,0.0,0.0,0.0,0.0,0.0,0.0,0.0,0.0,0.0,0.0,0.0,0.0,0.0,0.0,0.0,0.0,0.0,0.0,0.0,0.0,0.0,0.0,0.0,0.0,0.0,0.0,0.0,0.0,0.0,0.0,0.0,0.0,0.0,0.0,0.0,0.0,0.0,0.0,0.0,0.0,0.0,0.0,0.0,0.0,0.0,0.0,0.0,0.0,0.0,0.0,0.0,0.0,0.0,0.0,0.0,0.0,0.0,0.0,0.0,0.0,0.0,0.0,0.0,0.0,0.0,0.0,0.0,0.0,0.0,0.0,0.0,0.0,0.0,0.0,0.0,0.0,0.0,0.0,0.0,0.0,0.0,0.0,0.0,0.0,0.0,0.0,0.0,0.0,0.0,0.0,0.0,0.0,0.0,0.0,0.0,0.0,0.0,0.0,0.0,0.0,0.0,0.0,0.0,0.0,0.0,0.0,0.0,0.0,0.0,0.0,0.0,0.0,0.0,0.0,0.0,0.0,0.0,0.0,0.0,0.0,0.0,0.0,0.0,0.0,0.0,0.0,0.0,0.0,0.0,0.0,0.0,0.0,0.0,0.0,0.0,0.0,0.0,0.0,0.0,0.0,0.0,0.0,0.0,0.0,0.0,0.0,0.0,0.0,0.0,0.0,0.0,0.0,0.0,0.0,0.0,0.0,0.0,0.0,0.0,0.0,0.0,0.0,0.0,0.0,0.0,0.0,0.0,0.0,0.0,0.0,0.0,0.0,0.0,0.0,0.0,0.0,0.0,0.0,0.0,0.0,0.0,0.0,0.0,0.0,0.0,0.0,0.0,0.0,0.0,0.0,0.0,0.0,0.0,0.0,0.0,0.0,0.0,0.0,0.0,0.0,0.0,0.0,0.0,0.0,0.0,0.0,0.0,0.0,0.0,0.0,0.0,0.0,0.0,0.0,0.0,0.0,0.0,0.0,0.0,0.0,0.0,0.0,0.0,0.0,0.0,0.0,0.0,0.0,0.0,0.0,0.0,0.0,0.0,0.0,0.0,0.0,0.0,0.0,0.0,0.0,0.0,0.0,0.0,0.0,0.0,0.0,0.0,0.0,0.0,0.0,0.0,0.0,0.0,0.0,0.0,0.0,0.0,0.0,0.0,0.0,0.0,0.0,0.0,0.0,0.0,0.0,0.0,0.0,0.0,0.0,0.0,0.0,0.0,0.0,0.0,0.0,0.0,0.0,0.0,0.0,0.0,0.0,0.0,0.0,0.0,0.0,0.0,0.0,0.0,0.0,0.0,0.0,0.0,0.0,0.0,0.0,0.0,0.0,0.0,0.0,0.0,0.0,0.0,0.0,0.0,0.0,0.0,0.0,0.0,0.0,0.0,0.0,0.0,0.0,0.0,0.0,0.0,0.0,0.0,0.0,0.0,0.0,0.0,0.0,0.0,0.0,0.0,0.0,0.0,0.0,0.0,0.0,0.0,0.0,0.0,0.0,0.0,0.0,0.0,0.0,0.0,0.0,0.0,0.0,0.0,0.0,0.0,0.0,0.0,0.0,0.0,0.0,0.0,0.0,0.0,0.0,0.0,0.0,0.0,0.0,0.0,0.0,0.0,0.0,0.0,0.0,0.0,0.0,0.0,0.0,0.0,0.0,0.0,0.0,0.0,0.0,0.0,0.0,0.0,0.0,0.0,0.0,0.0,0.0,0.0,0.0,0.0,0.0,0.0,0.0,0.0,0.0,0.0,0.0,0.0,0.0,0.0,0.0,0.0,0.0,0.0,0.0,0.0,0.0,0.0,0.0,0.0,0.0,0.0,0.0,0.0,0.0,0.0,0.0,0.0,0.0,0.0,0.0,0.0,0.0,0.0,0.0,0.0,0.0,0.0,0.0,0.0,0.0,0.0,0.0,0.0,0.0,0.0,0.0,0.0,0.0,0.0,0.0,0.0,0.0,0.0,0.0,0.0,0.0,0.0,0.0,0.0,0.0,0.0,0.0,0.0,0.0,0.0,0.0,0.0,0.0,0.0,0.0,0.0,0.0,0.0,0.0,0.0,0.0,0.0,0.0,0.0,0.0,0.0,0.0,0.0,0.0,0.0,0.0,0.0,0.0,0.0,0.0,0.0,0.0,0.0,0.0,0.0,0.0,0.0,0.0,0.0,0.0,0.0,0.0,0.0,0.0,0.0,0.0,0.0,0.0,0.0,0.0,0.0,0.0,0.0,0.0,0.0,0.0,0.0,0.0,0.0,0.0,0.0,0.0,0.0,0.0,0.0,0.0,0.0,0.0,0.0,0.0,0.0,0.0,0.0,0.0,0.0,0.0,0.0,0.0,0.0,0.0,0.0,0.0,0.0,0.0,0.0,0.0,0.0,0.0,0.0,0.0,0.0,0.0,0.0,0.0,0.0,0.0,0.0,0.0,0.0,0.0,0.0,0.0,0.0,0.0,0.0,0.0,0.0,0.0,0.0,0.0,0.0,0.0,0.0,0.0,0.0,0.0,0.0,0.0,0.0,0.0,0.0,0.0,0.0,0.0,0.0,0.0,0.0,0.0,0.0,0.0,0.0,0.0,0.0,0.0,0.0,0.0,0.0,0.0,0.0,0.0,0.0,0.0,0.0,-0.2454,0.0,0.0,0.0,0.0,0.0,0.0,0.0,0.0,0.0,0.0,0.0,0.0,0.0,0.0,0.0,0.0,0.0,0.0,0.0,0.0,0.0,0.0,0.0,0.0,0.0,0.0,0.0,0.0,0.0,0.0,0.0,0.0,0.0,0.0,0.0,0.0,0.0,0.0,0.0,0.0,0.0,0.0,0.0,0.0,0.0,0.0,0.0,0.0,0.0,0.0,0.0,0.0,0.0,0.0,0.0,0.0,0.0,0.0,0.0,0.0,0.0,0.0,0.0,0.0,0.0,0.0,0.0,0.0,0.0,0.0,0.0,0.0,0.0,0.0,0.0,0.0,0.0,0.0,0.0,0.0,0.0,0.0,0.0,0.0,0.0,0.0,0.0,0.0,0.0,0.0,0.0,0.0,0.0,0.0,0.0,0.0,0.0,0.0,0.0,0.0,0.0,0.0,0.0,0.0,0.0,0.0,0.0,0.0,0.0,0.0,-0.347,-0.3214,-0.317,-0.311,-0.2935,0.0,0.0,0.0,0.0,0.0,0.0,0.0,0.0,0.0,0.0,0.0,0.0,0.0,0.0,0.0,0.0,0.0,0.0,0.0,0.0,0.0,0.0,0.0,0.0,0.0,0.0,0.0,0.0,0.0,0.0,0.0,0.0,0.0,0.0,0.0,0.0,0.0,0.0,0.0,0.0,0.0,0.0,0.0,0.0,0.0,0.0,0.0,0.0,0.0,0.0,0.0,0.0,0.0,0.0,0.0,0.0,0.0,0.0,0.0,0.0,0.0,0.0,0.0,0.0,0.0,0.0,0.0,0.0,0.0,0.0,0.0,0.0,0.0,0.0,0.0,0.0,0.0,0.0,0.0,0.0,0.0,0.0,0.0,0.0,0.0,0.0,0.0,0.0,0.0,0.0,0.0,0.0,0.0,0.0,0.0,0.0,0.0,0.0,0.0,0.0,0.0,0.0,0.0,0.0,0.0,0.0,0.0,0.0,0.0,0.0,0.0,0.0,-0.3816,-0.3605,-0.3453,0.0,0.0,0.0,0.0,0.0,0.0,0.0,0.0,0.0,0.0,0.0,0.0,0.0,0.0,0.0,0.0,0.0,0.0,0.0,0.0,0.0,0.0,0.0,0.0,0.0,0.0,0.0,0.0,0.0,0.0,0.0,0.0,0.0,0.0,0.0,0.0,0.0,0.0,0.0,0.0,0.0,0.0,0.0,0.0,0.0,0.0,0.0,0.0,0.0,0.0,0.0,0.0,0.0,0.0,0.0,0.0,0.0,0.0,0.0,0.0,0.0,0.0,0.0,0.0,0.0,0.0,0.0,0.0,0.0,0.0,0.0,0.0,0.0,0.0,0.0,0.0,0.0,0.0,0.0,0.0,0.0,0.0,0.0,0.0,0.0,0.0,0.0,0.0,0.0,0.0,0.0,0.0,0.0,0.0,0.0,0.0,0.0,0.0,0.0,0.0,0.0,0.0,0.0,0.0,0.0,0.0,0.0,0.0,0.0,0.0,-0.4645,-0.5132,-0.4364,0.0,-0.3811,0.0,0.0,0.0,0.0,0.0,0.0,0.0,0.0,0.0,0.0,0.0,0.0,0.0,0.0,0.0,0.0,0.0,0.0,0.0,0.0,0.0,0.0,0.0,0.0,0.0,0.0,0.0,0.0,0.0,0.0,0.0,0.0,0.0,0.0,0.0,0.0,0.0,0.0,0.0,0.0,0.0,0.0,0.0,0.0,0.0,0.0,0.0,0.0,0.0,0.0,0.0,0.0,0.0,0.0,0.0,0.0,0.0,0.0,0.0,0.0,0.0,0.0,0.0,0.0,0.0,0.0,0.0,0.0,0.0,0.0,0.0,0.0,0.0,0.0,0.0,0.0,0.0,0.0,0.0,0.0,0.0,0.0,0.0,0.0,0.0,0.0,0.0,0.0,0.0,0.0,0.0,0.0,0.0,0.0,0.0,0.0,0.0,0.0,0.0,0.0,0.0,0.0,0.0,0.0,0.0,0.0,0.0,0.0,0.0,0.0,0.0,-0.5099,-0.4513,-0.4146,0.0,0.0,0.0,0.0,0.0,0.0,0.0,0.0,0.0,0.0,0.0,0.0,0.0,0.0,0.0,0.0,0.0,0.0,0.0,0.0,0.0,0.0,0.0,0.0,0.0,0.0,0.0,0.0,0.0,0.0,0.0,0.0,0.0,0.0,0.0,0.0,0.0,0.0,0.0,0.0,0.0,0.0,0.0,0.0,0.0,0.0,0.0,0.0,0.0,0.0,0.0,0.0,0.0,0.0,0.0,0.0,0.0,0.0,0.0,0.0,0.0,0.0,0.0,0.0,0.0,0.0,0.0,0.0,0.0,0.0,0.0,0.0,0.0,0.0,0.0,0.0,0.0,0.0,0.0,0.0,0.0,0.0,0.0,0.0,0.0,0.0,0.0,0.0,0.0,0.0,0.0,0.0,0.0,0.0,0.0,0.0,0.0,0.0,0.0,0.0,0.0,0.0,0.0,0.0,0.0,0.0,0.0,0.0,0.0,0.0,-0.7025,0.0,-0.5242,-0.4927,-0.4609,-0.4236,0.0,0.0,0.0,0.0,0.0,0.0,0.0,0.0,0.0,0.0,0.0,0.0,0.0,0.0,0.0,0.0,0.0,0.0,0.0,0.0,0.0,0.0,0.0,0.0,0.0,0.0,0.0,0.0,0.0,0.0,0.0,0.0,0.0,0.0,0.0,0.0,0.0,0.0,0.0,0.0,0.0,0.0,0.0,0.0,0.0,0.0,0.0,0.0,0.0,0.0,0.0,0.0,0.0,0.0,0.0,0.0,0.0,0.0,0.0,0.0,0.0,0.0,0.0,0.0,0.0,0.0,0.0,0.0,0.0,0.0,0.0,0.0,0.0,0.0,0.0,0.0,0.0,0.0,0.0,0.0,0.0,0.0,0.0,0.0,0.0,0.0,0.0,0.0,0.0,0.0,0.0,0.0,0.0,0.0,0.0,0.0,0.0,0.0,0.0,0.0,0.0,0.0,0.0,0.0,0.0,0.0,0.0,0.0,0.0,-0.7635,-0.6684,-0.5842,-0.5738,-0.5285,0.0,0.0,0.0,0.0,0.0,0.0,0.0,0.0,0.0,0.0,0.0,0.0,0.0,0.0,0.0,0.0,0.0,0.0,0.0,0.0,0.0,0.0,0.0,0.0,0.0,0.0,0.0,0.0,0.0,0.0,0.0,0.0,0.0,0.0,0.0,0.0,0.0,0.0,0.0,0.0,0.0,0.0,0.0,0.0,0.0,0.0,0.0,0.0,0.0,0.0,0.0,0.0,0.0,0.0,0.0,0.0,0.0,0.0,0.0,0.0,0.0,0.0,0.0,0.0,0.0,0.0,0.0,0.0,0.0,0.0,0.0,0.0,0.0,0.0,0.0,0.0,0.0,0.0,0.0,0.0,0.0,0.0,0.0,0.0,0.0,0.0,0.0,0.0,0.0,0.0,0.0,0.0,0.0,0.0,0.0,0.0,0.0,0.0,0.0,0.0,0.0,0.0,0.0,0.0,0.0,0.0,0.0,0.0,0.0,-0.7603,-0.7055,-0.6991,-0.7389,-0.6339,-0.5716,0.0,0.0,0.0,0.0,0.0,0.0,0.0,0.0,0.0,0.0,0.0,0.0,0.0,0.0,0.0,0.0,0.0,0.0,0.0,0.0,0.0,0.0,0.0,0.0,0.0,0.0,0.0,0.0,0.0,0.0,0.0,0.0,0.0,0.0,0.0,0.0,0.0,0.0,0.0,0.0,0.0,0.0,0.0,0.0,0.0,0.0,0.0,0.0,0.0,0.0,0.0,0.0,0.0,0.0,0.0,0.0,0.0,0.0,0.0,0.0,0.0,0.0,0.0,0.0,0.0,0.0,0.0,0.0,0.0,0.0,0.0,0.0,0.0,0.0,0.0,0.0,0.0,0.0,0.0,0.0,0.0,0.0,0.0,0.0,0.0,0.0,0.0,0.0,0.0,0.0,0.0,0.0,0.0,0.0,0.0,0.0,0.0,0.0,0.0,0.0,0.0,0.0,0.0,0.0,0.0,0.0,0.0,0.0,0.0,-0.755,0.0,-0.7641,0.0,-0.6988,-0.6242,0.0,0.0,0.0,0.0,0.0,0.0,0.0,0.0,0.0,0.0,0.0,0.0,0.0,0.0,0.0,0.0,0.0,0.0,0.0,0.0,0.0,0.0,0.0,0.0,0.0,0.0,0.0,0.0,0.0,0.0,0.0,0.0,0.0,0.0,0.0,0.0,0.0,0.0,0.0,0.0,0.0,0.0,0.0,0.0,0.0,0.0,0.0,0.0,0.0,0.0,0.0,0.0,0.0,0.0,0.0,0.0,0.0,0.0,0.0,0.0,0.0,0.0,0.0,0.0,0.0,0.0,0.0,0.0,0.0,0.0,0.0,0.0,0.0,0.0,0.0,0.0,0.0,0.0,0.0,0.0,0.0,0.0,0.0,0.0,0.0,0.0,0.0,0.0,0.0,0.0,0.0,0.0,0.0,0.0,0.0,0.0,0.0,0.0,0.0,0.0,0.0,0.0,0.0,0.0,0.0,0.0,0.0,0.0,-0.7609,-0.8678,-0.8727,-0.8464,-0.7961,-0.7629,-0.68,0.0,0.0,0.0,0.0,0.0,0.0,0.0,0.0,0.0,0.0,0.0,0.0,0.0,0.0,0.0,0.0,0.0,0.0,0.0,0.0,0.0,0.0,0.0,0.0,0.0,0.0,0.0,0.0,0.0,0.0,0.0,0.0,0.0,0.0,0.0,0.0,0.0,0.0,0.0,0.0,0.0,0.0,0.0,0.0,0.0,0.0,0.0,0.0,0.0,0.0,0.0,0.0,0.0,0.0,0.0,0.0,0.0,0.0,0.0,0.0,0.0,0.0,0.0,0.0,0.0,0.0,0.0,0.0,0.0,0.0,0.0,0.0,0.0,0.0,0.0,0.0,0.0,0.0,0.0,0.0,0.0,0.0,0.0,0.0,0.0,0.0,0.0,0.0,0.0,0.0,0.0,0.0,0.0,0.0,0.0,0.0,0.0,0.0,0.0,0.0,0.0,0.0,0.0,0.0,0.0,0.0,0.0,0.0,0.0,-0.8203,-0.8416,-0.8762,-0.9052,-0.7824,-0.7148,0.0,0.0,0.0,0.0,0.0,0.0,0.0,0.0,0.0,0.0,0.0,0.0,0.0,0.0,0.0,0.0,0.0,0.0,0.0,0.0,0.0,0.0,0.0,0.0,0.0,0.0,0.0,0.0,0.0,0.0,0.0,0.0,0.0,0.0,0.0,0.0,0.0,0.0,0.0,0.0,0.0,0.0,0.0,0.0,0.0,0.0,0.0,0.0,0.0,0.0,0.0,0.0,0.0,0.0,0.0,0.0,0.0,0.0,0.0,0.0,0.0,0.0,0.0,0.0,0.0,0.0,0.0,0.0,0.0,0.0,0.0,0.0,0.0,0.0,0.0,0.0,0.0,0.0,0.0,0.0,0.0,0.0,0.0,0.0,0.0,0.0,0.0,0.0,0.0,0.0,0.0,0.0,0.0,0.0,0.0,0.0,0.0,0.0,0.0,0.0,0.0,0.0,0.0,0.0,0.0,0.0,0.0,0.0,0.0,-0.8611,-0.8978,-0.9339,-0.9673,-0.8383,-0.7747,-0.7892,0.0,0.0,0.0,0.0,0.0,0.0,0.0,0.0,0.0,0.0,0.0,0.0,0.0,0.0,0.0,0.0,0.0,0.0,0.0,0.0,0.0,0.0,0.0,0.0,0.0,0.0,0.0,0.0,0.0,0.0,0.0,0.0,0.0,0.0,0.0,0.0,0.0,0.0,0.0,0.0,0.0,0.0,0.0,0.0,0.0,0.0,0.0,0.0,0.0,0.0,0.0,0.0,0.0,0.0,0.0,0.0,0.0,0.0,0.0,0.0,0.0,0.0,0.0,0.0,0.0,0.0,0.0,0.0,0.0,0.0,0.0,0.0,0.0,0.0,0.0,0.0,0.0,0.0,0.0,0.0,0.0,0.0,0.0,0.0,0.0,0.0,0.0,0.0,0.0,0.0,0.0,0.0,0.0,0.0,0.0,0.0,0.0,0.0,0.0,0.0,0.0,0.0,0.0,0.0,0.0,0.0,0.0,0.0,-0.9784,-1.0301,-1.0334,-0.978,-0.9207,-0.8587,0.0,0.0,0.0,0.0,0.0,0.0,0.0,0.0,0.0,0.0,0.0,0.0,0.0,0.0,0.0,0.0,0.0,0.0,0.0,0.0,0.0,0.0,0.0,0.0,0.0,0.0,0.0,0.0,0.0,0.0,0.0,0.0,0.0,0.0,0.0,0.0,0.0,0.0,0.0,0.0,0.0,0.0,0.0,0.0,0.0,0.0,0.0,0.0,0.0,0.0,0.0,0.0,0.0,0.0,0.0,0.0,0.0,0.0,0.0,0.0,0.0,0.0,0.0,0.0,0.0,0.0,0.0,0.0,0.0,0.0,0.0,0.0,0.0,0.0,0.0,0.0,0.0,0.0,0.0,0.0,0.0,0.0,0.0,0.0,0.0,0.0,0.0,0.0,0.0,0.0,0.0,0.0,0.0,0.0,0.0,0.0,0.0,0.0,0.0,0.0,0.0,0.0,0.0,0.0,0.0,0.0,0.0,0.0,0.0,-1.0389,-1.0902,-1.1022,-1.0641,-1.0164,-0.9599,0.0,0.0,0.0,0.0,0.0,0.0,0.0,0.0,0.0,0.0,0.0,0.0,0.0,0.0,0.0,0.0,0.0,0.0,0.0,0.0,0.0,0.0,0.0,0.0,0.0,0.0,0.0,0.0,0.0,0.0,0.0,0.0,0.0,0.0,0.0,0.0,0.0,0.0,0.0,0.0,0.0,0.0,0.0,0.0,0.0,0.0,0.0,0.0,0.0,0.0,0.0,0.0,0.0,0.0,0.0,0.0,0.0,0.0,0.0,0.0,0.0,0.0,0.0,0.0,0.0,0.0,0.0,0.0,0.0,0.0,0.0,0.0,0.0,0.0,0.0,0.0,0.0,0.0,0.0,0.0,0.0,0.0,0.0,0.0,0.0,0.0,0.0,0.0,0.0,0.0,0.0,0.0,0.0,0.0,0.0,0.0,0.0,0.0,0.0,0.0,0.0,0.0,0.0,0.0,0.0,0.0,0.0,0.0,-1.0912,-1.1862,-1.2166,-1.2344,-1.2292,-1.1405,-1.0474,0.0,0.0,0.0,0.0,0.0,0.0,0.0,0.0,0.0,0.0,0.0,0.0,0.0,0.0,0.0,0.0,0.0,0.0,0.0,0.0,0.0,0.0,0.0,0.0,0.0,0.0,0.0,0.0,0.0,0.0,0.0,0.0,0.0,0.0,0.0,0.0,0.0,0.0,0.0,0.0,0.0,0.0,0.0,0.0,0.0,0.0,0.0,0.0,0.0,0.0,0.0,0.0,0.0,0.0,0.0,0.0,0.0,0.0,0.0,0.0,0.0,0.0,0.0,0.0,0.0,0.0,0.0,0.0,0.0,0.0,0.0,0.0,0.0,0.0,0.0,0.0,0.0,0.0,0.0,0.0,0.0,0.0,0.0,0.0,0.0,0.0,0.0,0.0,0.0,0.0,0.0,0.0,0.0,0.0,0.0,0.0,0.0,0.0,0.0,0.0,0.0,0.0,0.0,0.0,0.0,0.0,0.0,0.0,-1.2232,-1.3529,-1.3785,-1.3917,-1.404,-1.2688,-1.138,0.0,0.0,0.0,0.0,0.0,0.0,0.0,0.0,0.0,0.0,0.0,0.0,0.0,0.0,0.0,0.0,0.0,0.0,0.0,0.0,0.0,0.0,0.0,0.0,0.0,0.0,0.0,0.0,0.0,0.0,0.0,0.0,0.0,0.0,0.0,0.0,0.0,0.0,0.0,0.0,0.0,0.0,0.0,0.0,0.0,0.0,0.0,0.0,0.0,0.0,0.0,0.0,0.0,0.0,0.0,0.0,0.0,0.0,0.0,0.0,0.0,0.0,0.0,0.0,0.0,0.0,0.0,0.0,0.0,0.0,0.0,0.0,0.0,0.0,0.0,0.0,0.0,0.0,0.0,0.0,0.0,0.0,0.0,0.0,0.0,0.0,0.0,0.0,0.0,0.0,0.0,0.0,0.0,0.0,0.0,0.0,0.0,0.0,0.0,0.0,0.0,0.0,0.0,0.0,0.0,0.0,0.0,0.0,-1.2468,-1.3537,-1.4465,-1.4608,-1.4098,-1.3003,-1.2248,0.0,0.0,0.0,0.0,0.0,0.0,0.0,0.0,0.0,0.0,0.0,0.0,0.0,0.0,0.0,0.0,0.0,0.0,0.0,0.0,0.0,0.0,0.0,0.0,0.0,0.0,0.0,0.0,0.0,0.0,0.0,0.0,0.0,0.0,0.0,0.0,0.0,0.0,0.0,0.0,0.0,0.0,0.0,0.0,0.0,0.0,0.0,0.0,-0.8278,0.0,0.0,0.0,0.0,0.0,0.0,0.0,0.0,0.0,0.0,0.0,0.0,0.0,0.0,0.0,0.0,0.0,0.0,0.0,0.0,0.0,0.0,0.0,0.0,0.0,0.0,0.0,0.0,0.0,0.0,0.0,0.0,0.0,0.0,0.0,0.0,0.0,0.0,0.0,0.0,0.0,0.0,0.0,0.0,0.0,0.0,0.0,0.0,0.0,0.0,0.0,0.0,0.0,0.0,0.0,0.0,0.0,0.0,0.0,-1.3442,-1.5016,-1.5329,-1.546,-1.5274,-1.3778,-1.264,0.0,0.0,0.0,0.0,0.0,0.0,0.0,0.0,0.0,0.0,0.0,0.0,0.0,0.0,0.0,0.0,0.0,0.0,0.0,0.0,0.0,0.0,0.0,0.0,0.0,0.0,0.0,0.0,0.0,0.0,0.0,0.0,0.0,0.0,0.0,0.0,0.0,0.0,0.0,0.0,0.0,0.0,0.0,0.0,0.0,0.0,0.0,0.0,0.0,0.0,0.0,0.0,0.0,0.0,0.0,0.0,0.0,0.0,0.0,0.0,0.0,0.0,0.0,0.0,0.0,0.0,0.0,0.0,0.0,0.0,0.0,0.0,0.0,0.0,0.0,0.0,0.0,0.0,0.0,0.0,0.0,0.0,0.0,0.0,0.0,0.0,0.0,0.0,0.0,0.0,0.0,0.0,0.0,0.0,0.0,0.0,0.0,0.0,0.0,0.0,0.0,0.0,0.0,0.0,0.0,0.0,0.0,-1.2807,-1.4326,-1.6466,-1.6225,-1.6235,-1.6558,-1.4647,-1.3059,-1.1868,0.0,0.0,0.0,0.0,0.0,0.0,0.0,0.0,0.0,0.0,0.0,0.0,0.0,0.0,0.0,0.0,0.0,0.0,0.0,0.0,0.0,0.0,0.0,0.0,0.0,0.0,0.0,0.0,0.0,0.0,0.0,0.0,0.0,0.0,0.0,0.0,0.0,0.0,-1.1803,-1.2818,0.0,0.0,0.0,0.0,0.0,0.0,0.0,0.0,-1.1172,0.0,0.0,0.0,0.0,0.0,0.0,0.0,0.0,0.0,0.0,0.0,0.0,0.0,0.0,0.0,0.0,0.0,0.0,0.0,0.0,0.0,0.0,0.0,0.0,0.0,0.0,0.0,0.0,0.0,0.0,0.0,0.0,0.0,0.0,0.0,0.0,0.0,0.0,0.0,0.0,0.0,0.0,0.0,0.0,0.0,0.0,0.0,0.0,0.0,0.0,0.0,0.0,0.0,0.0,0.0,0.0,-1.1713,-1.2206,-1.3714,-1.6143,-1.6413,-1.6432,-1.6162,-1.5148,-1.3955,-1.2705,0.0,0.0,0.0,0.0,0.0,0.0,0.0,0.0,0.0,0.0,0.0,0.0,0.0,0.0,0.0,0.0,0.0,0.0,0.0,0.0,0.0,0.0,0.0,0.0,0.0,0.0,0.0,0.0,0.0,0.0,0.0,0.0,0.0,0.0,0.0,0.0,0.0,0.0,0.0,-1.4809,-1.5123,0.0,0.0,0.0,0.0,0.0,0.0,0.0,0.0,-1.1837,0.0,0.0,0.0,0.0,0.0,0.0,0.0,0.0,0.0,0.0,0.0,0.0,0.0,0.0,0.0,0.0,0.0,0.0,0.0,0.0,0.0,0.0,0.0,0.0,0.0,0.0,0.0,0.0,0.0,0.0,0.0,0.0,0.0,0.0,0.0,0.0,0.0,0.0,0.0,0.0,0.0,0.0,0.0,0.0,0.0,0.0,0.0,0.0,0.0,0.0,0.0,0.0,0.0,0.0,0.0,-1.1362,-1.248,-1.4057,-1.6025,-1.6269,-1.6289,-1.6105,-1.4805,-1.3721,0.0,0.0,0.0,0.0,0.0,0.0,0.0,0.0,0.0,0.0,0.0,0.0,0.0,0.0,0.0,0.0,0.0,0.0,0.0,0.0,0.0,0.0,0.0,0.0,0.0,0.0,0.0,0.0,0.0,0.0,0.0,0.0,0.0,0.0,0.0,0.0,0.0,0.0,0.0,0.0,-1.5903,-1.5898,-1.5799,0.0,0.0,0.0,0.0,0.0,0.0,-1.3211,-1.334,0.0,0.0,0.0,0.0,0.0,0.0,0.0,0.0,0.0,0.0,0.0,0.0,0.0,0.0,0.0,0.0,0.0,0.0,0.0,0.0,0.0,0.0,0.0,0.0,0.0,0.0,0.0,0.0,0.0,0.0,0.0,0.0,0.0,0.0,0.0,0.0,0.0,0.0,0.0,0.0,0.0,0.0,0.0,0.0,0.0,0.0,0.0,0.0,0.0,0.0,0.0,0.0,0.0,0.0,0.0,-1.134,-1.2806,-1.4344,-1.5879,-1.5988,-1.5928,-1.5908,-1.4443,-1.3359,0.0,0.0,0.0,0.0,0.0,0.0,0.0,0.0,0.0,0.0,0.0,0.0,0.0,0.0,0.0,0.0,0.0,0.0,0.0,0.0,0.0,0.0,0.0,0.0,0.0,0.0,0.0,0.0,0.0,0.0,0.0,0.0,0.0,0.0,0.0,0.0,0.0,0.0,0.0,0.0,0.0,-1.6559,-1.6655,-1.582,0.0,0.0,0.0,0.0,-1.4416,-1.4856,0.0,0.0,0.0,0.0,0.0,0.0,0.0,0.0,0.0,0.0,0.0,0.0,0.0,0.0,0.0,0.0,0.0,0.0,0.0,0.0,0.0,0.0,0.0,0.0,0.0,0.0,0.0,0.0,0.0,0.0,0.0,0.0,0.0,0.0,0.0,0.0,0.0,0.0,0.0,0.0,0.0,0.0,0.0,0.0,0.0,0.0,0.0,0.0,0.0,0.0,0.0,0.0,0.0,0.0,0.0,0.0,-1.1787,-1.2544,-1.3697,-1.5362,-1.5488,-1.5488,-1.5478,-1.4561,-1.3455,0.0,0.0,0.0,0.0,0.0,0.0,0.0,0.0,0.0,0.0,0.0,0.0,0.0,0.0,0.0,0.0,0.0,0.0,0.0,0.0,0.0,0.0,0.0,0.0,0.0,0.0,0.0,0.0,0.0,0.0,0.0,0.0,0.0,0.0,0.0,0.0,0.0,0.0,0.0,0.0,0.0,-1.7694,-1.7112,-1.6218,-1.5529,0.0,0.0,-1.5429,-1.6034,-1.6666,0.0,0.0,0.0,0.0,0.0,0.0,0.0,0.0,0.0,0.0,0.0,0.0,0.0,0.0,0.0,0.0,0.0,0.0,0.0,0.0,0.0,0.0,0.0,0.0,0.0,0.0,0.0,0.0,0.0,0.0,0.0,0.0,0.0,0.0,0.0,0.0,0.0,0.0,0.0,0.0,0.0,0.0,0.0,0.0,0.0,0.0,0.0,0.0,0.0,0.0,0.0,0.0,0.0,0.0,0.0,-0.9723,-1.1616,-1.287,-1.3968,-1.5029,-1.5283,-1.5293,-1.5059,-1.4228,-1.3174,0.0,0.0,0.0,0.0,0.0,0.0,0.0,0.0,0.0,0.0,0.0,0.0,0.0,0.0,0.0,0.0,0.0,0.0,0.0,0.0,0.0,0.0,0.0,0.0,0.0,0.0,0.0,0.0,0.0,0.0,0.0,0.0,0.0,0.0,0.0,0.0,0.0,0.0,0.0,0.0,0.0,0.0,-1.7611,-1.705,0.0,0.0,0.0,-1.7699,-1.8382,0.0,0.0,0.0,0.0,0.0,0.0,0.0,0.0,0.0,0.0,0.0,0.0,0.0,0.0,0.0,0.0,0.0,0.0,0.0,0.0,0.0,0.0,0.0,0.0,0.0,0.0,0.0,0.0,0.0,0.0,0.0,0.0,0.0,0.0,0.0,0.0,0.0,0.0,0.0,0.0,0.0,0.0,0.0,0.0,0.0,0.0,0.0,0.0,0.0,0.0,0.0,0.0,0.0,0.0,0.0,0.0,0.0,-1.1565,-1.3263,-1.4297,-1.4619,-1.5039,-1.5049,-1.4629,-1.3896,0.0,0.0,0.0,0.0,0.0,0.0,0.0,0.0,0.0,0.0,0.0,0.0,0.0,0.0,0.0,0.0,0.0,0.0,0.0,0.0,0.0,0.0,0.0,0.0,0.0,0.0,0.0,-0.704,0.0,0.0,0.0,0.0,0.0,0.0,0.0,0.0,0.0,0.0,0.0,0.0,0.0,0.0,-1.7144,-1.8177,-1.8126,-1.8202,0.0,0.0,-1.9544,-1.9978,-2.0288,-1.9884,0.0,0.0,0.0,0.0,0.0,0.0,0.0,0.0,0.0,0.0,0.0,0.0,0.0,0.0,0.0,0.0,0.0,0.0,0.0,0.0,0.0,0.0,0.0,0.0,0.0,0.0,0.0,0.0,0.0,0.0,0.0,0.0,0.0,0.0,0.0,0.0,0.0,0.0,0.0,0.0,0.0,0.0,0.0,0.0,0.0,0.0,0.0,0.0,0.0,0.0,0.0,0.0,0.0,0.0,0.0,-1.2124,-1.3435,-1.4087,-1.4189,-1.4609,-1.4629,-1.4126,-1.3688,-1.2705,0.0,0.0,0.0,0.0,0.0,0.0,0.0,0.0,0.0,0.0,0.0,0.0,0.0,0.0,0.0,0.0,0.0,0.0,0.0,0.0,0.0,0.0,0.0,0.0,0.0,0.0,0.0,0.0,0.0,0.0,0.0,0.0,0.0,0.0,0.0,0.0,0.0,0.0,0.0,0.0,0.0,-1.8717,-1.8841,-1.9471,-1.9918,0.0,0.0,-2.0564,-1.9996,-2.0867,-2.0905,-1.8966,0.0,0.0,0.0,0.0,0.0,0.0,0.0,0.0,0.0,0.0,0.0,0.0,0.0,0.0,0.0,0.0,0.0,0.0,0.0,0.0,0.0,0.0,0.0,0.0,0.0,0.0,0.0,0.0,0.0,0.0,0.0,0.0,0.0,0.0,0.0,0.0,0.0,0.0,0.0,0.0,0.0,0.0,0.0,0.0,0.0,0.0,0.0,0.0,0.0,0.0,0.0,0.0,0.0,-1.0358,-1.1807,-1.3096,-1.374,-1.376,-1.416,-1.4189,-1.376,-1.3594,-1.2686,0.0,0.0,0.0,0.0,0.0,0.0,0.0,0.0,0.0,0.0,0.0,0.0,0.0,0.0,0.0,0.0,0.0,0.0,0.0,0.0,0.0,0.0,0.0,0.0,0.0,0.0,0.0,0.0,-0.8449,-0.8752,-0.951,0.0,0.0,0.0,0.0,0.0,0.0,0.0,0.0,0.0,0.0,-1.9037,-1.944,-2.0124,0.0,0.0,-2.1643,-2.2027,-2.1999,-2.2039,-2.1622,-2.0304,-1.9893,0.0,0.0,0.0,0.0,0.0,0.0,0.0,0.0,0.0,0.0,0.0,0.0,0.0,0.0,0.0,0.0,0.0,0.0,0.0,0.0,0.0,0.0,0.0,0.0,0.0,0.0,0.0,0.0,0.0,0.0,0.0,0.0,0.0,0.0,0.0,0.0,0.0,0.0,0.0,0.0,0.0,0.0,0.0,0.0,0.0,0.0,0.0,0.0,0.0,0.0,0.0,0.0,-1.04,-1.1596,-1.2852,-1.3447,-1.333,-1.373,-1.375,-1.334,-1.332,-1.2627,0.0,0.0,0.0,0.0,0.0,0.0,0.0,0.0,0.0,0.0,0.0,0.0,0.0,0.0,0.0,0.0,0.0,0.0,0.0,0.0,0.0,0.0,0.0,0.0,0.0,0.0,0.0,0.0,-0.9171,-0.9388,-0.983,0.0,0.0,0.0,0.0,0.0,0.0,0.0,0.0,0.0,0.0,-1.9671,-2.0327,-2.1155,-2.1883,-2.2322,-2.2577,-2.2798,-2.2994,-2.2624,-2.202,-2.1166,0.0,0.0,0.0,0.0,0.0,0.0,0.0,0.0,0.0,0.0,0.0,0.0,0.0,0.0,0.0,0.0,0.0,0.0,0.0,0.0,0.0,0.0,0.0,0.0,0.0,0.0,0.0,0.0,0.0,0.0,-0.5316,0.0,0.0,0.0,0.0,0.0,0.0,0.0,0.0,0.0,0.0,0.0,0.0,0.0,0.0,0.0,0.0,0.0,0.0,0.0,0.0,0.0,0.0,-1.0724,-1.1596,-1.2822,-1.3301,-1.293,-1.3311,-1.332,-1.293,-1.29,-1.2518,-1.1596,0.0,0.0,0.0,0.0,0.0,0.0,0.0,0.0,0.0,0.0,0.0,0.0,0.0,0.0,0.0,0.0,0.0,0.0,0.0,0.0,0.0,0.0,0.0,0.0,0.0,0.0,-0.8987,-0.9275,-0.9249,0.0,0.0,0.0,0.0,0.0,0.0,0.0,0.0,0.0,0.0,-1.94,-2.0932,-2.1575,-2.2742,-2.3548,-2.355,-2.3113,-2.2662,-2.2447,-2.239,-2.2077,0.0,0.0,0.0,0.0,0.0,0.0,0.0,0.0,0.0,0.0,0.0,0.0,0.0,0.0,0.0,0.0,0.0,0.0,0.0,0.0,0.0,0.0,0.0,0.0,0.0,0.0,0.0,-0.6434,-0.6273,0.0,0.0,0.0,0.0,0.0,0.0,0.0,0.0,0.0,0.0,0.0,-0.7943,-0.8267,0.0,0.0,0.0,0.0,0.0,0.0,0.0,0.0,0.0,0.0,0.0,0.0,-1.042,-1.1587,-1.2568,-1.3018,-1.2891,-1.3018,-1.3027,-1.2891,-1.2891,-1.2334,-1.1162,0.0,0.0,0.0,0.0,0.0,0.0,0.0,0.0,0.0,0.0,0.0,0.0,0.0,0.0,0.0,0.0,0.0,0.0,0.0,0.0,0.0,0.0,0.0,0.0,0.0,-0.8495,0.0,0.0,0.0,0.0,0.0,0.0,0.0,0.0,0.0,0.0,0.0,-1.7401,-1.8268,-2.0375,-2.1903,-2.2133,-2.36,-2.4672,0.0,0.0,0.0,0.0,0.0,0.0,0.0,0.0,0.0,0.0,0.0,0.0,0.0,0.0,-2.0642,-1.8245,-1.7446,-1.7525,-1.8637,0.0,0.0,0.0,0.0,0.0,0.0,0.0,0.0,0.0,0.0,0.0,0.0,0.0,0.0,-0.7134,0.0,-0.6787,0.0,0.0,0.0,0.0,0.0,0.0,0.0,0.0,-0.8404,-0.8731,-0.8838,-0.9212,-0.9145,0.0,-0.8477,-0.7882,0.0,0.0,0.0,0.0,0.0,0.0,0.0,0.0,-1.0645,-1.1822,-1.2557,-1.2891,-1.2891,-1.2891,-1.2891,-1.2891,-1.2891,-1.2402,-1.1406,-1.0686,-0.985,0.0,0.0,0.0,0.0,0.0,0.0,0.0,0.0,0.0,0.0,0.0,0.0,0.0,0.0,0.0,0.0,0.0,0.0,0.0,0.0,0.0,0.0,0.0,-0.9139,0.0,0.0,0.0,0.0,0.0,0.0,0.0,0.0,0.0,-1.6803,-1.773,-1.8786,-1.9834,-2.1578,-2.2829,-2.3001,0.0,0.0,0.0,0.0,0.0,0.0,0.0,-2.4249,-2.4447,-2.4306,-2.4222,-2.4489,-2.4523,-2.4354,-2.3896,0.0,0.0,-1.9996,-1.947,-1.97,-2.056,-2.077,-2.1084,-2.1777,-2.2039,-2.208,0.0,0.0,0.0,0.0,0.0,0.0,0.0,0.0,-0.7352,-0.7616,0.0,-0.757,0.0,0.0,0.0,0.0,0.0,-0.7555,0.0,0.0,-0.9005,-0.9426,-0.9673,-0.9706,-0.9552,-0.921,-0.9239,-0.8931,-0.838,-0.7509,0.0,0.0,0.0,0.0,0.0,0.0,-1.1314,-1.2151,-1.2656,-1.2891,-1.2891,-1.2891,-1.2891,-1.2891,-1.2891,-1.2656,-1.2151,-1.1357,-1.0527,-0.9612,-0.8651,0.0,0.0,0.0,0.0,0.0,0.0,0.0,0.0,0.0,0.0,0.0,0.0,0.0,0.0,0.0,0.0,0.0,0.0,0.0,0.0,-0.8875,0.0,0.0,0.0,0.0,0.0,0.0,0.0,0.0,0.0,0.0,-1.8736,-1.9351,-2.0388,-2.2121,0.0,0.0,0.0,0.0,-2.5259,-2.5259,-2.4719,-2.443,-2.482,-2.4959,-2.493,-2.4664,0.0,0.0,-2.4709,-2.456,-2.4608,-2.4557,-2.3951,-2.3272,-2.279,-2.2062,-2.1923,-2.2894,-2.2801,-2.2903,-2.3518,-2.3773,-2.3946,-0.5815,0.0,0.0,0.0,0.0,-0.7735,-0.7529,-0.7084,-0.7184,-0.7382,-0.758,-0.7368,0.0,0.0,0.0,0.0,0.0,0.0,-0.8824,-0.9319,-0.9699,-0.9907,-1.0,-1.0207,-1.0047,-0.9566,-0.9559,-0.9259,-0.8684,-0.8437,-0.8102,-0.7761,0.0,0.0,0.0,0.0,-1.166,-1.2227,-1.2666,-1.2891,-1.2891,-1.2891,-1.2891,-1.2891,-1.2891,-1.2529,-1.1777,-1.1547,-1.084,-0.9641,-0.89,0.0,0.0,0.0,0.0,0.0,0.0,0.0,0.0,0.0,0.0,0.0,0.0,0.0,0.0,0.0,0.0,0.0,0.0,0.0,-0.8814,-0.8747,-0.9404,0.0,0.0,0.0,0.0,0.0,0.0,0.0,0.0,0.0,-2.1121,-2.1116,-2.1342,0.0,0.0,-2.4577,-2.4734,-2.5624,-2.628,-2.6264,-2.6097,0.0,0.0,-2.5748,-2.558,-2.5998,-2.6251,-2.6302,-2.6082,-2.6065,-2.5879,-2.5389,-2.4678,-2.4122,-2.3915,-2.3266,-2.2935,-2.3307,-2.3584,-2.3781,-2.4001,-2.4133,-2.417,-0.6024,-0.6791,-0.6453,-0.6862,-0.7553,-0.7611,-0.7406,-0.7126,-0.7126,-0.7252,-0.7472,-0.7332,-0.7272,-0.7351,-0.7334,0.0,0.0,0.0,-0.9406,-0.9866,-1.004,-1.018,-1.0287,-1.0361,-1.02,-0.9853,-0.9613,-0.9325,-0.8924,-0.8864,-0.8491,-0.7951,0.0,0.0,-1.0191,-1.1006,-1.1794,-1.2433,-1.2744,-1.2891,-1.2891,-1.2891,-1.2891,-1.2881,-1.2715,-1.2363,-1.1846,-1.1484,-1.0947,-1.0166,-0.9447,-0.868,0.0,0.0,0.0,0.0,0.0,0.0,0.0,0.0,0.0,0.0,0.0,-0.8022,-0.7344,0.0,0.0,0.0,-0.8595,-0.937,-1.0539,-1.0678,0.0,0.0,0.0,0.0,0.0,0.0,0.0,-1.8403,-1.9632,-2.0987,-2.2561,-2.2848,-2.3115,-2.375,-2.4723,-2.5458,-2.5647,0.0,-2.6708,-2.6708,-2.6708,-2.6708,-2.6691,-2.6319,-2.6201,-2.6623,-2.6708,-2.6708,-2.6708,-2.6708,-2.6539,-2.6082,-2.5423,-2.4791,-2.4266,-2.3786,-2.3569,-2.3732,-2.3994,-2.4189,-2.419,-2.419,-2.417,-0.5999,-0.6584,-0.6133,-0.6415,-0.7055,-0.7055,-0.7055,-0.6995,-0.694,-0.7091,-0.7379,-0.7374,-0.7262,-0.7166,-0.76,0.0,-0.9207,-0.9477,-0.9807,-1.0154,-1.0147,-1.0294,-1.0604,-1.0261,-1.0107,-1.0067,-0.9455,-0.9176,-0.913,-0.8938,-0.8671,-0.8467,-0.8941,-0.9841,-1.1104,-1.1264,-1.1864,-1.2861,-1.2881,-1.2891,-1.2891,-1.2891,-1.2861,-1.2822,-1.2441,-1.2151,-1.2064,-1.1348,-1.0879,-1.0781,-0.9991,-0.9199,-0.8422,0.0,0.0,0.0,0.0,0.0,0.0,0.0,0.0,0.0,0.0,0.0,0.0,0.0,0.0,0.0,-1.1036,0.0,-1.2609,-1.3789,0.0,0.0,0.0,-1.6189,-1.6876,-1.7473,-1.8373,-1.9687,0.0,0.0,-2.3366,-2.443,-2.534,-2.595,-2.6049,-2.6227,-2.6624,-2.6691,-2.6708,-2.6708,-2.6708,-2.6708,-2.6708,-2.6657,-2.664,-2.6691,-2.6708,-2.6708,-2.6708,-2.6708,-2.6708,-2.6657,-2.6099,-2.5272,-2.4132,-2.4013,-2.4007,-2.4029,-2.4103,-2.417,-2.419,-2.417,-2.4054,-0.5912,-0.5866,-0.5727,-0.6145,-0.6779,-0.6779,-0.6403,-0.583,-0.5834,-0.6097,-0.6505,-0.6505,-0.6709,-0.7116,-0.7244,-0.7903,-0.892,-0.8987,-0.9536,-1.0448,-1.0454,-1.0494,-1.0541,-1.0254,-1.0,-0.9773,-0.9362,-0.907,-0.8918,-0.8838,-0.8771,-0.8704,-0.8854,-0.9474,-1.0598,-1.1851,-1.2609,-1.2891,-1.2891,-1.2891,-1.2891,-1.2891,-1.2725,-1.2393,-1.2239,-1.1869,-1.125,-1.1025,-1.0605,-0.9923,-0.9398,-0.8892,-0.8344,-0.7633,0.0,0.0,0.0,0.0,0.0,0.0,0.0,0.0,0.0,-1.016,-0.8632,0.0,-1.0865,0.0,-1.2526,-1.3525,-1.4191,-1.4549,0.0,0.0,-1.7251,-1.7715,-1.8852,-1.9121,-1.9703,-2.0916,-2.1724,-2.2807,-2.4444,-2.5297,-2.594,-2.6437,-2.6505,-2.6573,-2.6691,-2.6708,-2.6708,-2.6708,-2.6708,-2.6708,-2.6708,-2.6708,-2.6708,-2.6708,-2.6708,-2.6708,-2.6708,-2.6708,-2.6708,-2.6657,-2.6099,-2.5458,-2.4955,-2.4787,-2.4337,-2.3493,-2.3531,-2.3896,-2.4151,-2.3996,-2.3795,-0.5857,-0.5593,-0.5589,-0.5766,-0.6137,-0.6141,-0.5881,-0.5428,-0.5428,-0.557,-0.5868,-0.5868,-0.626,-0.6911,-0.6911,-0.7721,-0.897,-0.9045,-0.9568,-1.0555,-1.0618,-1.0618,-1.0604,-1.0127,-0.9907,-0.9853,-0.9312,-0.9031,-0.8991,-0.8864,-0.8804,-0.8804,-0.9106,-0.9526,-1.0153,-1.1338,-1.2264,-1.2891,-1.2891,-1.2891,-1.2891,-1.2891,-1.2666,-1.2246,-1.2041,-1.1611,-1.0928,-1.0732,-1.0322,-0.9622,-0.9581,-0.9245,-0.8633,-0.8206,-0.8031,0.0,0.0,0.0,0.0,0.0,0.0,0.0,0.0,0.0,0.0,0.0,-1.2499,-1.3135,-1.4621,-1.5666,-1.6069,-1.6608,-1.7416,-1.8493,-1.8612,-1.8882,-1.9651,-1.9705,-2.0252,-2.1709,-2.2399,-2.3435,-2.5184,-2.5926,-2.6401,-2.6657,-2.6708,-2.6708,-2.6708,-2.6708,-2.6708,-2.6708,-2.6708,-2.6708,-2.6708,-2.6708,-2.6708,-2.6708,-2.6708,-2.6708,-2.6708,-2.6708,-2.6708,-2.6674,-2.6353,-2.5947,-2.5509,-2.5329,-2.4915,-2.4178,-2.3789,-2.3768,-2.3761,-2.3732,-2.3649,-0.5898,-0.565,-0.5644,-0.5549,-0.5456,-0.5456,-0.5446,-0.5428,-0.5428,-0.5428,-0.5428,-0.5428,-0.5815,-0.6523,-0.6523,-0.7442,-0.8947,-0.9075,-0.9588,-1.0434,-1.0434,-1.0428,-1.0408,-0.9834,-0.9636,-0.9833,-0.915,-0.8931,-0.9172,-0.8925,-0.8804,-0.8804,-0.9413,-0.9718,-0.9814,-1.0364,-1.1334,-1.2618,-1.2627,-1.2666,-1.2774,-1.2764,-1.2541,-1.2158,-1.1812,-1.1328,-1.084,-1.0478,-1.0078,-0.9622,-0.9944,-0.9823,-0.9126,-0.8928,-0.9074,0.0,-0.9114,0.0,0.0,0.0,0.0,0.0,0.0,0.0,0.0,-1.3441,-1.4394,-1.5116,-1.6877,-1.7936,-1.7969,-1.9001,-1.9705,-1.969,-1.9705,-1.9705,-1.9705,-1.9747,-2.0415,-2.2154,-2.2917,-2.397,-2.5636,-2.6369,-2.6708,-2.6708,-2.6708,-2.6708,-2.6708,-2.6708,-2.6708,-2.6708,-2.6708,-2.6708,-2.6708,-2.6708,-2.6708,-2.6708,-2.6708,-2.6708,-2.6708,-2.6708,-2.6708,-2.6691,-2.6556,-2.6268,-2.5642,-2.5558,-2.5414,-2.4804,-2.4358,-2.3955,-2.3565,-2.344,-2.3369,-0.6112,-0.5949,-0.5949,-0.5793,-0.5549,-0.5545,-0.5474,-0.5428,-0.5428,-0.5428,-0.5428,-0.5428,-0.5491,-0.562,-0.5624,-0.6203,-0.7242,-0.7957,-0.8742,-0.953,-0.953,-0.953,-0.9494,-0.8908,-0.8681,-0.8693,-0.8777,-0.8831,-0.8884,-0.8838,-0.8804,-0.8804,-0.8903,-0.9263,-0.9762,0.0,0.0,0.0,-1.1174,-1.1484,-1.1981,-1.203,-1.193,-1.1719,-1.1655,0.0,-1.0449,-1.0332,-1.0078,-0.9622,-0.9665,0.0,0.0,0.0,0.0,0.0,0.0,0.0,0.0,0.0,0.0,0.0,-1.2441,-1.2884,-1.3283,-1.5693,-1.7204,-1.7203,-1.8478,-1.9316,-1.9331,-1.954,-1.9705,-1.9705,-1.9705,-1.9705,-1.9726,-1.9965,-2.0708,-2.2009,-2.3093,-2.4232,-2.5446,-2.6286,-2.6674,-2.6657,-2.6691,-2.6708,-2.6708,-2.6708,-2.6708,-2.6708,-2.6708,-2.6708,-2.6708,-2.6708,-2.6708,-2.6708,-2.6708,-2.6708,-2.6708,-2.6708,-2.6691,-2.6657,-2.6218,-2.5725,-2.5346,-2.5435,-2.5297,-2.4253,-2.4436,-2.4667,-2.4179,-2.3435,-2.2848,-0.6173,0.0,-0.603,-0.5861,0.0,-0.5589,-0.5504,-0.5428,-0.5428,-0.5428,-0.5428,-0.5428,-0.5428,-0.5428,-0.5428,-0.5881,-0.6719,-0.7177,-0.7832,-0.8683,-0.8678,-0.8678,-0.8667,-0.8474,-0.841,-0.8393,-0.8683,-0.8804,-0.8804,-0.8804,-0.8804,-0.8804,-0.8804,-0.8956,-0.9309,-0.9309,-0.9814,-1.0813,-1.0813,-1.0965,-1.1266,-1.1316,-1.1341,-1.1387,0.0,0.0,0.0,0.0,0.0,0.0,0.0,0.0,0.0,0.0,0.0,-1.0806,-1.0633,-1.0779,-1.146,-1.1783,-1.2296,-1.3204,-1.4213,-1.498,-1.5365,-1.7,-1.8185,-1.8648,-1.9316,-1.9705,-1.9705,-1.9705,-1.9705,-1.9705,-1.9705,-1.9705,-1.9726,-1.9874,-2.0559,-2.1853,-2.2654,-2.3506,-2.4886,-2.5355,-2.5744,-2.6082,-2.6167,-2.6302,-2.6623,-2.6708,-2.6708,-2.6708,-2.6708,-2.6708,-2.6708,-2.6708,-2.6708,-2.6708,-2.6708,-2.6708,-2.6708,-2.6708,-2.659,-2.6251,-2.5828,-2.5522,-2.5292,-2.5295,-2.521,-2.4633,-2.4435,-2.4305,-2.3905,-2.324,-2.266,-0.6159,-0.6067,-0.6044,-0.5874,-0.5627,-0.5627,-0.5525,-0.5428,0.0,0.0,0.0,-0.5428,-0.5428,-0.5428,-0.5428,-0.5815,-0.6461,-0.6658,-0.7107,-0.7762,-0.7723,-0.7708,-0.7752,-0.7864,-0.7996,-0.8149,-0.8446,-0.8699,-0.8804,-0.8804,-0.8804,-0.8804,-0.8804,-0.8804,-0.8804,-0.8804,-0.9361,-1.0364,-1.0466,-1.0517,-1.0618,-1.0618,-1.0748,-1.101,-1.1143,-1.1086,-1.0836,-1.0864,-1.0586,-0.9865,-1.0079,-1.0066,-0.9746,-1.0029,-1.0693,-1.1693,-1.1811,-1.221,-1.3129,-1.3286,-1.3659,-1.4324,-1.5711,-1.6717,-1.7133,-1.7715,-1.8491,-1.9485,-1.9654,-1.9705,-1.9705,-1.9705,-1.9705,-1.9705,-1.9705,-1.9705,-1.9726,-1.9797,-2.0389,-2.1643,-2.2117,-2.2736,-2.4096,-2.4472,-2.4695,-2.527,-2.5575,-2.5814,-2.6438,-2.6624,-2.6708,-2.6708,-2.6708,-2.6708,-2.6708,-2.6708,-2.6708,-2.6708,-2.6708,-2.6708,-2.6708,-2.6708,-2.6404,-2.5778,-2.5541,-2.5317,-2.5118,-2.4931,-2.4849,-2.4713,-2.4207,-2.3604,-2.3282,-2.2918,-2.2554,-0.6129,-0.6217,-0.6084,-0.5932,-0.5769,-0.5772,-0.5616,-0.5432,-0.5428,-0.5428,-0.5428,-0.5428,-0.5428,-0.5428,-0.5428,-0.5491,-0.5624,-0.64,-0.6785,0.0,-0.6685,-0.6611,-0.6593,-0.6278,-0.6496,-0.71,-0.758,-0.8209,-0.8752,-0.8804,-0.8804,-0.8804,-0.8804,-0.8804,-0.8804,-0.8804,-0.891,-0.9106,-0.9061,-0.9368,-0.9909,-0.9969,-1.0054,-1.0358,-1.0915,-1.103,-1.0685,-1.0809,-1.0859,-1.0732,-1.042,-1.0262,-1.0234,-1.0253,-1.074,-1.1689,-1.1811,-1.221,-1.3129,-1.3672,-1.4412,-1.5367,-1.6128,-1.6558,-1.6625,-1.7946,-1.8844,-1.9058,-1.9442,-1.9705,-1.9705,-1.9705,-1.9705,-1.9705,-1.9705,-1.9705,-1.9726,-1.9965,-2.0444,-2.1118,-2.202,-2.276,-2.3439,-2.4052,-2.4421,-2.4678,-2.5103,-2.5681,-2.5929,-2.6453,-2.6657,-2.6708,-2.6708,-2.6708,-2.6573,-2.6708,-2.6691,-2.6708,-2.664,-2.6607,-2.6607,-2.6539,-2.6234,-2.5676,-2.5033,-2.4638,-2.4535,-2.4054,-2.3553,-2.3083,-2.3134,-2.319,-2.2637,-2.2406,-2.2349,-0.6149,-0.6129,-0.6057,-0.5898,-0.5681,-0.5599,-0.5488,-0.5428,-0.5428,-0.5428,-0.5428,-0.5428,-0.5428,-0.5428,-0.5428,-0.5428,-0.5428,-0.5815,-0.6009,-0.5997,-0.5773,-0.5694,-0.5727,-0.5766,-0.594,-0.6322,-0.6853,-0.7456,-0.8156,-0.8209,-0.8374,-0.8752,-0.8804,-0.8804,-0.8804,-0.8804,-0.8804,-0.8804,-0.8804,-0.8962,-0.9263,-0.9263,-0.9644,-1.0483,-1.0812,-1.1133,-1.1461,-1.1364,-1.1152,-1.0918,-1.0508,-1.0322,-1.0322,-1.0322,-1.0725,-1.1737,-1.1811,-1.2374,-1.3624,-1.4463,-1.5193,-1.5668,-1.6208,-1.6494,-1.652,-1.7704,-1.8574,-1.8893,-1.9406,-1.9705,-1.9705,-1.9705,-1.9705,-1.9705,-1.9705,-1.9705,-1.9726,-1.9839,-2.0227,-2.0878,-2.144,-2.2013,-2.2743,-2.3088,-2.3477,-2.3849,-2.4387,-2.463,-2.4514,-2.4687,-2.5071,-2.573,-2.6139,-2.6075,-2.5806,-2.6302,-2.6472,-2.6185,-2.6101,-2.6116,-2.6065,-2.5845,-2.5319,-2.4726,-2.4218,-2.3761,-2.3459,-2.3061,-2.2665,-2.2496,-2.2513,-2.2524,-2.2099,-2.1928,-2.2003,-0.6162,-0.6081,-0.6006,-0.5682,-0.5296,-0.5155,-0.4957,-0.4821,-0.4954,-0.509,-0.5093,-0.5292,-0.5428,-0.5428,-0.5428,-0.5428,-0.5428,-0.5428,-0.5428,-0.5408,-0.5169,-0.5081,-0.5113,-0.5357,-0.5596,-0.5749,-0.617,-0.674,-0.7396,-0.7616,-0.8049,-0.8752,-0.8804,-0.8804,-0.8804,-0.8804,-0.8804,-0.8804,-0.8804,-0.8804,-0.8804,-0.8804,-0.9316,-1.0269,-1.0669,-1.1146,-1.1827,-1.1701,-1.1449,-1.1064,-1.0557,-1.0322,-1.0322,-1.0322,-1.0687,-1.1516,-1.1849,-1.27,-1.4312,-1.5243,-1.5756,-1.5881,-1.6271,-1.6534,-1.6607,-1.7504,-1.8249,-1.8688,-1.9169,-1.953,-1.969,-1.9705,-1.9705,-1.9705,-1.9705,-1.9705,-1.9705,-1.9705,-1.998,-2.0714,-2.0845,-2.1166,-2.1781,-2.2003,-2.2308,-2.2948,-2.3243,-2.3189,-2.3023,-2.2945,-2.3343,-2.4169,-2.4959,-2.5206,-2.4798,-2.5374,-2.5765,-2.5481,-2.5427,-2.5357,-2.527,-2.4847,-2.4337,-2.3909,-2.3575,-2.319,-2.253,-2.2361,-2.2344,-2.2299,-2.2259,-2.2007,-2.1584,-2.1477,-2.1568,-0.6122,-0.619,-0.5865,-0.5232,-0.4314,-0.4198,-0.3747,-0.3147,-0.3813,-0.4148,-0.4217,-0.5024,-0.5359,-0.5428,-0.5428,-0.5428,-0.5428,-0.5428,-0.5425,-0.5391,-0.5067,-0.4938,-0.4914,-0.4744,-0.4919,-0.5466,-0.555,-0.5977,-0.6691,-0.7396,-0.8096,-0.8699,-0.8804,-0.8804,-0.8804,-0.8804,-0.8804,-0.8804,-0.8804,-0.8804,-0.8804,-0.8804,-0.8857,-0.9008,-1.0167,-1.0855,-1.1039,-1.138,-1.1587,-1.1489,-1.0763,-1.0332,-1.0332,-1.0322,-1.0544,-1.1099,-1.2009,-1.3392,-1.5271,-1.5643,-1.5919,-1.6384,-1.6429,-1.6534,-1.6565,-1.7463,-1.8092,-1.8249,-1.8688,-1.9244,-1.9639,-1.9705,-1.9705,-1.9705,-1.9705,-1.9705,-1.9705,-1.9705,-1.9874,-2.033,-2.0416,-2.0583,-2.1086,-2.1229,-2.1456,-2.2053,-2.1897,-2.1871,-2.2181,-2.1987,-2.182,-2.2171,-2.2823,-2.3645,-2.4064,-2.4213,-2.4564,-2.4996,-2.4854,-2.4661,-2.4526,-2.4441,-2.4269,-2.3439,-2.3371,-2.3021,-2.2581,-2.2327,-2.2282,-2.2073,-2.1836,-2.1538,-2.1181,-2.1055,-2.1086,-0.4299,-0.4275,-0.4125,-0.3822,-0.3341,-0.3228,-0.3011,-0.2744,-0.308,-0.3213,-0.3347,-0.4215,-0.4891,-0.5362,-0.5428,-0.5428,-0.5428,-0.5428,-0.5311,-0.5216,-0.5009,-0.487,-0.4765,-0.4568,-0.4677,-0.4893,-0.4897,-0.5277,-0.6036,-0.7122,-0.8049,-0.8699,-0.8804,-0.8804,-0.8804,-0.8804,-0.8804,-0.8804,-0.8804,-0.8804,-0.8804,-0.8804,-0.9008,-0.9465,-1.032,-1.1015,-1.1373,-1.178,-1.1836,-1.1596,-1.1018,-1.0654,-1.0654,-1.042,-1.0735,-1.1744,-1.3096,-1.4428,-1.5627,-1.5994,-1.6283,-1.6509,-1.6534,-1.6534,-1.6522,-1.6921,-1.7284,-1.7706,-1.8688,-1.9493,-1.9654,-1.9705,-1.9705,-1.9705,-1.9705,-1.9705,-1.9705,-1.9705,-1.9839,-2.0212,-2.0299,-2.0483,-2.0862,-2.1007,-2.1021,-2.1061,-2.0836,-2.0828,-2.0843,-2.0632,-2.0535,-2.0572,-2.0895,-2.1502,-2.2431,-2.3462,-2.3753,-2.3768,-2.3806,-2.3833,-2.3799,-2.341,-2.3054,-2.2801,-2.2818,-2.2733,-2.2395,-2.2265,-2.2203,-2.1799,-2.1179,-2.0781,-2.0632,-2.0583,-2.0583,-0.3004,-0.2933,-0.2914,-0.2659,-0.2347,-0.2344,-0.221,-0.2011,-0.221,-0.2344,-0.241,-0.3278,-0.4015,-0.4686,-0.5156,-0.5428,-0.5428,-0.5428,-0.5277,-0.5128,-0.4982,-0.484,-0.4684,-0.4535,-0.4463,-0.4463,-0.4519,-0.4952,-0.5814,-0.6799,-0.7889,-0.8646,-0.8804,-0.8804,-0.8804,-0.8804,-0.8804,-0.8804,-0.8804,-0.8804,-0.8804,-0.8804,-0.9008,-0.9569,-1.0364,-1.1015,-1.1507,-1.1959,-1.208,-1.1758,-1.1328,-1.1084,-1.1084,-1.0801,-1.1194,-1.2445,-1.3811,-1.491,-1.5632,-1.6198,-1.6534,-1.6534,-1.6534,-1.6534,-1.6522,-1.6637,-1.6951,-1.7544,-1.8727,-1.9457,-1.9493,-1.9603,-1.969,-1.9705,-1.9705,-1.9705,-1.9705,-1.9705,-1.9818,-2.0089,-2.0089,-2.0261,-2.0565,-2.0599,-2.0496,-2.0224,-2.0154,-2.007,-1.9782,-1.9771,-1.975,-1.9705,-1.9756,-2.0062,-2.082,-2.1979,-2.2622,-2.2719,-2.2737,-2.3088,-2.3105,-2.2581,-2.2344,-2.253,-2.2378,-2.2293,-2.2291,-2.2257,-2.1949,-2.1162,-2.0605,-2.0296,-2.0158,-2.0158,-2.0296,-0.3083,-0.3001,-0.2931,-0.2276,-0.134,-0.1341,-0.0873,-0.0337,-0.1006,-0.134,-0.1474,-0.2344,-0.2811,-0.3011,-0.4619,-0.5359,-0.5362,-0.5359,-0.527,-0.5114,-0.4982,-0.4836,-0.4684,-0.4538,-0.4463,-0.4463,-0.4519,-0.5167,-0.6421,-0.6583,-0.7396,-0.8699,-0.8646,-0.8752,-0.8699,-0.8699,-0.8752,-0.8699,-0.8752,-0.8804,-0.8804,-0.8804,-0.8804,-0.9008,-1.0115,-1.0813,-1.0981,-1.172,-1.2171,-1.2197,-1.1768,-1.1577,-1.1577,-1.1557,-1.2007,-1.3005,-1.374,-1.4589,-1.5557,-1.617,-1.6534,-1.6534,-1.6534,-1.6534,-1.6522,-1.6866,-1.7325,-1.7973,-1.8458,-1.8893,-1.893,-1.9406,-1.969,-1.9705,-1.9705,-1.9705,-1.9705,-1.9705,-1.9705,-1.9762,-1.9782,-1.9854,-1.9818,-1.9762,-1.9854,-1.9797,-1.9747,-1.9747,-1.9726,-1.9705,-1.9705,-1.9705,-1.9705,-1.9756,-1.9888,-2.0821,-2.1342,-2.1568,-2.1977,-2.2389,-2.235,-2.2327,-2.2282,-2.2254,-2.2152,-2.212,-2.2249,-2.2054,-2.1566,-2.099,-2.0467,-2.0174,-2.007,-1.9818,-2.007,-0.1148,-0.1105,-0.1084,-0.084,-0.0472,-0.0471,-0.0269,-0.0067,-0.0337,-0.0471,-0.0605,-0.1408,-0.2143,-0.2746,-0.3949,-0.4486,-0.4553,-0.509,-0.5233,-0.5013,-0.4942,-0.4785,-0.4611,-0.4539,-0.4463,-0.4463,-0.4519,-0.5007,-0.5764,-0.5873,-0.6416,-0.7235,-0.7396,-0.7402,-0.7456,-0.7836,-0.8103,-0.8156,-0.8533,-0.8804,-0.8804,-0.8804,-0.8804,-0.8857,-0.9666,-1.0364,-1.0813,-1.1541,-1.2006,-1.22,-1.2061,-1.1982,-1.2021,-1.2256,-1.2823,-1.3663,-1.4228,-1.4967,-1.6027,-1.638,-1.6534,-1.6534,-1.6534,-1.6534,-1.6522,-1.668,-1.6879,-1.716,-1.7598,-1.7867,-1.8092,-1.8968,-1.969,-1.969,-1.969,-1.9705,-1.9705,-1.9705,-1.9705,-1.9705,-1.9705,-1.9705,-1.9705,-1.9705,-1.9705,-1.9705,-1.9705,-1.9705,-1.9705,-1.9705,-1.9705,-1.9705,-1.9705,-1.9705,-1.9705,-2.0154,-2.0663,-2.0877,-2.1214,-2.1694,-2.1886,-2.1869,-2.1823,-2.1811,-2.1735,-2.1779,-2.1807,-2.1199,-2.0809,-2.0771,-2.0254,-2.007,-2.0089,-1.9965,-2.0431,0.0,0.0,0.0,0.0,0.0,0.0,0.0,0.0,0.0,0.0,0.0,-0.0672,-0.1275,-0.1877,-0.2743,-0.3145,-0.334,-0.4575,-0.5128,-0.486,-0.4847,-0.4707,-0.4497,-0.4463,-0.4463,-0.4463,-0.4463,-0.4842,-0.5433,-0.5483,-0.5869,-0.6588,-0.6588,-0.6588,-0.6696,-0.7128,-0.7456,-0.7723,-0.8215,-0.8533,-0.8752,-0.8804,-0.8804,-0.8857,-0.9263,-0.9917,-1.0762,-1.1466,-1.2018,-1.2339,-1.2441,-1.2441,-1.2471,-1.2725,-1.3117,-1.3686,-1.4337,-1.5017,-1.5832,-1.6293,-1.6534,-1.6534,-1.6534,-1.6534,-1.6534,-1.6534,-1.6552,-1.6795,-1.7034,-1.7353,-1.7706,-1.8535,-1.9244,-1.9406,-1.9603,-1.969,-1.9705,-1.9705,-1.9705,-1.9705,-1.9705,-1.9705,-1.9705,-1.9705,-1.9705,-1.9705,-1.9705,-1.9705,-1.9705,-1.9705,-1.9705,-1.9705,-1.9705,-1.9705,-1.9705,-1.998,-2.0296,-2.0532,-2.0862,-2.1244,-2.1399,-2.1399,-2.1383,-2.1337,-2.1341,-2.1376,-2.1051,-2.0413,-2.0243,-2.03,-2.0111,-1.9874,-2.0,-2.0193,-2.0616,0.0,0.0,0.0,0.0,0.0,0.0,0.0,0.0,0.0,0.0,0.0,0.0,-0.0269,-0.0404,-0.1275,-0.1473,-0.2058,-0.3957,-0.4807,-0.4634,-0.4714,-0.4623,-0.4522,-0.4463,-0.4463,-0.4463,-0.4463,-0.4842,-0.5378,-0.5433,-0.5764,-0.6372,-0.6426,-0.6317,-0.6534,-0.6534,-0.6912,-0.7396,-0.7664,-0.8103,-0.8699,-0.8752,-0.8804,-0.8804,-0.8857,-0.9458,-1.0712,-1.1416,-1.2061,-1.2745,-1.2842,-1.2871,-1.2832,-1.2871,-1.291,-1.3198,-1.4061,-1.4606,-1.488,-1.5832,-1.638,-1.6423,-1.6479,-1.6534,-1.6534,-1.6522,-1.6667,-1.7034,-1.7188,-1.7422,-1.7827,-1.8052,-1.8419,-1.8855,-1.9317,-1.9603,-1.969,-1.9705,-1.9705,-1.9705,-1.9705,-1.9705,-1.9705,-1.9705,-1.9705,-1.9705,-1.9705,-1.9705,-1.9705,-1.9705,-1.9705,-1.9705,-1.9705,-1.9705,-1.9705,-1.9762,-1.998,-2.0227,-2.0616,-2.0975,-2.0991,-2.0975,-2.0943,-2.091,-2.0764,-2.0789,-2.0652,-2.007,-1.9909,-1.9884,-1.9726,-1.9747,-2.0,-2.0246,-2.0583,0.0,0.0,0.0,0.0,0.0,0.0,0.0,0.0,0.0,0.0,0.0,0.0,-0.0337,-0.0806,-0.1207,-0.1592,-0.2212,-0.3472,-0.4003,-0.3988,-0.4438,-0.4609,-0.4484,-0.4463,-0.4463,-0.4463,-0.4463,-0.457,-0.4787,-0.4838,-0.4952,-0.5113,-0.5171,-0.5171,-0.5226,-0.5605,-0.5982,-0.6249,-0.723,-0.783,-0.8103,-0.8533,-0.8804,-0.8804,-0.8804,-0.9256,-1.0064,-1.0762,-1.1683,-1.2832,-1.2891,-1.2891,-1.2891,-1.2891,-1.3104,-1.3505,-1.3826,-1.4283,-1.4744,-1.541,-1.5908,-1.5952,-1.6238,-1.6479,-1.6534,-1.6534,-1.6552,-1.6752,-1.6752,-1.6837,-1.6993,-1.7353,-1.7894,-1.8803,-1.9058,-1.9317,-1.9654,-1.9705,-1.9705,-1.9705,-1.9705,-1.9705,-1.9705,-1.9705,-1.9705,-1.9705,-1.9705,-1.9705,-1.9705,-1.9705,-1.9705,-1.9705,-1.9705,-1.9705,-1.9705,-1.9705,-1.9818,-2.0,-2.0296,-2.0516,-2.0532,-2.0532,-2.0516,-2.0465,-2.0345,-2.0204,-2.0061,-1.9919,-1.9777,-1.9705,-1.9726,-1.9854,-2.007,-2.0314,-2.0583,0.0,0.0,0.0,0.0,0.0,0.0,0.0,0.0,0.0,0.0,0.0,0.0,-0.0269,-0.0739,-0.0806,-0.1057,-0.1671,-0.2304,-0.2686,-0.2949,-0.4088,-0.4551,-0.4467,-0.4463,-0.4463,-0.4463,-0.4463,-0.4463,-0.4463,-0.4463,-0.4519,-0.4515,-0.4463,-0.4519,-0.4519,-0.4897,-0.5222,-0.5597,-0.6411,-0.7122,-0.7664,-0.8156,-0.8533,-0.8758,-0.8804,-0.9159,-0.9762,-1.0458,-1.1325,-1.2304,-1.2715,-1.2881,-1.2891,-1.2939,-1.3065,-1.3372,-1.3684,-1.3956,-1.4376,-1.5141,-1.5576,-1.5676,-1.6151,-1.6479,-1.6534,-1.6534,-1.6534,-1.6534,-1.6522,-1.6534,-1.6565,-1.6795,-1.7381,-1.821,-1.8688,-1.9118,-1.9581,-1.9705,-1.9705,-1.9705,-1.9705,-1.9705,-1.9705,-1.9705,-1.9705,-1.9705,-1.9705,-1.9705,-1.9705,-1.9705,-1.9705,-1.9705,-1.9705,-1.9705,-1.9705,-1.9705,-1.9705,-1.9818,-1.9929,-2.0035,-2.0104,-2.0104,-2.0089,-2.007,-1.998,-1.996,-1.9848,-1.9812,-1.9705,-1.9705,-1.9705,-1.9797,-1.9945,-2.0177,-2.0467,0.0,0.0073,0.0,0.0,0.0,0.0,0.0,0.0,0.0,0.0,0.0,0.0,0.0,0.0,0.0,0.0,0.0,-0.0931,-0.1387,-0.1879,-0.319,-0.4245,-0.4463,-0.4463,-0.4463,-0.4463,-0.4463,-0.4463,-0.4463,-0.4463,-0.4463,-0.4463,-0.4463,-0.4463,-0.4519,-0.4519,-0.4842,-0.5328,-0.5597,-0.6411,-0.7509,-0.783,-0.8156,-0.8752,-0.8804,-0.9054,-0.9614,-1.0364,-1.1116,-1.1873,-1.2608,-1.2891,-1.2891,-1.2891,-1.2929,-1.3027,-1.3467,-1.3637,-1.4003,-1.4687,-1.5353,-1.5499,-1.6008,-1.6479,-1.6479,-1.6534,-1.6534,-1.6534,-1.6534,-1.6534,-1.6522,-1.6565,-1.6879,-1.7353,-1.8288,-1.908,-1.9617,-1.9705,-1.9705,-1.9705,-1.9705,-1.9705,-1.9705,-1.9705,-1.9705,-1.9705,-1.9705,-1.9705,-1.9705,-1.9705,-1.9705,-1.9705,-1.9705,-1.9705,-1.9705,-1.9705,-1.9705,-1.9726,-1.9818,-1.9803,-1.9839,-1.9803,-1.9803,-1.9782,-1.9747,-1.9726,-1.9705,-1.9705,-1.9705,-1.9705,-1.9705,-1.9705,-1.9874,-2.0143,-2.0534,0.0366,0.0869,0.0278,0.0406,0.0806,0.0269,0.0,0.0,0.0,0.0,0.0,0.0,0.0,0.0,0.0,0.0,0.0,-0.0733,-0.1127,-0.1287,-0.2209,-0.3461,-0.4294,-0.4463,-0.4463,-0.4463,-0.4463,-0.4463,-0.4463,-0.4463,-0.4463,-0.4463,-0.4463,-0.4463,-0.4463,-0.4463,-0.457,-0.4897,-0.5823,-0.6367,-0.6961,-0.7937,-0.8586,-0.8752,-0.8804,-0.891,-0.9211,-1.021,-1.1384,-1.251,-1.2764,-1.2891,-1.2891,-1.2891,-1.2891,-1.2929,-1.3017,-1.3152,-1.3286,-1.3873,-1.4457,-1.4926,-1.5555,-1.6008,-1.6479,-1.6534,-1.6534,-1.6534,-1.6534,-1.6534,-1.6534,-1.6534,-1.6752,-1.7312,-1.8171,-1.9006,-1.9493,-1.9705,-1.9705,-1.9705,-1.969,-1.9654,-1.9705,-1.9654,-1.969,-1.969,-1.9705,-1.9705,-1.9705,-1.9705,-1.9705,-1.9705,-1.9705,-1.9705,-1.9705,-1.9705,-1.9705,-1.9705,-1.9726,-1.9762,-1.9762,-1.9762,-1.9726,-1.9726,-1.9726,-1.9741,-1.9705,-1.9705,-1.9705,-1.9705,-1.9705,-1.9726,-2.0,-2.0299,-2.0667,0.1084,0.1851,0.1367,0.1409,0.181,0.1343,0.0941,0.0605,0.0538,0.0337,0.0,0.0,0.0,0.0,0.0,0.0,0.0,-0.0427,-0.0592,-0.0747,-0.1409,-0.2567,-0.3735,-0.4236,-0.4463,-0.4463,-0.4463,-0.4463,-0.4463,-0.4463,-0.4463,-0.4463,-0.4463,-0.4463,-0.4463,-0.4463,-0.4463,-0.4625,-0.5391,-0.5932,-0.6637,-0.7396,-0.8209,-0.8586,-0.8804,-0.8857,-0.9309,-0.9961,-1.1023,-1.2147,-1.2725,-1.2891,-1.2891,-1.2891,-1.2891,-1.2891,-1.2891,-1.2939,-1.3027,-1.3467,-1.392,-1.4422,-1.5039,-1.5676,-1.6107,-1.6337,-1.6534,-1.6534,-1.6534,-1.6534,-1.6534,-1.6534,-1.6765,-1.7271,-1.7867,-1.8458,-1.8983,-1.8983,-1.9169,-1.9244,-1.9207,-1.9281,-1.9581,-1.953,-1.9515,-1.9603,-1.9705,-1.9705,-1.9705,-1.9705,-1.969,-1.9654,-1.969,-1.9705,-1.9705,-1.9705,-1.9705,-1.9705,-1.9705,-1.9705,-1.9705,-1.9705,-1.9705,-1.9705,-1.9705,-1.9705,-1.9705,-1.9705,-1.9705,-1.9705,-1.9705,-1.9797,-2.0,-2.0314,-2.0699,0.2003,0.2854,0.271,0.2744,0.2811,0.2678,0.2078,0.1541,0.1274,0.0873,0.0,0.0,0.0,0.0,0.0,0.0,0.0,0.0,0.0,0.0,-0.0895,-0.1898,-0.2899,-0.3901,-0.4236,-0.4294,-0.4405,-0.4463,-0.4463,-0.4463,-0.4463,-0.4463,-0.4463,-0.4463,-0.4463,-0.4463,-0.4463,-0.4519,-0.4791,-0.5441,-0.6312,-0.6853,-0.761,-0.8421,-0.8752,-0.9008,-0.9413,-0.9865,-1.0415,-1.1566,-1.2344,-1.2666,-1.2774,-1.2774,-1.2891,-1.2891,-1.2891,-1.2891,-1.2978,-1.3382,-1.3732,-1.4003,-1.4903,-1.5564,-1.5728,-1.6157,-1.6534,-1.6534,-1.6534,-1.6534,-1.6534,-1.6534,-1.668,-1.7034,-1.7229,-1.7463,-1.7827,-1.8013,-1.8288,-1.8688,-1.838,-1.8688,-1.9132,-1.9295,-1.9118,-1.9603,-1.9617,-1.9406,-1.9406,-1.9406,-1.9406,-1.9442,-1.9566,-1.9705,-1.9705,-1.9705,-1.9705,-1.9705,-1.9705,-1.9705,-1.9705,-1.9705,-1.9705,-1.9705,-1.9705,-1.9705,-1.9705,-1.9705,-1.9705,-1.9705,-1.9705,-1.9762,-1.9839,-2.0227,-2.0616,0.3002,0.3689,0.2978,0.3078,0.3547,0.3011,0.2611,0.2344,0.1608,0.1274,0.0873,0.0337,0.0,0.0,0.0,0.0,0.0,0.0,0.0,0.0,-0.0783,-0.1174,-0.1898,-0.2901,-0.3569,-0.3738,-0.4239,-0.446,-0.446,-0.4405,-0.4463,-0.4463,-0.4463,-0.4463,-0.4463,-0.4463,-0.4463,-0.457,-0.4948,-0.5328,-0.5873,-0.6853,-0.7557,-0.8103,-0.8533,-0.8857,-0.9061,-0.951,-0.9917,-1.0474,-1.1325,-1.199,-1.2187,-1.2589,-1.2852,-1.2891,-1.2891,-1.2891,-1.2929,-1.3065,-1.3324,-1.3779,-1.4457,-1.5083,-1.5603,-1.6164,-1.6466,-1.6534,-1.6534,-1.6534,-1.6534,-1.6534,-1.6607,-1.6723,-1.6752,-1.6752,-1.6951,-1.7585,-1.8013,-1.8171,-1.8131,-1.8341,-1.8983,-1.893,-1.9043,-1.9479,-1.9406,-1.9118,-1.908,-1.908,-1.9169,-1.9244,-1.953,-1.969,-1.9705,-1.9705,-1.9705,-1.9705,-1.9705,-1.9705,-1.9705,-1.9705,-1.9705,-1.9705,-1.9705,-1.9705,-1.9705,-1.9705,-1.9705,-1.9705,-1.9726,-1.9854,-2.0,-2.0296,-2.0649,0.3927,0.458,0.4177,0.4217,0.4553,0.4151,0.3682,0.3278,0.2811,0.2076,0.134,0.0739,0.0404,0.0,0.0,0.0,0.0,0.0,0.0,0.0,-0.0448,-0.0559,-0.0783,-0.1675,-0.2454,-0.2843,-0.3176,-0.3566,-0.3846,-0.3956,-0.4067,-0.446,-0.446,-0.4463,-0.4463,-0.4463,-0.4463,-0.4515,-0.4838,-0.5164,-0.5651,-0.6583,-0.767,-0.8103,-0.8586,-0.8804,-0.8857,-0.9106,-0.9316,-0.9562,-1.0305,-1.1208,-1.1769,-1.2281,-1.2628,-1.2852,-1.2891,-1.2891,-1.2891,-1.2939,-1.3075,-1.3372,-1.4201,-1.4744,-1.5348,-1.5971,-1.6466,-1.6534,-1.6534,-1.6534,-1.6534,-1.6534,-1.6534,-1.6534,-1.6534,-1.6534,-1.6595,-1.7034,-1.7476,-1.7585,-1.7463,-1.7827,-1.8145,-1.8341,-1.8458,-1.8727,-1.8765,-1.8535,-1.865,-1.8688,-1.893,-1.908,-1.9479,-1.969,-1.969,-1.9705,-1.9705,-1.9705,-1.9705,-1.9705,-1.9705,-1.9705,-1.9705,-1.9705,-1.9705,-1.9705,-1.9705,-1.9705,-1.9705,-1.9705,-1.9797,-1.9965,-2.0124,-2.028,-2.0748,0.4671,0.5428,0.5428,0.5428,0.5428,0.5359,0.4888,0.4281,0.4082,0.3078,0.1876,0.1608,0.1208,0.0,0.0,0.0,0.0,0.0,0.0,0.0,0.0,0.0,0.0,-0.0783,-0.1284,-0.184,-0.2287,-0.2676,-0.3065,-0.3234,-0.3508,-0.4125,-0.4294,-0.4349,-0.4408,-0.4463,-0.4463,-0.4515,-0.457,-0.4787,-0.5382,-0.6204,-0.7343,-0.848,-0.8752,-0.8804,-0.8784,-0.8803,-0.879,-0.885,-0.9327,-1.0226,-1.1239,-1.1976,-1.2404,-1.2822,-1.2891,-1.2891,-1.2891,-1.2891,-1.2929,-1.2978,-1.3873,-1.4571,-1.4937,-1.5644,-1.625,-1.6479,-1.6534,-1.6534,-1.6534,-1.6534,-1.6534,-1.6534,-1.6534,-1.6534,-1.6534,-1.6534,-1.6795,-1.7034,-1.7034,-1.7229,-1.7544,-1.7787,-1.7867,-1.7894,-1.7933,-1.8013,-1.8171,-1.838,-1.8574,-1.893,-1.9281,-1.9639,-1.969,-1.9705,-1.9705,-1.9705,-1.9705,-1.9705,-1.9705,-1.9705,-1.9705,-1.9705,-1.9705,-1.9705,-1.9705,-1.9705,-1.9705,-1.9705,-1.9797,-1.9909,-2.0054,-2.028,-2.0765,0.5362,0.5428,0.5428,0.5428,0.5428,0.5428,0.5292,0.5024,0.435,0.388,0.3411,0.2808,0.2338,0.2124,0.2082,0.1686,0.0947,0.0,0.0,0.0,0.0,0.0,0.0,0.0,0.0,-0.0671,-0.1396,-0.212,-0.2343,-0.2452,-0.2785,-0.3345,-0.3569,-0.3793,-0.4239,-0.4463,-0.4405,-0.4463,-0.4463,-0.4625,-0.4952,-0.5987,-0.7235,-0.854,-0.8752,-0.8804,-0.8751,-0.8597,-0.8557,-0.8776,-0.8855,-0.938,-1.0272,-1.1288,-1.2094,-1.2589,-1.2871,-1.292,-1.2812,-1.2871,-1.2881,-1.3065,-1.36,-1.4236,-1.4698,-1.5365,-1.602,-1.638,-1.6479,-1.6479,-1.6534,-1.6436,-1.6479,-1.6479,-1.6479,-1.6479,-1.6534,-1.6522,-1.6522,-1.6723,-1.6637,-1.6637,-1.7034,-1.7312,-1.7422,-1.7463,-1.7463,-1.7544,-1.7666,-1.7933,-1.8249,-1.865,-1.908,-1.9442,-1.9705,-1.9705,-1.9705,-1.9705,-1.9705,-1.9705,-1.9705,-1.9705,-1.9705,-1.9705,-1.9705,-1.9705,-1.9705,-1.9705,-1.9705,-1.9705,-1.9762,-1.9854,-2.0089,-2.0299,-2.0601,0.5426,0.5428,0.5428,0.5428,0.5428,0.5428,0.5428,0.5359,0.4891,0.4417,0.3997,0.3495,0.3012,0.2657,0.2437,0.2031,0.1611,0.0904,0.056,0.0504,0.0,0.0,0.0,0.0,0.0,0.0,-0.0783,-0.134,-0.1618,-0.1618,-0.2063,-0.2563,-0.2788,-0.3123,-0.3735,-0.3846,-0.4125,-0.4349,-0.4463,-0.4519,-0.4625,-0.5882,-0.7128,-0.7996,-0.8593,-0.8752,-0.8778,-0.8704,-0.8664,-0.8783,-0.8741,-0.9163,-0.9855,-1.0653,-1.1527,-1.2013,-1.2541,-1.2754,-1.2656,-1.2715,-1.2891,-1.2978,-1.3467,-1.4061,-1.4652,-1.5287,-1.582,-1.6238,-1.6139,-1.6051,-1.6008,-1.6051,-1.6051,-1.6095,-1.6281,-1.6466,-1.6534,-1.6534,-1.6534,-1.6534,-1.6522,-1.6595,-1.6667,-1.6909,-1.6993,-1.7034,-1.7034,-1.7105,-1.7229,-1.7706,-1.8145,-1.8727,-1.9207,-1.9457,-1.9705,-1.9705,-1.9705,-1.9705,-1.9705,-1.9705,-1.9705,-1.9705,-1.9705,-1.9705,-1.9705,-1.9705,-1.9705,-1.9705,-1.9705,-1.9705,-1.9762,-1.9854,-2.0124,-2.04,-2.0634,0.5428,0.5428,0.5428,0.5428,0.5428,0.5428,0.5428,0.5428,0.5362,0.4957,0.4334,0.41,0.3724,0.3101,0.2726,0.2479,0.2345,0.1675,0.1228,0.0894,0.056,0.0,0.0,0.0,0.0,0.0,0.0,0.0,-0.0783,-0.0894,-0.1285,-0.1786,-0.1953,-0.2454,-0.3176,-0.3456,-0.3788,-0.4236,-0.4463,-0.4519,-0.5007,-0.5769,-0.6853,-0.7616,-0.8262,-0.8586,-0.8798,-0.8691,-0.8717,-0.8751,-0.8776,-0.8964,-0.9592,-1.0218,-1.0665,-1.1006,-1.2139,-1.2483,-1.2471,-1.2656,-1.2891,-1.2929,-1.3324,-1.3873,-1.4422,-1.496,-1.5555,-1.592,-1.5788,-1.5421,-1.5421,-1.541,-1.5499,-1.5732,-1.6051,-1.638,-1.6479,-1.6534,-1.6534,-1.6534,-1.6534,-1.6522,-1.6595,-1.6637,-1.6765,-1.6752,-1.6765,-1.6795,-1.6993,-1.7747,-1.8263,-1.893,-1.9369,-1.9566,-1.9705,-1.9705,-1.9705,-1.9705,-1.9705,-1.9705,-1.9705,-1.9705,-1.9705,-1.9705,-1.9705,-1.9705,-1.9705,-1.9705,-1.9705,-1.9705,-1.9705,-1.9854,-2.0158,-2.0382,-2.0583,0.5428,0.5428,0.5428,0.5428,0.5428,0.5428,0.5428,0.5428,0.5428,0.5359,0.5061,0.5,0.4795,0.4454,0.3722,0.3335,0.2979,0.2399,0.1785,0.1284,0.095,0.0504,0.0,0.0,0.0,0.0,0.0,0.0,0.0,0.0,-0.0503,-0.1118,-0.134,-0.1842,-0.2843,-0.3065,-0.3735,-0.4294,-0.4463,-0.4732,-0.5218,-0.5542,-0.6411,-0.723,-0.7777,-0.8096,-0.856,-0.8547,-0.8494,-0.8764,-0.8571,-0.8629,-0.8954,-0.9562,-0.9753,-1.0379,-1.1413,-1.2695,-1.2297,-1.2559,-1.2861,-1.2852,-1.3025,-1.3314,-1.3967,-1.456,-1.4971,-1.4846,-1.4835,-1.4835,-1.4789,-1.4789,-1.505,-1.532,-1.5543,-1.5964,-1.6207,-1.6032,-1.6076,-1.6337,-1.625,-1.638,-1.6509,-1.6522,-1.6534,-1.6534,-1.6522,-1.6607,-1.6964,-1.776,-1.8341,-1.8968,-1.9442,-1.9654,-1.9705,-1.9705,-1.9705,-1.9705,-1.9705,-1.9705,-1.9705,-1.9705,-1.9705,-1.9705,-1.9705,-1.9705,-1.9705,-1.9705,-1.9705,-1.9705,-1.9705,-1.9945,-2.0212,-2.0382,-2.0483,0.5428,0.5428,0.5428,0.5428,0.5428,0.5428,0.5428,0.5428,0.5428,0.5311,0.5216,0.5077,0.4925,0.4706,0.4251,0.4076,0.3796,0.3231,0.2452,0.173,0.134,0.0727,0.0,0.0,0.0,0.0,0.0,0.0,0.0,0.0,0.0,0.0,0.0,-0.095,-0.2174,-0.251,-0.3121,-0.3732,-0.4236,-0.4622,-0.4944,-0.5324,-0.581,-0.6465,-0.6848,-0.745,-0.796,-0.8075,-0.8293,-0.862,-0.8651,-0.8671,-0.8922,-0.937,-0.963,-0.9244,-1.0836,-1.1808,-1.1918,-1.2248,-1.2578,-1.2754,-1.2753,-1.2919,-1.3684,-1.4283,-1.4663,-1.4709,-1.4376,-1.419,-1.419,-1.419,-1.4329,-1.4549,-1.496,-1.5231,-1.5466,-1.5478,-1.5433,-1.5744,-1.6008,-1.6107,-1.6238,-1.638,-1.6436,-1.6534,-1.6607,-1.6723,-1.7229,-1.8066,-1.8574,-1.9006,-1.9406,-1.9705,-1.9705,-1.9705,-1.9705,-1.9705,-1.9705,-1.9705,-1.9705,-1.9705,-1.9705,-1.9705,-1.9705,-1.9705,-1.9705,-1.9705,-1.9705,-1.9705,-1.9705,-1.9889,-2.007,-2.028,-2.0483,0.562,0.5428,0.5428,0.5428,0.5422,0.5321,0.5301,0.5298,0.5254,0.5179,0.5067,0.4921,0.4707,0.457,0.4477,0.4415,0.4408,0.3901,0.3231,0.251,0.1842,0.1229,0.0,0.0,0.0,0.0,0.0,0.0,0.0,0.0,0.0,0.0,0.0,0.0,-0.1062,-0.1675,-0.2343,-0.3065,-0.3793,-0.4125,-0.4288,-0.4893,-0.5269,-0.5651,-0.6036,-0.6637,-0.7289,-0.7391,-0.7771,-0.8309,-0.8468,-0.8455,-0.885,-0.9085,-0.9162,-0.8992,-1.0045,-1.0699,-1.1121,-1.1598,-1.2287,-1.2578,-1.2666,-1.2807,-1.3396,-1.4014,-1.4247,-1.4118,-1.3836,-1.36,-1.3552,-1.3552,-1.3779,-1.3967,-1.4283,-1.4468,-1.4652,-1.4801,-1.4937,-1.5209,-1.5421,-1.5555,-1.5744,-1.6064,-1.6293,-1.6479,-1.6607,-1.6752,-1.7353,-1.8052,-1.8496,-1.8803,-1.9118,-1.9493,-1.9705,-1.9705,-1.9705,-1.9705,-1.9705,-1.9705,-1.9705,-1.9705,-1.9705,-1.9705,-1.9705,-1.9705,-1.9705,-1.9705,-1.9705,-1.9705,-1.9705,-1.9705,-1.9854,-2.0104,-2.0483,0.6137,0.5428,0.5422,0.5415,0.5408,0.5206,0.5145,0.5135,0.5016,0.4962,0.4914,0.4772,0.4613,0.4553,0.4463,0.4463,0.4463,0.446,0.3846,0.3345,0.3012,0.2176,0.1452,0.095,0.0727,0.028,0.0,0.0,0.0,0.0,0.0,0.0,0.0,0.0,-0.0894,-0.1229,-0.173,-0.2454,-0.3123,-0.3514,-0.3735,-0.4177,-0.4842,-0.5324,-0.5542,-0.5928,-0.6588,-0.6691,-0.702,-0.7723,-0.7889,-0.8156,-0.8501,-0.8734,-0.8692,-0.8834,-0.9118,-0.9689,-1.0174,-1.1066,-1.1995,-1.2559,-1.2792,-1.2626,-1.2845,-1.2996,-1.3045,-1.312,-1.307,-1.3064,-1.2987,-1.3007,-1.3185,-1.3515,-1.3789,-1.392,-1.4154,-1.434,-1.4525,-1.4709,-1.4846,-1.4971,-1.532,-1.5688,-1.6008,-1.6194,-1.6522,-1.6667,-1.6951,-1.7585,-1.8092,-1.8496,-1.8803,-1.9192,-1.9654,-1.9705,-1.9705,-1.9705,-1.9705,-1.9705,-1.9705,-1.9705,-1.9705,-1.9705,-1.9705,-1.9705,-1.9705,-1.9705,-1.9705,-1.9705,-1.9726,-1.9762,-1.9874,-2.0124,-2.0583,0.6994,0.6672,0.6496,0.5951,0.5206,0.5064,0.4941,0.4992,0.4942,0.486,0.4772,0.4623,0.4573,0.4529,0.4463,0.4463,0.4463,0.4463,0.4012,0.3566,0.3176,0.2676,0.2009,0.173,0.1619,0.1341,0.1341,0.134,0.0,0.0894,0.0672,0.0,0.028,-0.0056,-0.0448,-0.0894,-0.1452,-0.2009,-0.2508,-0.2843,-0.34,-0.3624,-0.4177,-0.4787,-0.4897,-0.5222,-0.5819,-0.5928,-0.6367,-0.6907,-0.7391,-0.7753,-0.8165,-0.8365,-0.8474,-0.856,-0.8786,-0.9107,-0.951,-1.0468,-1.1382,-1.1885,-1.2106,-1.2165,-1.2227,-1.2334,-1.2451,-1.2471,-1.251,-1.2588,-1.288,-1.2656,-1.2661,-1.307,-1.3283,-1.3423,-1.3579,-1.3794,-1.3956,-1.4086,-1.4236,-1.4329,-1.4778,-1.5276,-1.5588,-1.5908,-1.6281,-1.6595,-1.6837,-1.7105,-1.7626,-1.8092,-1.8391,-1.8954,-1.9442,-1.9603,-1.969,-1.9705,-1.9705,-1.9705,-1.9705,-1.9705,-1.9705,-1.9705,-1.9705,-1.9705,-1.9705,-1.9705,-1.9705,-1.9705,-1.9747,-1.9803,-1.9965,-2.0124,-2.0449,0.7588,0.7384,0.7116,0.6551,0.5713,0.557,0.5381,0.5199,0.5085,0.5016,0.4955,0.4834,0.4952,0.5062,0.5171,0.5171,0.5171,0.4948,0.456,0.4174,0.3843,0.3231,0.2788,0.251,0.2397,0.2287,0.2176,0.212,0.2009,0.1619,0.1285,0.095,0.0615,0.0336,-0.0168,0.0,0.0,-0.1396,-0.1842,-0.2065,-0.2621,-0.3178,-0.3514,-0.4181,-0.4349,-0.4732,-0.5113,-0.5277,-0.5601,-0.6176,-0.6684,-0.712,-0.757,-0.7939,-0.8228,-0.8383,-0.8498,-0.876,-0.9144,-1.0045,-1.0741,-1.1092,-1.1372,-1.1537,-1.1752,-1.2041,-1.2229,-1.2229,-1.2219,-1.2268,-1.2606,-1.2197,-1.2236,-1.2619,-1.247,-1.2543,-1.2855,-1.3117,-1.3301,-1.3426,-1.3579,-1.3695,-1.4107,-1.4641,-1.5555,-1.5876,-1.6293,-1.6522,-1.6595,-1.6866,-1.7188,-1.7612,-1.7946,-1.8584,-1.9266,-1.9281,-1.9369,-1.9705,-1.9705,-1.9705,-1.9705,-1.9705,-1.9705,-1.9705,-1.9705,-1.9705,-1.969,-1.9711,-1.969,-1.9705,-1.9747,-1.9767,-1.9839,-1.9929,-2.0035,0.7898,0.7101,0.7004,0.7039,0.7017,0.6889,0.6402,0.5817,0.5617,0.5538,0.5529,0.5487,0.5819,0.6263,0.6204,0.6209,0.61,0.571,0.5324,0.5105,0.4615,0.4064,0.3569,0.3234,0.3121,0.2397,0.2452,0.2621,0.2399,0.223,0.184,0.1392,0.1112,0.0613,0.0056,0.0,0.0,-0.0168,-0.0839,-0.1174,-0.1619,-0.251,-0.301,-0.3622,-0.4015,-0.4401,-0.4677,-0.4696,-0.5019,-0.5475,-0.5724,-0.6292,-0.7132,-0.7326,-0.7607,-0.8003,-0.7782,-0.7815,-0.8038,-0.9526,-1.0089,-1.0306,-1.0665,-1.0982,-1.1779,-1.2083,-1.2005,-1.1904,-1.1966,-1.1924,-1.1797,-1.1675,-1.1865,-1.2012,-1.1885,-1.1959,-1.2275,-1.2422,-1.2589,-1.2789,-1.2849,-1.3007,-1.342,-1.4025,-1.5197,-1.5888,-1.6349,-1.6522,-1.6522,-1.6637,-1.6951,-1.7218,-1.7545,-1.7873,-1.8442,-1.8835,-1.908,-1.9479,-1.9705,-1.9705,-1.9705,-1.9705,-1.9705,-1.969,-1.9726,-1.9711,-1.9696,-1.9666,-1.9361,-1.9091,-1.9585,-1.9711,-1.9747,-1.9782,-1.9874,0.8752,0.85,0.8233,0.8172,0.808,0.712,0.6528,0.6354,0.6237,0.6199,0.6253,0.6258,0.6312,0.6534,0.6642,0.6696,0.6588,0.648,0.6091,0.5542,0.5218,0.4783,0.4288,0.4015,0.3901,0.379,0.3735,0.3624,0.379,0.3231,0.2896,0.2502,0.1537,0.0713,0.0,0.0,0.0,0.0,-0.028,-0.056,-0.1062,-0.1675,-0.2341,-0.3176,-0.3564,-0.4003,-0.4378,-0.4321,-0.4513,-0.4912,-0.5155,-0.5896,-0.665,-0.689,-0.7576,-0.7868,-0.7762,-0.7702,-0.7735,-0.8376,-0.9022,-0.9598,-0.9983,-1.0215,-1.0823,-1.1188,-1.1309,-1.131,-1.1291,-1.1296,-1.1567,-1.126,-1.1334,-1.166,-1.1704,-1.1714,-1.189,-1.1881,-1.1935,-1.2053,-1.2204,-1.2842,-1.3324,-1.3839,-1.4891,-1.572,-1.6151,-1.6436,-1.6522,-1.6552,-1.6752,-1.6944,-1.7194,-1.7316,-1.7591,-1.8075,-1.8407,-1.8658,-1.9212,-1.9705,-1.9705,-1.9474,-1.9585,-1.951,-1.9621,-1.9717,-1.9301,-1.8907,-1.8523,-1.8433,-1.8942,-1.942,-1.9561,-1.9621,-1.9747,0.9037,0.901,0.8884,0.8804,0.8646,0.7777,0.7235,0.6966,0.6745,0.6691,0.6907,0.6966,0.7182,0.7295,0.7343,0.7343,0.7343,0.7015,0.6907,0.6195,0.5651,0.5273,0.4893,0.4625,0.4349,0.4515,0.4515,0.4405,0.4349,0.3959,0.3511,0.2929,0.2051,0.1187,0.0,0.0,0.0,0.0,0.0,-0.0224,-0.0672,-0.1118,-0.1618,-0.2388,-0.2982,-0.3504,-0.3854,-0.4068,-0.4209,-0.4525,-0.4879,-0.5547,-0.6029,-0.6588,-0.7342,-0.7576,-0.7742,-0.7595,-0.7446,-0.7365,-0.8134,-0.9039,-0.9028,-0.9287,-0.978,-1.0205,-1.027,-1.033,-1.0373,-1.0429,-1.0531,-1.0289,-1.0586,-1.087,-1.1041,-1.1051,-1.1538,-1.1547,-1.1445,-1.1562,-1.1866,-1.2544,-1.3196,-1.3954,-1.4642,-1.5325,-1.5964,-1.6225,-1.6466,-1.6552,-1.6544,-1.6629,-1.6777,-1.6824,-1.7074,-1.7441,-1.7721,-1.7878,-1.8439,-1.9087,-1.8986,-1.8663,-1.9006,-1.9221,-1.896,-1.8717,-1.8416,-1.8063,-1.753,-1.767,-1.8343,-1.8807,-1.9241,-1.931,-1.9275,0.8811,0.8804,0.8804,0.8804,0.8752,0.8646,0.8315,0.7676,0.702,0.7128,0.7723,0.7723,0.7996,0.8586,0.8699,0.8586,0.8487,0.7937,0.7664,0.723,0.6411,0.5869,0.5437,0.5058,0.4897,0.468,0.4625,0.4677,0.4515,0.4349,0.3959,0.3424,0.2568,0.1855,0.1271,0.0,0.0,0.0,0.0,0.0,0.0,-0.066,-0.104,-0.1684,-0.2362,-0.2973,-0.3404,-0.3697,-0.3956,-0.4094,-0.4079,-0.4619,-0.5139,-0.5585,-0.6446,-0.7084,-0.741,-0.7288,-0.7141,-0.7094,-0.7293,-0.8036,-0.7983,-0.8414,-0.9039,-0.9434,-0.9476,-0.9494,-0.9476,-0.9197,-0.9013,-0.9252,-0.95,-0.9717,-0.9953,-1.0422,-1.1149,-1.1292,-1.1172,-1.127,-1.1538,-1.2069,-1.2569,-1.332,-1.4261,-1.4969,-1.562,-1.6034,-1.6286,-1.6497,-1.6409,-1.6262,-1.6347,-1.636,-1.6547,-1.6646,-1.6705,-1.6746,-1.7356,-1.7942,-1.7815,-1.7895,-1.8179,-1.8262,-1.7975,-1.7664,-1.7258,-1.6866,-1.6424,-1.6772,-1.7118,-1.793,-1.8282,-1.8505,-1.8589,0.8804,0.8804,0.8804,0.8804,0.8804,0.8804,0.8646,0.8427,0.8215,0.8321,0.8474,0.848,0.8586,0.8804,0.8804,0.8804,0.8699,0.854,0.8103,0.761,0.7122,0.674,0.6362,0.5987,0.566,0.5382,0.5164,0.5003,0.4625,0.4515,0.4515,0.4042,0.3216,0.2684,0.2083,0.1297,0.0654,0.0,0.0,0.0,0.0,0.0,0.0,-0.1199,-0.1807,-0.2454,-0.2986,-0.3492,-0.3804,-0.3955,-0.4122,-0.4566,-0.4806,-0.5231,-0.5843,-0.6458,-0.6841,-0.7094,-0.6985,-0.6972,-0.7014,-0.7147,-0.7231,-0.7878,-0.851,-0.8774,-0.874,-0.8723,-0.8739,-0.8486,-0.8512,-0.8692,-0.8904,-0.9148,-0.9421,-0.9897,-1.0501,-1.0523,-1.0447,-1.0584,-1.0855,-1.1407,-1.1949,-1.2934,-1.3849,-1.4609,-1.5194,-1.5574,-1.5989,-1.6173,-1.617,-1.5944,-1.5683,-1.5658,-1.5453,-1.5474,-1.5571,-1.5711,-1.6318,-1.6775,-1.6754,-1.6907,-1.7288,-1.707,-1.6452,-1.6179,-1.6008,-1.5595,-1.523,-1.5145,-1.5471,-1.6488,-1.7305,-1.7441,-1.7724,0.9061,0.8804,0.8804,0.8804,0.8804,0.8804,0.8804,0.8804,0.8804,0.8804,0.8804,0.8752,0.8804,0.8804,0.8804,0.8804,0.8804,0.8752,0.8533,0.8262,0.783,0.7396,0.7074,0.675,0.6312,0.6036,0.5873,0.5769,0.5281,0.4948,0.4893,0.4809,0.3949,0.3394,0.2832,0.2119,0.1413,0.0773,0.0,0.0,0.0,0.0,0.0,-0.0702,-0.1292,-0.1919,-0.2543,-0.3072,-0.3491,-0.3785,-0.4014,-0.4268,-0.4595,-0.5018,-0.5356,-0.5884,-0.6056,-0.6227,-0.6204,-0.6246,-0.6289,-0.6416,-0.6556,-0.6985,-0.7447,-0.7726,-0.7851,-0.7934,-0.7961,-0.7979,-0.8136,-0.83,-0.8545,-0.8797,-0.9079,-0.9359,-0.9506,-0.9634,-0.9701,-0.9747,-1.0164,-1.0752,-1.1533,-1.2494,-1.3222,-1.3631,-1.4098,-1.457,-1.5154,-1.5707,-1.5627,-1.5429,-1.509,-1.4879,-1.4688,-1.4545,-1.4572,-1.477,-1.5189,-1.557,-1.562,-1.5848,-1.6173,-1.5586,-1.4715,-1.4702,-1.491,-1.4428,-1.4088,-1.4115,-1.436,-1.5216,-1.5998,-1.627,-1.665,0.951,0.9008,0.891,0.891,0.885,0.8857,0.8804,0.8804,0.8804,0.8804,0.8804,0.8804,0.8804,0.8804,0.8804,0.8804,0.8804,0.8804,0.8804,0.8752,0.8209,0.783,0.7664,0.7182,0.7015,0.6804,0.6642,0.6529,0.6367,0.5977,0.5579,0.5504,0.4569,0.3953,0.3435,0.2745,0.2137,0.1699,0.0906,0.0,0.0,0.0,0.0,-0.0148,-0.0628,-0.1229,-0.1779,-0.2336,-0.2943,-0.3309,-0.367,-0.3884,-0.4324,-0.484,-0.5135,-0.5303,-0.5432,-0.5561,-0.561,-0.5604,-0.5518,-0.561,-0.5782,-0.613,-0.6507,-0.7098,-0.7356,-0.7391,-0.7433,-0.7433,-0.7558,-0.7807,-0.8103,-0.8349,-0.8635,-0.8878,-0.9079,-0.9159,-0.9248,-0.9399,-0.9849,-1.0424,-1.0941,-1.1923,-1.2611,-1.2722,-1.3167,-1.3748,-1.4189,-1.4909,-1.497,-1.4826,-1.4702,-1.4387,-1.4121,-1.3955,-1.3768,-1.3932,-1.4284,-1.4232,-1.425,-1.457,-1.5033,-1.4404,-1.3745,-1.3812,-1.3841,-1.3618,-1.3585,-1.3794,-1.4044,-1.4264,-1.4667,-1.509,-1.5523,1.0466,1.0261,0.9762,0.9569,0.9458,0.9008,0.8804,0.8804,0.8804,0.8804,0.8804,0.8804,0.8804,0.8804,0.8804,0.8804,0.8804,0.8804,0.8804,0.8804,0.848,0.8374,0.8474,0.8103,0.7883,0.7563,0.7396,0.7182,0.6853,0.6509,0.6212,0.5949,0.5186,0.4564,0.4095,0.3411,0.2724,0.2415,0.187,0.1121,0.0793,0.0648,0.0507,0.0046,-0.0548,-0.0868,-0.1406,-0.2115,-0.2583,-0.2943,-0.3398,-0.3663,-0.384,-0.4351,-0.4565,-0.4696,-0.4957,-0.5091,-0.5135,-0.5091,-0.5091,-0.5221,-0.5394,-0.5432,-0.5819,-0.655,-0.6937,-0.6979,-0.6972,-0.6972,-0.7063,-0.7398,-0.7655,-0.7912,-0.816,-0.8357,-0.8602,-0.8675,-0.8797,-0.9151,-0.9535,-1.005,-1.0548,-1.1126,-1.1836,-1.2394,-1.2951,-1.3367,-1.3447,-1.3907,-1.4047,-1.4038,-1.4274,-1.4047,-1.3697,-1.3405,-1.3212,-1.3138,-1.3423,-1.3253,-1.2943,-1.3266,-1.3674,-1.3408,-1.3037,-1.3304,-1.3454,-1.3344,-1.3374,-1.3555,-1.3583,-1.3802,-1.3749,-1.401,-1.4401,1.1065,1.0762,1.0423,1.0261,1.0167,0.9814,0.9658,0.9607,0.9354,0.9263,0.9159,0.8956,0.8804,0.8804,0.8804,0.8857,0.8857,0.8804,0.8804,0.8804,0.891,0.8752,0.8804,0.8857,0.854,0.8215,0.8156,0.7937,0.745,0.716,0.695,0.66,0.5928,0.5236,0.4718,0.3823,0.3293,0.3078,0.2721,0.223,0.1652,0.1429,0.103,0.0403,0.009,-0.0313,-0.0984,-0.165,-0.2095,-0.2674,-0.3306,-0.3534,-0.3663,-0.388,-0.4049,-0.4136,-0.4312,-0.453,-0.4574,-0.4613,-0.4618,-0.4661,-0.487,-0.4865,-0.5082,-0.5813,-0.652,-0.6605,-0.6937,-0.6979,-0.7021,-0.7231,-0.728,-0.7447,-0.753,-0.7648,-0.7731,-0.7765,-0.7848,-0.7961,-0.8535,-0.9243,-0.9799,-1.0385,-1.0983,-1.1156,-1.1844,-1.224,-1.246,-1.292,-1.3081,-1.3228,-1.3435,-1.3422,-1.3045,-1.2818,-1.2627,-1.2627,-1.2685,-1.2496,-1.2318,-1.2246,-1.2258,-1.2341,-1.2639,-1.3165,-1.3224,-1.2981,-1.3159,-1.3345,-1.3317,-1.3301,-1.3176,-1.3094,-1.3516,1.1625,1.1124,1.0965,1.0914,1.0914,1.0813,1.0762,1.0661,1.0167,0.9909,0.9865,0.9354,0.9061,0.8962,0.9061,0.9061,0.9166,0.9413,0.9263,0.9211,0.9211,0.9211,0.9159,0.9106,0.9054,0.8956,0.8752,0.8699,0.8533,0.8078,0.7635,0.7261,0.6564,0.5758,0.5061,0.45,0.4089,0.3744,0.3439,0.3214,0.2765,0.2228,0.1607,0.1207,0.0895,0.0403,-0.0313,-0.0938,-0.1426,-0.2184,-0.2946,-0.3258,-0.3486,-0.3575,-0.3667,-0.3751,-0.3796,-0.384,-0.3751,-0.384,-0.3796,-0.3796,-0.4089,-0.4391,-0.4609,-0.5087,-0.5787,-0.6221,-0.6556,-0.6937,-0.6979,-0.6979,-0.6979,-0.7021,-0.7063,-0.7105,-0.7105,-0.7105,-0.7147,-0.7189,-0.7821,-0.8627,-0.9274,-0.9832,-1.0098,-1.0205,-1.0467,-1.0687,-1.1099,-1.1819,-1.2284,-1.2406,-1.2562,-1.2458,-1.2365,-1.2305,-1.2148,-1.2173,-1.2174,-1.192,-1.1737,-1.1689,-1.17,-1.1808,-1.2167,-1.2613,-1.2614,-1.2353,-1.2639,-1.2842,-1.2794,-1.2662,-1.2697,-1.2662,-1.2826,1.2618,1.2461,1.1873,1.1616,1.1516,1.1065,1.0813,1.0771,1.072,1.061,1.0568,1.0458,1.0159,0.9666,1.0218,1.032,1.0115,1.0167,1.0364,1.0466,1.0167,0.9961,0.9814,0.9865,0.9961,0.9658,0.9263,0.8857,0.8956,0.8725,0.8268,0.7711,0.7224,0.6497,0.5826,0.5188,0.4424,0.4128,0.378,0.3468,0.3315,0.2818,0.223,0.1875,0.1607,0.1162,0.0626,0.0089,-0.0535,-0.1293,-0.2228,-0.2719,-0.299,-0.317,-0.3306,-0.3309,-0.3309,-0.3353,-0.3309,-0.3398,-0.3398,-0.3486,-0.3744,-0.388,-0.4096,-0.4395,-0.4961,-0.526,-0.5771,-0.6634,-0.6803,-0.6803,-0.6803,-0.6888,-0.6972,-0.7021,-0.7021,-0.7105,-0.7154,-0.7405,-0.7829,-0.857,-0.9248,-0.9646,-0.9892,-1.0157,-1.0572,-1.0753,-1.084,-1.1207,-1.1553,-1.1612,-1.1693,-1.1819,-1.1859,-1.1811,-1.1712,-1.1737,-1.17,-1.1442,-1.1244,-1.1159,-1.1217,-1.1276,-1.149,-1.1808,-1.1763,-1.1726,-1.1681,-1.1861,-1.1968,-1.2029,-1.2102,-1.2258,-1.2389]}]]